[[{"header":{"parameterUnit":"m.s-1","parameterCategory":1,"la1":31.0,"la2":29.5877,"lo1":-88.7671,"lo2":-86.6584,"dy":0.0162,"dx":0.0185,"nx":115,"ny":88,"refTime":"2023-04-26T06:00:00:Z","depth":0,"parameterNumber":2,"parameterNumberName":"U-component_of_WINDS"},"data":[0.0,0.0,0.0,0.0,0.0,0.0,0.0,0.0,0.0,0.0,0.0,0.0,0.0,0.0,0.0,0.0,0.0,0.0,0.0,0.0,0.0,0.0,0.0,0.0,0.0,0.0,0.0,0.0,0.0,0.0,0.0,0.0,0.0,0.0,0.0,0.0,0.0,0.0,0.0,0.0,0.0,0.0,0.0,0.0,0.0,0.0,0.0,0.0,0.0,0.0,0.0,0.0,0.0,0.0,0.0,0.0,0.0,0.0,0.0,0.0,0.0,0.0,0.0,0.0,0.0,0.0,0.0,0.0,0.0,0.0,0.0,0.0,0.0,0.0,0.0,0.0,0.0,0.0,0.0,0.0,0.0,0.0,0.0,0.0,0.0,0.0,0.0,0.0,0.0,0.0,0.0,0.0,0.0,0.0,0.0,0.0,0.0,0.0,0.0,0.0,0.0,0.0,0.0,0.0,0.0,0.0,0.0,0.0,0.0,0.0,0.0,0.0,0.0,0.0,0.0,0.0,0.0,0.0,0.0,0.0,0.0,0.0,0.0,0.0,0.0,0.0,0.0,0.0,0.0,0.0,0.0,0.0,0.0,0.0,0.0,0.0,0.0,0.0,0.0,0.0,0.0,0.0,0.0,0.0,0.0,0.0,0.0,0.0,0.0,0.0,0.0,0.0,0.0,0.0,0.0,0.0,0.0,0.0,0.0,0.0,0.0,0.0,0.0,0.0,0.0,0.0,0.0,0.0,0.0,0.0,0.0,0.0,0.0,0.0,0.0,0.0,0.0,0.0,0.0,0.0,0.0,0.0,0.0,0.0,0.0,0.0,0.0,0.0,0.0,0.0,0.0,0.0,0.0,0.0,0.0,0.0,0.0,0.0,0.0,0.0,0.0,0.0,0.0,0.0,0.0,0.0,0.0,0.0,0.0,0.0,0.0,0.0,0.0,0.0,0.0,0.0,0.0,0.0,0.0,0.0,0.0,0.0,0.0,0.0,0.0,0.0,0.0,0.0,0.0,0.0,0.0,0.0,0.0,0.0,0.0,0.0,0.0,0.0,0.0,0.0,0.0,0.0,0.0,0.0,0.0,0.0,0.0,0.0,0.0,0.0,0.0,0.0,0.0,0.0,0.0,0.0,0.0,0.0,0.0,0.0,0.0,0.0,0.0,0.0,0.0,0.0,0.0,0.0,0.0,0.0,0.0,0.0,0.0,0.0,0.0,0.0,0.0,0.0,0.0,0.0,0.0,0.0,0.0,0.0,0.0,0.0,0.0,0.0,0.0,0.0,0.0,0.0,0.0,0.0,0.0,0.0,0.0,0.0,0.0,0.0,0.0,0.0,0.0,0.0,0.0,0.0,0.0,0.0,0.0,0.0,0.0,0.0,0.0,0.0,0.0,0.0,0.0,0.0,0.0,0.0,0.0,0.0,0.0,0.0,0.0,0.0,0.0,0.0,0.0,0.0,0.0,0.0,0.0,0.0,0.0,0.0,0.0,0.0,0.0,0.0,0.0,0.0,0.0,0.0,0.0,0.0,0.0,0.0,0.0,0.0,0.0,0.0,0.0,0.0,0.0,0.0,0.0,0.0,0.0,0.0,0.0,0.0,0.0,0.0,0.0,0.0,0.0,0.0,0.0,0.0,0.0,0.0,0.0,0.0,0.0,0.0,0.0,0.0,0.0,0.0,0.0,0.0,0.0,0.0,0.0,0.0,0.0,0.0,0.0,0.0,0.0,0.0,0.0,0.0,0.0,0.0,0.0,0.0,0.0,0.0,0.0,0.0,0.0,0.0,0.0,0.0,0.0,0.0,0.0,0.0,0.0,0.0,0.0,0.0,0.0,0.0,0.0,0.0,0.0,0.0,0.0,0.0,0.0,0.0,0.0,0.0,0.0,0.0,0.0,0.0,0.0,0.0,0.0,0.0,0.0,0.0,0.0,0.0,0.0,0.0,0.0,0.0,0.0,0.0,0.0,0.0,0.0,0.0,0.0,0.0,0.0,0.0,0.0,0.0,0.0,0.0,0.0,0.0,0.0,0.0,0.0,0.0,0.0,0.0,0.0,0.0,0.0,0.0,0.0,0.0,0.0,0.0,0.0,0.0,0.0,0.0,0.0,0.0,0.0,0.0,0.0,0.0,0.0,0.0,0.0,0.0,0.0,0.0,0.0,0.0,0.0,0.0,0.0,0.0,0.0,0.0,0.0,0.0,0.0,0.0,0.0,0.0,0.0,0.0,0.0,0.0,0.0,0.0,0.0,0.0,0.0,0.0,0.0,0.0,0.0,0.0,0.0,0.0,0.0,0.0,0.0,0.0,0.0,0.0,0.0,0.0,0.0,0.0,0.0,0.0,0.0,0.0,0.0,0.0,0.0,0.0,0.0,0.0,0.0,0.0,0.0,0.0,0.0,0.0,0.0,0.0,0.0,0.0,0.0,0.0,0.0,0.0,0.0,0.0,0.0,0.0,0.0,0.0,0.0,0.0,0.0,0.0,0.0,0.0,0.0,0.0,0.0,0.0,0.0,0.0,0.0,0.0,0.0,0.0,0.0,0.0,0.0,0.0,0.0,0.0,0.0,0.0,0.0,0.0,0.0,0.0,0.0,0.0,0.0,0.0,0.0,0.0,0.0,0.0,0.0,0.0,0.0,0.0,0.0,0.0,0.0,0.0,0.0,0.0,0.0,0.0,0.0,0.0,0.0,0.0,0.0,0.0,0.0,0.0,0.0,0.0,0.0,0.0,0.0,0.0,0.0,0.0,0.0,0.0,0.0,0.0,0.0,0.0,0.0,0.0,0.0,0.0,0.0,0.0,0.0,0.0,0.0,0.0,0.0,0.0,0.0,0.0,0.0,0.0,0.0,0.0,0.0,0.0,0.0,0.0,0.0,0.0,0.0,0.0,0.0,0.0,0.0,0.0,0.0,0.0,0.0,0.0,0.0,0.0,0.0,0.0,0.0,0.0,0.0,0.0,0.0,0.0,0.0,0.0,0.0,0.0,0.0,0.0,0.0,0.0,0.0,0.0,0.0,0.0,0.0,0.0,0.0,0.0,0.0,0.0,0.0,0.0,0.0,0.0,0.0,0.0,0.0,0.0,0.0,0.0,0.0,0.0,0.0,0.0,0.0,0.0,0.0,0.0,0.0,0.0,0.0,0.0,0.0,0.0,0.0,0.0,0.0,0.0,0.0,0.0,0.0,0.0,0.0,0.0,0.0,0.0,0.0,0.0,0.0,0.0,0.0,0.0,0.0,0.0,0.0,0.0,0.0,0.0,0.0,0.0,0.0,0.0,0.0,0.0,0.0,0.0,0.0,0.0,0.0,0.0,0.0,0.0,0.0,0.0,0.0,0.0,0.0,0.0,0.0,0.0,0.0,0.0,0.0,0.0,0.0,0.0,0.0,0.0,0.0,0.0,0.0,0.0,0.0,0.0,0.0,0.0,0.0,0.0,0.0,0.0,0.0,0.0,0.0,0.0,0.0,0.0,0.0,0.0,0.0,0.0,0.0,0.0,0.0,0.0,0.0,0.0,0.0,0.0,0.0,0.0,0.0,0.0,0.0,0.0,0.0,0.0,0.0,0.0,0.0,0.0,0.0,0.0,0.0,0.0,0.0,0.0,0.0,0.0,0.0,0.0,0.0,0.0,0.0,0.0,0.0,0.0,0.0,0.0,0.0,0.0,0.0,0.0,0.0,0.0,0.0,0.0,0.0,0.0,0.0,0.0,0.0,0.0,0.0,0.0,0.0,0.0,0.0,0.0,0.0,0.0,0.0,0.0,0.0,0.0,0.0,0.0,0.0,0.0,0.0,0.0,0.0,0.0,0.0,0.0,0.0,0.0,0.0,0.0,0.0,0.0,0.0,0.0,0.0,0.0,0.0,0.0,0.0,0.0,0.0,0.0,0.0,0.0,0.0,0.0,0.0,0.0,0.0,0.0,0.0,0.0,0.0,0.0,0.0,0.0,0.0,0.0,0.0,0.0,0.0,0.0,0.0,0.0,0.0,0.0,0.0,0.0,0.0,0.0,0.0,0.0,0.0,0.0,0.0,0.0,0.0,0.0,0.0,0.0,0.0,0.0,0.0,0.0,0.0,0.0,0.0,0.0,0.0,0.0,0.0,0.0,0.0,0.0,0.0,0.0,0.0,0.0,0.0,0.0,0.0,0.0,0.0,0.0,0.0,0.0,0.0,0.0,0.0,0.0,0.0,0.0,0.0,0.0,0.0,0.0,0.0,0.0,0.0,0.0,0.0,0.0,0.0,0.0,0.0,0.0,0.0,0.0,-3.8654,0.0,0.0,0.0,0.0,0.0,0.0,0.0,0.0,0.0,0.0,0.0,0.0,0.0,0.0,0.0,0.0,0.0,0.0,0.0,0.0,0.0,0.0,0.0,0.0,0.0,0.0,0.0,0.0,0.0,0.0,0.0,0.0,0.0,0.0,0.0,0.0,0.0,0.0,0.0,0.0,0.0,0.0,0.0,0.0,0.0,0.0,0.0,0.0,0.0,0.0,0.0,0.0,0.0,0.0,0.0,0.0,0.0,0.0,0.0,0.0,0.0,0.0,0.0,0.0,0.0,0.0,0.0,0.0,0.0,0.0,0.0,0.0,0.0,0.0,0.0,0.0,0.0,0.0,0.0,0.0,0.0,0.0,0.0,0.0,0.0,0.0,0.0,0.0,0.0,0.0,0.0,0.0,0.0,0.0,0.0,0.0,0.0,0.0,0.0,0.0,0.0,0.0,0.0,0.0,0.0,0.0,0.0,0.0,0.0,0.0,-4.0314,-3.9924,-3.9729,-3.9534,-3.9412,0.0,0.0,0.0,0.0,0.0,0.0,0.0,0.0,0.0,0.0,0.0,0.0,0.0,0.0,0.0,0.0,0.0,0.0,0.0,0.0,0.0,0.0,0.0,0.0,0.0,0.0,0.0,0.0,0.0,0.0,0.0,0.0,0.0,0.0,0.0,0.0,0.0,0.0,0.0,0.0,0.0,0.0,0.0,0.0,0.0,0.0,0.0,0.0,0.0,0.0,0.0,0.0,0.0,0.0,0.0,0.0,0.0,0.0,0.0,0.0,0.0,0.0,0.0,0.0,0.0,0.0,0.0,0.0,0.0,0.0,0.0,0.0,0.0,0.0,0.0,0.0,0.0,0.0,0.0,0.0,0.0,0.0,0.0,0.0,0.0,0.0,0.0,0.0,0.0,0.0,0.0,0.0,0.0,0.0,0.0,0.0,0.0,0.0,0.0,0.0,0.0,0.0,0.0,0.0,0.0,0.0,0.0,0.0,0.0,0.0,0.0,0.0,-4.0171,-4.0221,-4.0221,0.0,0.0,0.0,0.0,0.0,0.0,0.0,0.0,0.0,0.0,0.0,0.0,0.0,0.0,0.0,0.0,0.0,0.0,0.0,0.0,0.0,0.0,0.0,0.0,0.0,0.0,0.0,0.0,0.0,0.0,0.0,0.0,0.0,0.0,0.0,0.0,0.0,0.0,0.0,0.0,0.0,0.0,0.0,0.0,0.0,0.0,0.0,0.0,0.0,0.0,0.0,0.0,0.0,0.0,0.0,0.0,0.0,0.0,0.0,0.0,0.0,0.0,0.0,0.0,0.0,0.0,0.0,0.0,0.0,0.0,0.0,0.0,0.0,0.0,0.0,0.0,0.0,0.0,0.0,0.0,0.0,0.0,0.0,0.0,0.0,0.0,0.0,0.0,0.0,0.0,0.0,0.0,0.0,0.0,0.0,0.0,0.0,0.0,0.0,0.0,0.0,0.0,0.0,0.0,0.0,0.0,0.0,0.0,0.0,0.0,-4.0045,-3.9859,-4.0294,0.0,-4.0531,0.0,0.0,0.0,0.0,0.0,0.0,0.0,0.0,0.0,0.0,0.0,0.0,0.0,0.0,0.0,0.0,0.0,0.0,0.0,0.0,0.0,0.0,0.0,0.0,0.0,0.0,0.0,0.0,0.0,0.0,0.0,0.0,0.0,0.0,0.0,0.0,0.0,0.0,0.0,0.0,0.0,0.0,0.0,0.0,0.0,0.0,0.0,0.0,0.0,0.0,0.0,0.0,0.0,0.0,0.0,0.0,0.0,0.0,0.0,0.0,0.0,0.0,0.0,0.0,0.0,0.0,0.0,0.0,0.0,0.0,0.0,0.0,0.0,0.0,0.0,0.0,0.0,0.0,0.0,0.0,0.0,0.0,0.0,0.0,0.0,0.0,0.0,0.0,0.0,0.0,0.0,0.0,0.0,0.0,0.0,0.0,0.0,0.0,0.0,0.0,0.0,0.0,0.0,0.0,0.0,0.0,0.0,0.0,0.0,0.0,-3.9314,-3.8472,-3.9409,-3.9941,0.0,0.0,0.0,0.0,0.0,0.0,0.0,0.0,0.0,0.0,0.0,0.0,0.0,0.0,0.0,0.0,0.0,0.0,0.0,0.0,0.0,0.0,0.0,0.0,0.0,0.0,0.0,0.0,0.0,0.0,0.0,0.0,0.0,0.0,0.0,0.0,0.0,0.0,0.0,0.0,0.0,0.0,0.0,0.0,0.0,0.0,0.0,0.0,0.0,0.0,0.0,0.0,0.0,0.0,0.0,0.0,0.0,0.0,0.0,0.0,0.0,0.0,0.0,0.0,0.0,0.0,0.0,0.0,0.0,0.0,0.0,0.0,0.0,0.0,0.0,0.0,0.0,0.0,0.0,0.0,0.0,0.0,0.0,0.0,0.0,0.0,0.0,0.0,0.0,0.0,0.0,0.0,0.0,0.0,0.0,0.0,0.0,0.0,0.0,0.0,0.0,0.0,0.0,0.0,0.0,0.0,0.0,0.0,0.0,0.0,-3.88,-3.8523,-3.772,-3.8472,-3.9091,-3.9461,0.0,0.0,0.0,0.0,0.0,0.0,0.0,0.0,0.0,0.0,0.0,0.0,0.0,0.0,0.0,0.0,0.0,0.0,0.0,0.0,0.0,0.0,0.0,0.0,0.0,0.0,0.0,0.0,0.0,0.0,0.0,0.0,0.0,0.0,0.0,0.0,0.0,0.0,0.0,0.0,0.0,0.0,0.0,0.0,0.0,0.0,0.0,0.0,0.0,0.0,0.0,0.0,0.0,0.0,0.0,0.0,0.0,0.0,0.0,0.0,0.0,0.0,0.0,0.0,0.0,0.0,0.0,0.0,0.0,0.0,0.0,0.0,0.0,0.0,0.0,0.0,0.0,0.0,0.0,0.0,0.0,0.0,0.0,0.0,0.0,0.0,0.0,0.0,0.0,0.0,0.0,0.0,0.0,0.0,0.0,0.0,0.0,0.0,0.0,0.0,0.0,0.0,0.0,0.0,0.0,0.0,0.0,0.0,-3.8387,-3.7844,-3.7711,-3.7925,-3.766,-3.8128,0.0,0.0,0.0,0.0,0.0,0.0,0.0,0.0,0.0,0.0,0.0,0.0,0.0,0.0,0.0,0.0,0.0,0.0,0.0,0.0,0.0,0.0,0.0,0.0,0.0,0.0,0.0,0.0,0.0,0.0,0.0,0.0,0.0,0.0,0.0,0.0,0.0,0.0,0.0,0.0,0.0,0.0,0.0,0.0,0.0,0.0,0.0,0.0,0.0,0.0,0.0,0.0,0.0,0.0,0.0,0.0,0.0,0.0,0.0,0.0,0.0,0.0,0.0,0.0,0.0,0.0,0.0,0.0,0.0,0.0,0.0,0.0,0.0,0.0,0.0,0.0,0.0,0.0,0.0,0.0,0.0,0.0,0.0,0.0,0.0,0.0,0.0,0.0,0.0,0.0,0.0,0.0,0.0,0.0,0.0,0.0,0.0,0.0,0.0,0.0,0.0,0.0,0.0,0.0,0.0,0.0,0.0,0.0,0.0,-3.692,-3.6278,-3.6145,-3.6531,-3.7121,-3.7649,0.0,0.0,0.0,0.0,0.0,0.0,0.0,0.0,0.0,0.0,0.0,0.0,0.0,0.0,0.0,0.0,0.0,0.0,0.0,0.0,0.0,0.0,0.0,0.0,0.0,0.0,0.0,0.0,0.0,0.0,0.0,0.0,0.0,0.0,0.0,0.0,0.0,0.0,0.0,0.0,0.0,0.0,0.0,0.0,0.0,0.0,0.0,0.0,0.0,0.0,0.0,0.0,0.0,0.0,0.0,0.0,0.0,0.0,0.0,0.0,0.0,0.0,0.0,0.0,0.0,0.0,0.0,0.0,0.0,0.0,0.0,0.0,0.0,0.0,0.0,0.0,0.0,0.0,0.0,0.0,0.0,0.0,0.0,0.0,0.0,0.0,0.0,0.0,0.0,0.0,0.0,0.0,0.0,0.0,0.0,0.0,0.0,0.0,0.0,0.0,0.0,0.0,0.0,0.0,0.0,0.0,0.0,0.0,0.0,-3.6163,0.0,-3.6031,-3.635,-3.7026,-3.745,0.0,0.0,0.0,0.0,0.0,0.0,0.0,0.0,0.0,0.0,0.0,0.0,0.0,0.0,0.0,0.0,0.0,0.0,0.0,0.0,0.0,0.0,0.0,0.0,0.0,0.0,0.0,0.0,0.0,0.0,0.0,0.0,0.0,0.0,0.0,0.0,0.0,0.0,0.0,0.0,0.0,0.0,0.0,0.0,0.0,0.0,0.0,0.0,0.0,0.0,0.0,0.0,0.0,0.0,0.0,0.0,0.0,0.0,0.0,0.0,0.0,0.0,0.0,0.0,0.0,0.0,0.0,0.0,0.0,0.0,0.0,0.0,0.0,0.0,0.0,0.0,0.0,0.0,0.0,0.0,0.0,0.0,0.0,0.0,0.0,0.0,0.0,0.0,0.0,0.0,0.0,0.0,0.0,0.0,0.0,0.0,0.0,0.0,0.0,0.0,0.0,0.0,0.0,0.0,0.0,0.0,0.0,0.0,-3.6747,-3.646,-3.714,-3.7515,-3.766,-3.7428,-3.7529,0.0,0.0,0.0,0.0,0.0,0.0,0.0,0.0,0.0,0.0,0.0,0.0,0.0,0.0,0.0,0.0,0.0,0.0,0.0,0.0,0.0,0.0,0.0,0.0,0.0,0.0,0.0,0.0,0.0,0.0,0.0,0.0,0.0,0.0,0.0,0.0,0.0,0.0,0.0,0.0,0.0,0.0,0.0,0.0,0.0,0.0,0.0,0.0,0.0,0.0,0.0,0.0,0.0,0.0,0.0,0.0,0.0,0.0,0.0,0.0,0.0,0.0,0.0,0.0,0.0,0.0,0.0,0.0,0.0,0.0,0.0,0.0,0.0,0.0,0.0,0.0,0.0,0.0,0.0,0.0,0.0,0.0,0.0,0.0,0.0,0.0,0.0,0.0,0.0,0.0,0.0,0.0,0.0,0.0,0.0,0.0,0.0,0.0,0.0,0.0,0.0,0.0,0.0,0.0,0.0,0.0,0.0,0.0,0.0,-3.7676,-3.8138,-3.8176,-3.7769,-3.8493,-3.8476,0.0,0.0,0.0,0.0,0.0,0.0,0.0,0.0,0.0,0.0,0.0,0.0,0.0,0.0,0.0,0.0,0.0,0.0,0.0,0.0,0.0,0.0,0.0,0.0,0.0,0.0,0.0,0.0,0.0,0.0,0.0,0.0,0.0,0.0,0.0,0.0,0.0,0.0,0.0,0.0,0.0,0.0,0.0,0.0,0.0,0.0,0.0,0.0,0.0,0.0,0.0,0.0,0.0,0.0,0.0,0.0,0.0,0.0,0.0,0.0,0.0,0.0,0.0,0.0,0.0,0.0,0.0,0.0,0.0,0.0,0.0,0.0,0.0,0.0,0.0,0.0,0.0,0.0,0.0,0.0,0.0,0.0,0.0,0.0,0.0,0.0,0.0,0.0,0.0,0.0,0.0,0.0,0.0,0.0,0.0,0.0,0.0,0.0,0.0,0.0,0.0,0.0,0.0,0.0,0.0,0.0,0.0,0.0,0.0,-4.0282,-4.0562,-4.0496,-4.006,-4.0556,-3.9979,-3.8241,0.0,0.0,0.0,0.0,0.0,0.0,0.0,0.0,0.0,0.0,0.0,0.0,0.0,0.0,0.0,0.0,0.0,0.0,0.0,0.0,0.0,0.0,0.0,0.0,0.0,0.0,0.0,0.0,0.0,0.0,0.0,0.0,0.0,0.0,0.0,0.0,0.0,0.0,0.0,0.0,0.0,0.0,0.0,0.0,0.0,0.0,0.0,0.0,0.0,0.0,0.0,0.0,0.0,0.0,0.0,0.0,0.0,0.0,0.0,0.0,0.0,0.0,0.0,0.0,0.0,0.0,0.0,0.0,0.0,0.0,0.0,0.0,0.0,0.0,0.0,0.0,0.0,0.0,0.0,0.0,0.0,0.0,0.0,0.0,0.0,0.0,0.0,0.0,0.0,0.0,0.0,0.0,0.0,0.0,0.0,0.0,0.0,0.0,0.0,0.0,0.0,0.0,0.0,0.0,0.0,0.0,0.0,0.0,-4.3904,-4.421,-4.4264,-4.4107,-4.3325,-4.193,0.0,0.0,0.0,0.0,0.0,0.0,0.0,0.0,0.0,0.0,0.0,0.0,0.0,0.0,0.0,0.0,0.0,0.0,0.0,0.0,0.0,0.0,0.0,0.0,0.0,0.0,0.0,0.0,0.0,0.0,0.0,0.0,0.0,0.0,0.0,0.0,0.0,0.0,0.0,0.0,0.0,0.0,0.0,0.0,0.0,0.0,0.0,0.0,0.0,0.0,0.0,0.0,0.0,0.0,0.0,0.0,0.0,0.0,0.0,0.0,0.0,0.0,0.0,0.0,0.0,0.0,0.0,0.0,0.0,0.0,0.0,0.0,0.0,0.0,0.0,0.0,0.0,0.0,0.0,0.0,0.0,0.0,0.0,0.0,0.0,0.0,0.0,0.0,0.0,0.0,0.0,0.0,0.0,0.0,0.0,0.0,0.0,0.0,0.0,0.0,0.0,0.0,0.0,0.0,0.0,0.0,0.0,0.0,0.0,-4.5854,-4.8347,-4.852,-4.6177,-4.5547,-4.3892,0.0,0.0,0.0,0.0,0.0,0.0,0.0,0.0,0.0,0.0,0.0,0.0,0.0,0.0,0.0,0.0,0.0,0.0,0.0,0.0,0.0,0.0,0.0,0.0,0.0,0.0,0.0,0.0,0.0,0.0,0.0,0.0,0.0,0.0,0.0,0.0,0.0,0.0,0.0,0.0,0.0,0.0,0.0,0.0,0.0,0.0,0.0,0.0,0.0,0.0,0.0,0.0,0.0,0.0,0.0,0.0,0.0,0.0,0.0,0.0,0.0,0.0,0.0,0.0,0.0,0.0,0.0,0.0,0.0,0.0,0.0,0.0,0.0,0.0,0.0,0.0,0.0,0.0,0.0,0.0,0.0,0.0,0.0,0.0,0.0,0.0,0.0,0.0,0.0,0.0,0.0,0.0,0.0,0.0,0.0,0.0,0.0,0.0,0.0,0.0,0.0,0.0,0.0,0.0,0.0,0.0,0.0,0.0,-4.5004,-4.7467,-5.1178,-5.2305,-5.0581,-4.7983,-4.5387,0.0,0.0,0.0,0.0,0.0,0.0,0.0,0.0,0.0,0.0,0.0,0.0,0.0,0.0,0.0,0.0,0.0,0.0,0.0,0.0,0.0,0.0,0.0,0.0,0.0,0.0,0.0,0.0,0.0,0.0,0.0,0.0,0.0,0.0,0.0,0.0,0.0,0.0,0.0,0.0,0.0,0.0,0.0,0.0,0.0,0.0,0.0,0.0,0.0,0.0,0.0,0.0,0.0,0.0,0.0,0.0,0.0,0.0,0.0,0.0,0.0,0.0,0.0,0.0,0.0,0.0,0.0,0.0,0.0,0.0,0.0,0.0,0.0,0.0,0.0,0.0,0.0,0.0,0.0,0.0,0.0,0.0,0.0,0.0,0.0,0.0,0.0,0.0,0.0,0.0,0.0,0.0,0.0,0.0,0.0,0.0,0.0,0.0,0.0,0.0,0.0,0.0,0.0,0.0,0.0,0.0,0.0,0.0,-4.5921,-4.8876,-5.315,-5.5466,-5.5588,-5.0443,-4.6651,0.0,0.0,0.0,0.0,0.0,0.0,0.0,0.0,0.0,0.0,0.0,0.0,0.0,0.0,0.0,0.0,0.0,0.0,0.0,0.0,0.0,0.0,0.0,0.0,0.0,0.0,0.0,0.0,0.0,0.0,0.0,0.0,0.0,0.0,0.0,0.0,0.0,0.0,0.0,0.0,0.0,0.0,0.0,0.0,0.0,0.0,0.0,0.0,0.0,0.0,0.0,0.0,0.0,0.0,0.0,0.0,0.0,0.0,0.0,0.0,0.0,0.0,0.0,0.0,0.0,0.0,0.0,0.0,0.0,0.0,0.0,0.0,0.0,0.0,0.0,0.0,0.0,0.0,0.0,0.0,0.0,0.0,0.0,0.0,0.0,0.0,0.0,0.0,0.0,0.0,0.0,0.0,0.0,0.0,0.0,0.0,0.0,0.0,0.0,0.0,0.0,0.0,0.0,0.0,0.0,0.0,0.0,0.0,-4.7917,-5.042,-5.4766,-5.6774,-5.6173,-5.218,-4.8652,0.0,0.0,0.0,0.0,0.0,0.0,0.0,0.0,0.0,0.0,0.0,0.0,0.0,0.0,0.0,0.0,0.0,0.0,0.0,0.0,0.0,0.0,0.0,0.0,0.0,0.0,0.0,0.0,0.0,0.0,0.0,0.0,0.0,0.0,0.0,0.0,0.0,0.0,0.0,0.0,0.0,0.0,0.0,0.0,0.0,0.0,0.0,0.0,-4.3262,0.0,0.0,0.0,0.0,0.0,0.0,0.0,0.0,0.0,0.0,0.0,0.0,0.0,0.0,0.0,0.0,0.0,0.0,0.0,0.0,0.0,0.0,0.0,0.0,0.0,0.0,0.0,0.0,0.0,0.0,0.0,0.0,0.0,0.0,0.0,0.0,0.0,0.0,0.0,0.0,0.0,0.0,0.0,0.0,0.0,0.0,0.0,0.0,0.0,0.0,0.0,0.0,0.0,0.0,0.0,0.0,0.0,0.0,0.0,-4.922,-5.2058,-5.5839,-5.7711,-5.7358,-5.3985,-5.0429,0.0,0.0,0.0,0.0,0.0,0.0,0.0,0.0,0.0,0.0,0.0,0.0,0.0,0.0,0.0,0.0,0.0,0.0,0.0,0.0,0.0,0.0,0.0,0.0,0.0,0.0,0.0,0.0,0.0,0.0,0.0,0.0,0.0,0.0,0.0,0.0,0.0,0.0,0.0,0.0,0.0,0.0,0.0,0.0,0.0,0.0,0.0,0.0,0.0,0.0,0.0,0.0,0.0,0.0,0.0,0.0,0.0,0.0,0.0,0.0,0.0,0.0,0.0,0.0,0.0,0.0,0.0,0.0,0.0,0.0,0.0,0.0,0.0,0.0,0.0,0.0,0.0,0.0,0.0,0.0,0.0,0.0,0.0,0.0,0.0,0.0,0.0,0.0,0.0,0.0,0.0,0.0,0.0,0.0,0.0,0.0,0.0,0.0,0.0,0.0,0.0,0.0,0.0,0.0,0.0,0.0,0.0,-4.6425,-5.0187,-5.3661,-5.6648,-5.8308,-5.8528,-5.5268,-5.175,-4.8052,0.0,0.0,0.0,0.0,0.0,0.0,0.0,0.0,0.0,0.0,0.0,0.0,0.0,0.0,0.0,0.0,0.0,0.0,0.0,0.0,0.0,0.0,0.0,0.0,0.0,0.0,0.0,0.0,0.0,0.0,0.0,0.0,0.0,0.0,0.0,0.0,0.0,0.0,-4.5828,-4.4716,0.0,0.0,0.0,0.0,0.0,0.0,0.0,0.0,-4.4324,0.0,0.0,0.0,0.0,0.0,0.0,0.0,0.0,0.0,0.0,0.0,0.0,0.0,0.0,0.0,0.0,0.0,0.0,0.0,0.0,0.0,0.0,0.0,0.0,0.0,0.0,0.0,0.0,0.0,0.0,0.0,0.0,0.0,0.0,0.0,0.0,0.0,0.0,0.0,0.0,0.0,0.0,0.0,0.0,0.0,0.0,0.0,0.0,0.0,0.0,0.0,0.0,0.0,0.0,0.0,0.0,-4.3401,-4.706,-5.0955,-5.5159,-5.745,-5.8293,-5.7585,-5.495,-5.1787,-4.82,0.0,0.0,0.0,0.0,0.0,0.0,0.0,0.0,0.0,0.0,0.0,0.0,0.0,0.0,0.0,0.0,0.0,0.0,0.0,0.0,0.0,0.0,0.0,0.0,0.0,0.0,0.0,0.0,0.0,0.0,0.0,0.0,0.0,0.0,0.0,0.0,0.0,0.0,0.0,-4.4983,-4.4565,0.0,0.0,0.0,0.0,0.0,0.0,0.0,0.0,-4.6181,0.0,0.0,0.0,0.0,0.0,0.0,0.0,0.0,0.0,0.0,0.0,0.0,0.0,0.0,0.0,0.0,0.0,0.0,0.0,0.0,0.0,0.0,0.0,0.0,0.0,0.0,0.0,0.0,0.0,0.0,0.0,0.0,0.0,0.0,0.0,0.0,0.0,0.0,0.0,0.0,0.0,0.0,0.0,0.0,0.0,0.0,0.0,0.0,0.0,0.0,0.0,0.0,0.0,0.0,0.0,-4.5604,-4.9531,-5.3279,-5.6744,-5.8213,-5.8662,-5.8021,-5.4635,-5.1538,0.0,0.0,0.0,0.0,0.0,0.0,0.0,0.0,0.0,0.0,0.0,0.0,0.0,0.0,0.0,0.0,0.0,0.0,0.0,0.0,0.0,0.0,0.0,0.0,0.0,0.0,0.0,0.0,0.0,0.0,0.0,0.0,0.0,0.0,0.0,0.0,0.0,0.0,0.0,0.0,-4.4932,-4.4923,-4.5378,0.0,0.0,0.0,0.0,0.0,0.0,-4.6407,-4.6422,0.0,0.0,0.0,0.0,0.0,0.0,0.0,0.0,0.0,0.0,0.0,0.0,0.0,0.0,0.0,0.0,0.0,0.0,0.0,0.0,0.0,0.0,0.0,0.0,0.0,0.0,0.0,0.0,0.0,0.0,0.0,0.0,0.0,0.0,0.0,0.0,0.0,0.0,0.0,0.0,0.0,0.0,0.0,0.0,0.0,0.0,0.0,0.0,0.0,0.0,0.0,0.0,0.0,0.0,0.0,-4.772,-5.184,-5.5352,-5.8115,-5.8854,-5.8997,-5.8489,-5.4162,-5.098,0.0,0.0,0.0,0.0,0.0,0.0,0.0,0.0,0.0,0.0,0.0,0.0,0.0,0.0,0.0,0.0,0.0,0.0,0.0,0.0,0.0,0.0,0.0,0.0,0.0,0.0,0.0,0.0,0.0,0.0,0.0,0.0,0.0,0.0,0.0,0.0,0.0,0.0,0.0,0.0,0.0,-4.5356,-4.5881,-4.4858,0.0,0.0,0.0,0.0,-4.5503,-4.6457,0.0,0.0,0.0,0.0,0.0,0.0,0.0,0.0,0.0,0.0,0.0,0.0,0.0,0.0,0.0,0.0,0.0,0.0,0.0,0.0,0.0,0.0,0.0,0.0,0.0,0.0,0.0,0.0,0.0,0.0,0.0,0.0,0.0,0.0,0.0,0.0,0.0,0.0,0.0,0.0,0.0,0.0,0.0,0.0,0.0,0.0,0.0,0.0,0.0,0.0,0.0,0.0,0.0,0.0,0.0,0.0,-4.8773,-5.2355,-5.5733,-5.8886,-5.9148,-5.8827,-5.8051,-5.3279,-4.9882,0.0,0.0,0.0,0.0,0.0,0.0,0.0,0.0,0.0,0.0,0.0,0.0,0.0,0.0,0.0,0.0,0.0,0.0,0.0,0.0,0.0,0.0,0.0,0.0,0.0,0.0,0.0,0.0,0.0,0.0,0.0,0.0,0.0,0.0,0.0,0.0,0.0,0.0,0.0,0.0,0.0,-4.6271,-4.7757,-4.6873,-4.63,0.0,0.0,-4.6481,-4.8303,-4.8236,0.0,0.0,0.0,0.0,0.0,0.0,0.0,0.0,0.0,0.0,0.0,0.0,0.0,0.0,0.0,0.0,0.0,0.0,0.0,0.0,0.0,0.0,0.0,0.0,0.0,0.0,0.0,0.0,0.0,0.0,0.0,0.0,0.0,0.0,0.0,0.0,0.0,0.0,0.0,0.0,0.0,0.0,0.0,0.0,0.0,0.0,0.0,0.0,0.0,0.0,0.0,0.0,0.0,0.0,0.0,-4.6557,-4.9699,-5.4086,-5.7509,-5.979,-6.0346,-5.996,-5.8712,-5.3547,-5.001,0.0,0.0,0.0,0.0,0.0,0.0,0.0,0.0,0.0,0.0,0.0,0.0,0.0,0.0,0.0,0.0,0.0,0.0,0.0,0.0,0.0,0.0,0.0,0.0,0.0,0.0,0.0,0.0,0.0,0.0,0.0,0.0,0.0,0.0,0.0,0.0,0.0,0.0,0.0,0.0,0.0,0.0,-4.7927,-4.755,0.0,0.0,0.0,-4.6761,-4.7766,0.0,0.0,0.0,0.0,0.0,0.0,0.0,0.0,0.0,0.0,0.0,0.0,0.0,0.0,0.0,0.0,0.0,0.0,0.0,0.0,0.0,0.0,0.0,0.0,0.0,0.0,0.0,0.0,0.0,0.0,0.0,0.0,0.0,0.0,0.0,0.0,0.0,0.0,0.0,0.0,0.0,0.0,0.0,0.0,0.0,0.0,0.0,0.0,0.0,0.0,0.0,0.0,0.0,0.0,0.0,0.0,0.0,-5.0507,-5.5454,-5.8786,-6.0364,-6.119,-6.0823,-5.9179,-5.4321,0.0,0.0,0.0,0.0,0.0,0.0,0.0,0.0,0.0,0.0,0.0,0.0,0.0,0.0,0.0,0.0,0.0,0.0,0.0,0.0,0.0,0.0,0.0,0.0,0.0,0.0,0.0,-4.2593,0.0,0.0,0.0,0.0,0.0,0.0,0.0,0.0,0.0,0.0,0.0,0.0,0.0,0.0,-4.8002,-4.833,-4.83,-4.8504,0.0,0.0,-4.7262,-4.8229,-5.0838,-5.1213,0.0,0.0,0.0,0.0,0.0,0.0,0.0,0.0,0.0,0.0,0.0,0.0,0.0,0.0,0.0,0.0,0.0,0.0,0.0,0.0,0.0,0.0,0.0,0.0,0.0,0.0,0.0,0.0,0.0,0.0,0.0,0.0,0.0,0.0,0.0,0.0,0.0,0.0,0.0,0.0,0.0,0.0,0.0,0.0,0.0,0.0,0.0,0.0,0.0,0.0,0.0,0.0,0.0,0.0,-4.8122,-5.1228,-5.5703,-5.8786,-6.0346,-6.1172,-6.0841,-5.9203,-5.5627,-5.2298,0.0,0.0,0.0,0.0,0.0,0.0,0.0,0.0,0.0,0.0,0.0,0.0,0.0,0.0,0.0,0.0,0.0,0.0,0.0,0.0,0.0,0.0,0.0,0.0,0.0,0.0,0.0,0.0,0.0,0.0,0.0,0.0,0.0,0.0,0.0,0.0,0.0,0.0,0.0,0.0,0.0,-4.8742,-4.978,-4.9674,-5.0145,0.0,-4.9582,-4.8621,-5.164,-5.1879,-5.0815,-4.8206,0.0,0.0,0.0,0.0,0.0,0.0,0.0,0.0,0.0,0.0,0.0,0.0,0.0,0.0,0.0,0.0,0.0,0.0,0.0,0.0,0.0,0.0,0.0,0.0,0.0,0.0,0.0,0.0,0.0,0.0,0.0,0.0,0.0,0.0,0.0,0.0,0.0,0.0,0.0,0.0,0.0,0.0,0.0,0.0,0.0,0.0,0.0,0.0,0.0,0.0,0.0,0.0,0.0,-4.8413,-5.2029,-5.5976,-5.9024,-6.1062,-6.1942,-6.1814,-6.0713,-5.7228,-5.4051,0.0,0.0,0.0,0.0,0.0,0.0,0.0,0.0,0.0,0.0,0.0,0.0,0.0,0.0,0.0,0.0,0.0,0.0,0.0,0.0,0.0,0.0,0.0,0.0,0.0,0.0,0.0,0.0,-4.5446,-4.5836,-4.6229,0.0,0.0,0.0,0.0,0.0,0.0,0.0,0.0,0.0,0.0,-4.8954,-5.0446,-5.0743,0.0,0.0,-5.0775,-5.0078,-5.0743,-5.0551,-4.9418,-4.6876,-4.5586,0.0,0.0,0.0,0.0,0.0,0.0,0.0,0.0,0.0,0.0,0.0,0.0,0.0,0.0,0.0,0.0,0.0,0.0,0.0,0.0,0.0,0.0,0.0,0.0,0.0,0.0,0.0,0.0,0.0,0.0,0.0,0.0,0.0,0.0,0.0,0.0,0.0,0.0,0.0,0.0,0.0,0.0,0.0,0.0,0.0,0.0,0.0,0.0,0.0,0.0,0.0,0.0,-4.8786,-5.2491,-5.6376,-5.941,-6.1557,-6.2383,-6.242,-6.1551,-5.8696,-5.5973,0.0,0.0,0.0,0.0,0.0,0.0,0.0,0.0,0.0,0.0,0.0,0.0,0.0,0.0,0.0,0.0,0.0,0.0,0.0,0.0,0.0,0.0,0.0,0.0,0.0,0.0,0.0,0.0,-4.5638,-4.584,-4.6059,0.0,0.0,0.0,0.0,0.0,0.0,0.0,0.0,0.0,0.0,-4.9557,-5.055,-5.0938,-5.1165,-5.1294,-5.0925,-5.0391,-4.9788,-4.9135,-4.8127,-4.6367,0.0,0.0,0.0,0.0,0.0,0.0,0.0,0.0,0.0,0.0,0.0,0.0,0.0,0.0,0.0,0.0,0.0,0.0,0.0,0.0,0.0,0.0,0.0,0.0,0.0,0.0,0.0,0.0,0.0,0.0,-3.6154,0.0,0.0,0.0,0.0,0.0,0.0,0.0,0.0,0.0,0.0,0.0,0.0,0.0,0.0,0.0,0.0,0.0,0.0,0.0,0.0,0.0,0.0,-4.9344,-5.2491,-5.6921,-5.9979,-6.1575,-6.2383,-6.242,-6.1612,-6.001,-5.8081,-5.5817,0.0,0.0,0.0,0.0,0.0,0.0,0.0,0.0,0.0,0.0,0.0,0.0,0.0,0.0,0.0,0.0,0.0,0.0,0.0,0.0,0.0,0.0,0.0,0.0,0.0,0.0,-4.4095,-4.5086,-4.5813,0.0,0.0,0.0,0.0,0.0,0.0,0.0,0.0,0.0,0.0,-4.872,-5.0707,-5.0105,-5.0025,-5.0221,-5.0629,-4.9769,-4.9108,-4.9342,-4.8023,-4.7034,0.0,0.0,0.0,0.0,0.0,0.0,0.0,0.0,0.0,0.0,0.0,0.0,0.0,0.0,0.0,0.0,0.0,0.0,0.0,0.0,0.0,0.0,0.0,0.0,0.0,0.0,0.0,-3.8975,-3.9074,0.0,0.0,0.0,0.0,0.0,0.0,0.0,0.0,0.0,0.0,0.0,-4.6529,-4.707,0.0,0.0,0.0,0.0,0.0,0.0,0.0,0.0,0.0,0.0,0.0,0.0,-5.036,-5.3868,-5.7375,-6.023,-6.2328,-6.2677,-6.2695,-6.242,-6.1355,-5.9262,-5.5986,0.0,0.0,0.0,0.0,0.0,0.0,0.0,0.0,0.0,0.0,0.0,0.0,0.0,0.0,0.0,0.0,0.0,0.0,0.0,0.0,0.0,0.0,0.0,0.0,0.0,-4.5817,0.0,0.0,0.0,0.0,0.0,0.0,0.0,0.0,0.0,0.0,0.0,-4.6839,-4.8064,-4.8432,-4.8775,-4.9249,-4.9221,-4.9292,0.0,0.0,0.0,0.0,0.0,0.0,0.0,0.0,0.0,0.0,0.0,0.0,0.0,0.0,-4.6732,-4.4861,-4.5199,-4.597,-4.6562,0.0,0.0,0.0,0.0,0.0,0.0,0.0,0.0,0.0,0.0,0.0,0.0,0.0,0.0,-4.1766,0.0,-4.1364,0.0,0.0,0.0,0.0,0.0,0.0,0.0,0.0,-4.8006,-4.958,-5.0391,-5.0974,-5.1449,0.0,-5.0498,-4.8172,0.0,0.0,0.0,0.0,0.0,0.0,0.0,0.0,-5.1262,-5.4376,-5.7833,-6.0652,-6.2695,-6.2823,-6.2823,-6.2805,-6.2016,-6.0164,-5.7152,-5.4234,-5.1541,0.0,0.0,0.0,0.0,0.0,0.0,0.0,0.0,0.0,0.0,0.0,0.0,0.0,0.0,0.0,0.0,0.0,0.0,0.0,0.0,0.0,0.0,0.0,-4.6512,0.0,0.0,0.0,0.0,0.0,0.0,0.0,0.0,0.0,-4.6567,-4.7003,-4.7761,-4.8811,-4.8444,-4.8096,-4.8051,0.0,0.0,0.0,0.0,0.0,0.0,0.0,-4.537,-4.5717,-4.6879,-4.8247,-4.9627,-5.0747,-5.1584,-5.1847,0.0,0.0,-4.8529,-4.8662,-4.9522,-5.0371,-5.0513,-5.0609,-5.0987,-5.1398,-5.1799,0.0,0.0,0.0,0.0,0.0,0.0,0.0,0.0,-4.607,-4.5295,0.0,-4.4727,0.0,0.0,0.0,0.0,0.0,-4.6825,0.0,0.0,-5.3259,-5.5083,-5.4212,-5.5569,-5.5928,-5.5237,-5.4046,-5.2874,-5.1575,-4.8562,0.0,0.0,0.0,0.0,0.0,0.0,-5.2085,-5.4232,-5.8308,-6.1227,-6.275,-6.2823,-6.2823,-6.2805,-6.2053,-6.0915,-5.9313,-5.717,-5.5329,-5.3746,-4.9846,0.0,0.0,0.0,0.0,0.0,0.0,0.0,0.0,0.0,0.0,0.0,0.0,0.0,0.0,0.0,0.0,0.0,0.0,0.0,0.0,-4.6516,0.0,0.0,0.0,0.0,0.0,0.0,0.0,0.0,0.0,0.0,-4.6453,-4.7535,-4.8276,-4.7998,0.0,0.0,0.0,0.0,-4.789,-4.6077,-4.647,-4.6654,-4.5491,-4.6258,-4.7634,-4.9367,0.0,0.0,-5.4842,-5.453,-5.4221,-5.4945,-5.5834,-5.5535,-5.2488,-5.2173,-5.2564,-5.3353,-5.378,-5.4162,-5.4777,-5.5,-5.5232,-4.8172,0.0,0.0,0.0,0.0,-4.5927,-4.7304,-4.9335,-4.9775,-4.9749,-4.9409,-4.9252,0.0,0.0,0.0,0.0,0.0,0.0,-5.157,-5.2716,-5.5801,-5.7375,-5.7692,-5.8713,-5.9078,-5.8847,-5.7931,-5.7347,-5.6932,-5.5478,-5.2476,-4.8109,0.0,0.0,0.0,0.0,-5.4234,-5.6797,-5.9732,-6.1759,-6.2805,-6.2823,-6.2823,-6.2823,-6.2585,-6.1979,-6.0951,-5.9743,-5.7929,-5.5366,-5.3123,0.0,0.0,0.0,0.0,0.0,0.0,0.0,0.0,0.0,0.0,0.0,0.0,0.0,0.0,0.0,0.0,0.0,0.0,0.0,-4.7952,-4.8342,-4.8149,0.0,0.0,0.0,0.0,0.0,0.0,0.0,0.0,0.0,-4.8557,-4.8506,-4.843,0.0,0.0,-4.7178,-4.6093,-4.6886,-4.77,-4.7977,-4.8099,0.0,-4.9504,-4.9723,-5.011,-5.1199,-5.38,-5.6125,-5.728,-5.8051,-5.8577,-5.8787,-5.9063,-5.909,-5.8812,-5.7817,-5.7442,-5.8121,-5.8432,-5.853,-5.8749,-5.8796,-5.8833,-5.4107,-5.2022,-4.8766,-4.8284,-4.9733,-5.0098,-5.1501,-5.3611,-5.3952,-5.3789,-5.3325,-5.3592,-5.2705,-5.0965,-5.0885,0.0,0.0,0.0,-5.5199,-5.6854,-5.8907,-6.0293,-6.1166,-6.1961,-6.2346,-6.2328,-6.1844,-6.1441,-6.1135,-5.9746,-5.7324,-5.3844,0.0,0.0,-5.1528,-5.4105,-5.6336,-5.8197,-6.0756,-6.2475,-6.3301,-6.3631,-6.3796,-6.3789,-6.3503,-6.308,-6.2585,-6.1502,-5.9889,-5.7783,-5.5704,-5.3026,0.0,0.0,0.0,0.0,0.0,0.0,0.0,0.0,0.0,0.0,0.0,-4.3594,-4.4267,0.0,0.0,0.0,-4.7266,-4.8102,-4.9871,-4.9257,0.0,0.0,0.0,0.0,0.0,0.0,0.0,-4.7403,-4.9017,-5.0258,-5.0248,-5.0437,-5.0382,-4.9895,-4.9235,-4.8528,-4.7706,0.0,-4.9538,-5.0234,-5.0348,-5.0906,-5.2349,-5.2823,-5.3432,-5.4731,-5.6903,-5.8776,-5.9554,-6.0354,-6.0964,-6.1263,-6.1355,-6.1502,-6.1979,-6.1282,-6.0744,-6.1245,-6.1374,-6.1355,-6.1355,-6.1355,-6.1355,-5.9294,-5.8791,-5.3069,-5.2077,-5.4273,-5.4327,-5.58,-5.8162,-5.818,-5.7345,-5.6124,-5.7522,-5.6584,-5.3935,-5.4582,0.0,-5.6241,-5.7714,-5.9216,-6.075,-6.2291,-6.3429,-6.4218,-6.4952,-6.5319,-6.5301,-6.5319,-6.4934,-6.4101,-6.213,-6.0834,-6.0212,-5.8142,-5.5723,-5.3263,-5.6211,-5.8124,-5.8713,-6.1267,-6.3108,-6.4071,-6.4897,-6.5283,-6.5191,-6.4475,-6.4053,-6.3943,-6.2511,-6.1318,-6.045,-5.7704,-5.5462,-5.3807,0.0,0.0,0.0,0.0,0.0,0.0,0.0,0.0,0.0,0.0,0.0,0.0,0.0,0.0,-4.8081,-4.9187,0.0,-5.1808,-4.9768,0.0,0.0,0.0,-4.986,-5.1341,-5.1594,-5.1517,-5.1167,0.0,0.0,-5.1787,-5.3094,-5.3619,-5.2538,-5.2191,-5.1711,-5.0793,-5.1874,-5.2758,-5.2807,-5.3253,-5.3875,-5.4905,-5.5903,-5.7177,-5.8805,-6.007,-6.0811,-6.1471,-6.1661,-6.2016,-6.2542,-6.2805,-6.2787,-6.2805,-6.267,-6.2805,-6.2713,-6.275,-6.2768,-6.2695,-6.2677,-6.2658,-6.0126,-5.9986,-5.85,-5.7904,-5.7947,-5.7947,-5.867,-5.9813,-5.985,-5.9609,-5.9297,-5.9657,-5.9761,-5.9597,-5.9772,-6.0325,-6.1126,-6.2157,-6.2837,-6.3264,-6.4255,-6.4824,-6.5026,-6.5228,-6.5319,-6.5319,-6.5319,-6.5209,-6.4982,-6.4498,-6.2975,-6.0679,-6.0615,-5.9023,-5.5972,-5.6945,-5.8088,-5.9266,-6.0554,-6.215,-6.4028,-6.4879,-6.5026,-6.4402,-6.42,-6.3778,-6.3154,-6.275,-6.2144,-6.1318,-5.9456,-5.7389,-5.5094,-5.1902,0.0,0.0,0.0,0.0,0.0,0.0,0.0,0.0,0.0,-4.5069,-4.5559,0.0,-4.8387,0.0,-5.1262,-5.3151,-5.3828,-5.2824,0.0,0.0,-5.2527,-5.2676,-5.3162,-5.4634,-5.5186,-5.4062,-5.4672,-5.5205,-5.5205,-5.6089,-5.6903,-5.7322,-5.5552,-5.4073,-5.3871,-5.4729,-5.5722,-5.6331,-5.7089,-5.8032,-5.875,-5.9707,-6.0407,-6.0946,-6.1704,-6.231,-6.2493,-6.253,-6.256,-6.2762,-6.2823,-6.2823,-6.2823,-6.2823,-6.2823,-6.2823,-6.2823,-6.2823,-6.2823,-6.2823,-6.2823,-6.1465,-6.1484,-6.1465,-6.1447,-6.1337,-6.0603,-6.0731,-6.1484,-6.1869,-6.2053,-6.2071,-6.242,-6.2842,-6.3246,-6.3264,-6.3484,-6.3936,-6.442,-6.4824,-6.5173,-6.5632,-6.6035,-6.6366,-6.6366,-6.6384,-6.6366,-6.6366,-6.6366,-6.6347,-6.6017,-6.4784,-6.2783,-6.2855,-6.1426,-5.8642,-5.8129,-5.8287,-5.9059,-6.0486,-6.2341,-6.4552,-6.5063,-6.4817,-6.383,-6.3439,-6.2766,-6.1782,-6.1358,-6.1037,-6.0781,-5.9601,-5.7981,-5.5889,-5.3218,-5.0488,0.0,0.0,0.0,0.0,0.0,0.0,0.0,0.0,0.0,0.0,0.0,-5.0282,-5.1888,-5.3857,-5.5123,-5.5419,-5.4608,-5.4519,-5.5586,-5.5856,-5.642,-5.7639,-5.8846,-5.9276,-5.8537,-5.8906,-5.9248,-5.9266,-5.9999,-6.0744,-6.13,-6.0311,-5.8974,-5.7648,-5.7841,-5.8486,-5.9317,-5.9907,-6.0548,-6.1355,-6.1832,-6.2126,-6.2163,-6.2511,-6.2823,-6.2823,-6.2823,-6.2823,-6.2823,-6.2823,-6.2823,-6.2823,-6.2823,-6.2823,-6.286,-6.3117,-6.3209,-6.2897,-6.2823,-6.2823,-6.2879,-6.2945,-6.297,-6.3466,-6.4127,-6.2677,-6.2475,-6.3191,-6.3925,-6.4255,-6.4292,-6.4989,-6.5375,-6.5448,-6.5466,-6.5521,-6.5613,-6.5613,-6.5999,-6.6641,-6.6641,-6.7008,-6.7669,-6.7669,-6.7669,-6.7669,-6.7669,-6.7669,-6.765,-6.699,-6.614,-6.5164,-6.4469,-6.2975,-6.0759,-5.9441,-5.8685,-5.8529,-6.075,-6.2908,-6.4853,-6.4838,-6.4245,-6.3065,-6.2325,-6.141,-6.0293,-5.9515,-5.9264,-5.9657,-5.8941,-5.7969,-5.6786,-5.4323,-5.209,0.0,-4.8041,0.0,0.0,0.0,0.0,0.0,0.0,0.0,0.0,-5.099,-5.2813,-5.6134,-5.6769,-5.7091,-5.7291,-5.6475,-5.6901,-5.9276,-5.9538,-6.0511,-6.2796,-6.3135,-6.311,-6.3092,-6.311,-6.311,-6.303,-6.3815,-6.4218,-6.4127,-6.4435,-6.3734,-6.1655,-6.1043,-6.1318,-6.1998,-6.2071,-6.242,-6.297,-6.3154,-6.3191,-6.3129,-6.3246,-6.311,-6.3227,-6.3209,-6.3191,-6.3165,-6.3246,-6.3184,-6.3135,-6.3172,-6.3172,-6.3239,-6.3796,-6.3961,-6.3282,-6.3209,-6.311,-6.3209,-6.3833,-6.3851,-6.4328,-6.5044,-6.4732,-6.4695,-6.4842,-6.5007,-6.5081,-6.5099,-6.5246,-6.5668,-6.6256,-6.6274,-6.6604,-6.7228,-6.7247,-6.732,-6.7448,-6.7448,-6.7522,-6.7669,-6.7669,-6.7669,-6.7669,-6.7669,-6.7669,-6.7669,-6.7522,-6.6463,-6.4525,-6.4333,-6.312,-6.096,0.0,0.0,0.0,-6.0892,-6.2341,-6.276,-6.2471,-6.1867,-6.1009,-6.0834,0.0,-5.9393,-5.9168,-5.9131,-5.9197,-5.8467,0.0,0.0,0.0,0.0,0.0,0.0,0.0,0.0,0.0,0.0,0.0,-5.4479,-5.4088,-5.2702,-5.4612,-5.6976,-5.9356,-5.9967,-6.0593,-6.1498,-6.1433,-6.1795,-6.2936,-6.3108,-6.3588,-6.467,-6.4842,-6.4842,-6.4842,-6.4842,-6.4824,-6.4861,-6.4989,-6.5081,-6.5136,-6.5228,-6.5063,-6.4494,-6.4237,-6.4383,-6.4585,-6.442,-6.4585,-6.4806,-6.4743,-6.4651,-6.4842,-6.4842,-6.4787,-6.4751,-6.4743,-6.4806,-6.4769,-6.4842,-6.4787,-6.4787,-6.4842,-6.4706,-6.4824,-6.4952,-6.4824,-6.4053,-6.4365,-6.4842,-6.4292,0.0,-6.4695,-6.5154,0.0,-6.5907,-6.6127,-6.6439,-6.6072,-6.6127,-6.6476,-6.6494,-6.6714,-6.7081,-6.7081,-6.732,-6.7669,-6.7669,-6.7669,-6.7669,-6.7669,-6.7669,-6.7669,-6.7669,-6.7669,-6.7669,-6.7669,-6.7669,-6.7669,-6.7669,-6.6902,-6.5395,-6.5395,-6.4606,-6.3117,-6.3081,-6.2298,-6.0786,-6.1595,-6.2404,-6.3066,-6.2515,-6.1736,-6.076,-6.0711,0.0,0.0,0.0,0.0,0.0,0.0,0.0,0.0,0.0,0.0,-5.7382,-5.6986,-5.6911,-5.7226,-5.7478,-5.7954,-5.8678,-5.9673,-5.923,-5.6766,-5.9054,-6.1071,-6.2174,-6.2812,-6.3392,-6.394,-6.4035,-6.4383,-6.5154,-6.5283,-6.5595,-6.6311,-6.6476,-6.6476,-6.6494,-6.6494,-6.6476,-6.6476,-6.6494,-6.6476,-6.6494,-6.6476,-6.6457,-6.6402,-6.5797,-6.5319,-6.5319,-6.5319,-6.5319,-6.5319,-6.5319,-6.5338,-6.5319,-6.5319,-6.5319,-6.5319,-6.5319,-6.5319,-6.5319,-6.5319,-6.5319,-6.5319,-6.5319,-6.5319,-6.5356,-6.5632,-6.576,-6.5338,-6.5301,-6.5319,-6.5393,-6.5521,-6.554,-6.598,-6.6696,-6.6696,-6.7081,-6.765,0.0,0.0,0.0,-6.7669,-6.7669,-6.7669,-6.7669,-6.7669,-6.7669,-6.7669,-6.7669,-6.7669,-6.7669,-6.7669,-6.7669,-6.7669,-6.7669,-6.7669,-6.7669,-6.7669,-6.7669,-6.7669,-6.7357,-6.6769,-6.6714,-6.6384,-6.5778,-6.5723,-6.5123,-6.392,-6.2767,-6.2753,-6.3897,-6.3089,-6.2113,-6.1147,-6.1099,-6.0591,-5.9582,-5.9549,-5.9698,-6.0095,-6.0127,-5.9942,-5.9576,-6.0172,-5.9973,-5.8784,-5.9244,-6.0024,-6.0945,-6.1018,-6.1715,-6.336,-6.4108,-6.3539,-6.1199,-6.3179,-6.4512,-6.4512,-6.5246,-6.5723,-6.5742,-6.5723,-6.598,-6.6641,-6.6714,-6.6971,-6.7585,-6.7669,-6.7595,-6.7669,-6.764,-6.7669,-6.7614,-6.7595,-6.7669,-6.7669,-6.754,-6.7669,-6.7522,-6.6604,-6.587,-6.5888,-6.5962,-6.5815,-6.576,-6.5833,-6.5723,-6.587,-6.5815,-6.5723,-6.5742,-6.5723,-6.5723,-6.587,-6.5742,-6.5797,-6.576,-6.5852,-6.5723,-6.5723,-6.6256,-6.6714,-6.6659,-6.62,-6.5833,-6.5705,-6.6329,-6.6347,-6.6788,-6.7522,-6.7549,-6.7595,-6.7669,-6.7585,-6.7595,-6.7669,-6.7669,-6.7669,-6.7669,-6.7669,-6.7669,-6.7669,-6.7669,-6.7669,-6.7669,-6.7669,-6.7669,-6.7669,-6.7669,-6.7669,-6.7669,-6.7669,-6.7669,-6.7669,-6.7669,-6.7614,-6.7522,-6.7522,-6.7448,-6.7357,-6.7357,-6.7266,-6.6985,-6.4502,-6.3292,-6.3476,-6.235,-6.1702,-6.1537,-6.1535,-6.1453,-6.1253,-6.1269,-6.1286,-6.1337,-6.1337,-6.1747,-6.2653,-6.2815,-6.3271,-6.4084,-6.4255,-6.4427,-6.4532,-6.4569,-6.4969,-6.5862,-6.6109,-6.5689,-6.4723,-6.5535,-6.6145,-6.6182,-6.6824,-6.7357,-6.7357,-6.7283,-6.7302,-6.7467,-6.7504,-6.7577,-6.7669,-6.7669,-6.7669,-6.7669,-6.7669,-6.7669,-6.7669,-6.7669,-6.7669,-6.7669,-6.7669,-6.7669,-6.765,-6.7522,-6.7357,-6.7357,-6.7357,-6.7357,-6.7192,-6.732,-6.721,-6.7383,-6.7247,-6.7155,-6.7155,-6.7155,-6.7155,-6.7283,-6.7192,-6.721,-6.7228,-6.7338,-6.721,-6.7173,-6.732,-6.743,-6.743,-6.7283,-6.7228,-6.6806,-6.7118,-6.7136,-6.7357,-6.7669,-6.7669,-6.7669,-6.7669,-6.7669,-6.7669,-6.7669,-6.7669,-6.7669,-6.7669,-6.7669,-6.7669,-6.7669,-6.7669,-6.7669,-6.7669,-6.7669,-6.7669,-6.7669,-6.7669,-6.7669,-6.7669,-6.7669,-6.7669,-6.7669,-6.7669,-6.7669,-6.7669,-6.7669,-6.7669,-6.7669,-6.7669,-6.7669,-6.7669,-6.597,-6.5111,-6.5065,-6.413,-6.3615,-6.3597,-6.3615,-6.3597,-6.3597,-6.3597,-6.3615,-6.3615,-6.3615,-6.3856,-6.4401,-6.4829,-6.5341,-6.5936,-6.6366,-6.6604,-6.6604,-6.6604,-6.6751,-6.7118,-6.7136,-6.699,-6.6641,-6.6916,-6.7136,-6.7155,-6.7485,-6.7669,-6.7669,-6.7669,-6.7669,-6.7669,-6.7669,-6.7669,-6.7669,-6.7669,-6.7669,-6.7669,-6.7669,-6.7669,-6.7669,-6.7669,-6.7669,-6.7669,-6.7669,-6.7669,-6.7669,-6.7669,-6.7669,-6.7669,-6.7669,-6.7669,-6.7669,-6.7669,-6.7669,-6.7669,-6.7669,-6.7669,-6.7669,-6.7669,-6.7669,-6.7669,-6.7669,-6.7669,-6.7669,-6.7669,-6.7669,-6.7669,-6.7669,-6.7669,-6.7669,-6.7669,-6.7669,-6.7669,-6.7669,-6.7669,-6.7669,-6.7669,-6.7669,-6.7669,-6.7669,-6.7669,-6.7669,-6.7669,-6.7669,-6.7669,-6.7669,-6.7669,-6.7669,-6.7669,-6.7669,-6.7669,-6.7669,-6.7669,-6.7669,-6.7669,-6.7669,-6.7669,-6.7669,-6.7669,-6.7669,-6.7669,-6.7669,-6.7669,-6.7669,-6.7669,-6.7669,-6.7669,-6.7669,-6.7669,-6.765,-6.7081,-6.6751,-6.6751,-6.6145,-6.5833,-6.5852,-6.5826,-6.5852,-6.5852,-6.5852,-6.5852,-6.5833,-6.5833,-6.5833,-6.5888,-6.6421,-6.6769,-6.6824,-6.7383,-6.7669,-6.7669,-6.7669,-6.7669,-6.7669,-6.7669,-6.7669,-6.7669,-6.7669,-6.7669,-6.7669,-6.7669,-6.7669,-6.7669,-6.7669,-6.7669,-6.7669,-6.7669,-6.7669,-6.7669,-6.7669,-6.7669,-6.7669,-6.7669,-6.7669,-6.7669,-6.7669,-6.7669,-6.7669,-6.7669,-6.7669,-6.7669,-6.7669,-6.7669,-6.7669,-6.7669,-6.7669,-6.7669,-6.7669,-6.7669,-6.7669,-6.7669,-6.7669,-6.7669,-6.7669,-6.7669,-6.7669,-6.7669,-6.7669,-6.7669,-6.7669,-6.7669,-6.7669,-6.7669,-6.7669,-6.7669,-6.7669,-6.7669,-6.7669,-6.7669,-6.7669,-6.7669,-6.7669,-6.7669,-6.7669,-6.7669,-6.7669,-6.7669,-6.7669,-6.7669,-6.7669,-6.7669,-6.7669,-6.7669,-6.7669,-6.7669,-6.7669,-6.7669,-6.7669,-6.7669,-6.7669,-6.7669,-6.7669,-6.7669,-6.7669,-6.7669,-6.7669,-6.7669,-6.7669,-6.7669,-6.7669,-6.7669,-6.7669,-6.7669,-6.7669,-6.7669,-6.764,-6.7577,-6.7577,-6.7504,-6.7485,-6.7467,-6.7448,-6.7467,-6.7357,-6.7467,-6.7448,-6.7467,-6.7412,-6.743,-6.7448,-6.754,-6.7559,-6.7567,-6.765,-6.7669,-6.7669,-6.7669,-6.7669,-6.7669,-6.7669,-6.7669,-6.7669,-6.7669,-6.7669,-6.7669,-6.7669,-6.7669,-6.7669,-6.7669,-6.7669,-6.7669,-6.7669,-6.7669,-6.7669,-6.7669,-6.7669,-6.7669,-6.7669,-6.7669,-6.7669,-6.7669,-6.7669,-6.7669,-6.7669,-6.7669,-6.7669,-6.7669,-6.7669,-6.7669,-6.7669,-6.7669,-6.7669,-6.7669,-6.7669,-6.7669,-6.7669,-6.7669,-6.7669,-6.7669,-6.7669,-6.7669,-6.7669,-6.7669,-6.7669,-6.7669,-6.7669,-6.7669,-6.7669,-6.7669,-6.7669,-6.7669,-6.7669,-6.7669,-6.7669,-6.7669,-6.7669,-6.7669,-6.7669,-6.7669,-6.7669,-6.7669,-6.7669,-6.7669,-6.7669,-6.7669,-6.7669,-6.7669,-6.7669,-6.7669,-6.7669,-6.7669,-6.7669,-6.7669,-6.7669,-6.7669,-6.7669,-6.7669,-6.7669,-6.7669,-6.7669,-6.7669,-6.7669,-6.7669,-6.7669,-6.7669,-6.7669,-6.7669,-6.7669,-6.7669,-6.7669,-6.7669,-6.7669,-6.7669,-6.7669,-6.7669,-6.7669,-6.7669,-6.7669,-6.7669,-6.7669,-6.7669,-6.7669,-6.7669,-6.7669,-6.7669,-6.7669,-6.7669,-6.7669,-6.7669,-6.7669,-6.7669,-6.7669,-6.7669,-6.7669,-6.7669,-6.7669,-6.7669,-6.7669,-6.7669,-6.7669,-6.7669,-6.7669,-6.7669,-6.7669,-6.7669,-6.7669,-6.7669,-6.7669,-6.7669,-6.7669,-6.7669,-6.7669,-6.7669,-6.7669,-6.7669,-6.7669,-6.7669,-6.7669,-6.7669,-6.7669,-6.7669,-6.7669,-6.7669,-6.7669,-6.7669,-6.7669,-6.7669,-6.7669,-6.7669,-6.7669,-6.7669,-6.7669,-6.7669,-6.7669,-6.7669,-6.7669,-6.7669,-6.7669,-6.7669,-6.7669,-6.7669,-6.7669,-6.7669,-6.7669,-6.7669,-6.7669,-6.7669,-6.7669,-6.7669,-6.7669,-6.7669,-6.7669,-6.7669,-6.7669,-6.7669,-6.7669,-6.7669,-6.7669,-6.7669,-6.7669,-6.7669,-6.7669,-6.7669,-6.7669,-6.7669,-6.7669,-6.7669,-6.7669,-6.7669,-6.7669,-6.7669,-6.7669,-6.7669,-6.7669,-6.7669,-6.7669,-6.7669,-6.7669,-6.7669,-6.7669,-6.7669,-6.7669,-6.7669,-6.7669,-6.7669,-6.7669,-6.7669,-6.7669,-6.7669,-6.7669,-6.7669,-6.7669,-6.7669,-6.7669,-6.7669,-6.7669,-6.7669,-6.7669,-6.7669,-6.7669,-6.7669,-6.7669,-6.7669,-6.7669,-6.7669,-6.7669,-6.7669,-6.7669,-6.7669,-6.7669,-6.7669,-6.7669,-6.7669,-6.7669,-6.7669,-6.7669,-6.7669,-6.7669,-6.7669,-6.7669,-6.7669,-6.7669,-6.7669,-6.7669,-6.7669,-6.7669,-6.7669,-6.7669,-6.7669,-6.7669,-6.7669,-6.7669,-6.7669,-6.7669,-6.7669,-6.7669,-6.7669,-6.7669,-6.7669,-6.7669,-6.7669,-6.7669,-6.7669,-6.7669,-6.7669,-6.7669,-6.7669,-6.7669,-6.7669,-6.7669,-6.7669,-6.7669,-6.7669,-6.7669,-6.7669,-6.7669,-6.7669,-6.7669,-6.7669,-6.7669,-6.7669,-6.7669,-6.7669,-6.7669,-6.7669,-6.7669,-6.7669,-6.7669,-6.7669,-6.7669,-6.7669,-6.7669,-6.7669,-6.7669,-6.7669,-6.7669,-6.7669,-6.7669,-6.7669,-6.7669,-6.7669,-6.7669,-6.7669,-6.7669,-6.7669,-6.7669,-6.7669,-6.7669,-6.7669,-6.7669,-6.7669,-6.7669,-6.7669,-6.7669,-6.7669,-6.7669,-6.7669,-6.7669,-6.7669,-6.7669,-6.7669,-6.7669,-6.7669,-6.7669,-6.7669,-6.7669,-6.7669,-6.7669,-6.7669,-6.7669,-6.7669,-6.7669,-6.7669,-6.7669,-6.7669,-6.7669,-6.7669,-6.7669,-6.7669,-6.7669,-6.7669,-6.7669,-6.7669,-6.7669,-6.7669,-6.7669,-6.7669,-6.7669,-6.7669,-6.7669,-6.7669,-6.7669,-6.7669,-6.7669,-6.7669,-6.7669,-6.7669,-6.7669,-6.7669,-6.7669,-6.7669,-6.7669,-6.7669,-6.7669,-6.7669,-6.7669,-6.7669,-6.7669,-6.7669,-6.7669,-6.7669,-6.7669,-6.7669,-6.7669,-6.7669,-6.7669,-6.7669,-6.7669,-6.7669,-6.7669,-6.7669,-6.7669,-6.7669,-6.7669,-6.7669,-6.7669,-6.7669,-6.7669,-6.7669,-6.7669,-6.7669,-6.7669,-6.7669,-6.7669,-6.7669,-6.7669,-6.7669,-6.7669,-6.7669,-6.7669,-6.7669,-6.7669,-6.7669,-6.7669,-6.7669,-6.7669,-6.7669,-6.7669,-6.7669,-6.7669,-6.7669,-6.7669,-6.7669,-6.7669,-6.7669,-6.7669,-6.7669,-6.7669,-6.7669,-6.7669,-6.7669,-6.7669,-6.7669,-6.7669,-6.7669,-6.7669,-6.7669,-6.7669,-6.7669,-6.7669,-6.7669,-6.7669,-6.7669,-6.7669,-6.7669,-6.7669,-6.7669,-6.7669,-6.7669,-6.7669,-6.7669,-6.7669,-6.7669,-6.7669,-6.7669,-6.7669,-6.7669,-6.7669,-6.7669,-6.7669,-6.7669,-6.7669,-6.7669,-6.7669,-6.7669,-6.7669,-6.7669,-6.7669,-6.7669,-6.7669,-6.7669,-6.7669,-6.7669,-6.7669,-6.7669,-6.7669,-6.7669,-6.7669,-6.7669,-6.7669,-6.7669,-6.7669,-6.7669,-6.7669,-6.7669,-6.7669,-6.7669,-6.7669,-6.7669,-6.7669,-6.7669,-6.7669,-6.7669,-6.7669,-6.7669,-6.7669,-6.7669,-6.7669,-6.7669,-6.7669,-6.7669,-6.7669,-6.7669,-6.7669,-6.7669,-6.7669,-6.7669,-6.7669,-6.7669,-6.7669,-6.7669,-6.7669,-6.7669,-6.7669,-6.7669,-6.7669,-6.7669,-6.7669,-6.7669,-6.7669,-6.7669,-6.7669,-6.7669,-6.7669,-6.7669,-6.7669,-6.7669,-6.7669,-6.7669,-6.7669,-6.7669,-6.7669,-6.7669,-6.7669,-6.7669,-6.7669,-6.7669,-6.7669,-6.7669,-6.7669,-6.7669,-6.7669,-6.7669,-6.7669,-6.7669,-6.7669,-6.7669,-6.7669,-6.7669,-6.7669,-6.7669,-6.7669,-6.7669,-6.7669,-6.7669,-6.7669,-6.7669,-6.7669,-6.7669,-6.7669,-6.7669,-6.7669,-6.7669,-6.7669,-6.7669,-6.7669,-6.7669,-6.7669,-6.7669,-6.7669,-6.7669,-6.7669,-6.7669,-6.7669,-6.7669,-6.7669,-6.7669,-6.7669,-6.7669,-6.7669,-6.7669,-6.7669,-6.7669,-6.7669,-6.7669,-6.7669,-6.7669,-6.7669,-6.7669,-6.7669,-6.7669,-6.7669,-6.7669,-6.7669,-6.7669,-6.7669,-6.7669,-6.7669,-6.7669,-6.7669,-6.7669,-6.7669,-6.7669,-6.7669,-6.7669,-6.7669,-6.7669,-6.7669,-6.7669,-6.7669,-6.7669,-6.7669,-6.7669,-6.7669,-6.7669,-6.7669,-6.7669,-6.7669,-6.7669,-6.7669,-6.7669,-6.7669,-6.7669,-6.7669,-6.7669,-6.7669,-6.7669,-6.7669,-6.7669,-6.7669,-6.7669,-6.7669,-6.7669,-6.7669,-6.7669,-6.7669,-6.7669,-6.7669,-6.7669,-6.7669,-6.7669,-6.7669,-6.7669,-6.7669,-6.7669,-6.7669,-6.7669,-6.7669,-6.7669,-6.7669,-6.7669,-6.7669,-6.7669,-6.7669,-6.7669,-6.7669,-6.7669,-6.7669,-6.7669,-6.7669,-6.7669,-6.7669,-6.7669,-6.7669,-6.7669,-6.7669,-6.7669,-6.7669,-6.7669,-6.7669,-6.7669,-6.7669,-6.7669,-6.7669,-6.7669,-6.7669,-6.7669,-6.7669,-6.7669,-6.7669,-6.7669,-6.7669,-6.7669,-6.7669,-6.7669,-6.7669,-6.7669,-6.7669,-6.7669,-6.7669,-6.7669,-6.7669,-6.7669,-6.7669,-6.7669,-6.7669,-6.7669,-6.7669,-6.7669,-6.7669,-6.7669,-6.7669,-6.7669,-6.7669,-6.7669,-6.7669,-6.7669,-6.7669,-6.7669,-6.7669,-6.7669,-6.7669,-6.7669,-6.7669,-6.7669,-6.7669,-6.7669,-6.7669,-6.7669,-6.7669,-6.7669,-6.7669,-6.7669,-6.7669,-6.7669,-6.7669,-6.7669,-6.7669,-6.7669,-6.7669,-6.7669,-6.7669,-6.7669,-6.7669,-6.7669,-6.7669,-6.7669,-6.7669,-6.7669,-6.7669,-6.7669,-6.7669,-6.7669,-6.7669,-6.7669,-6.7669,-6.7669,-6.7669,-6.7669,-6.7669,-6.7669,-6.7669,-6.7669,-6.7669,-6.7669,-6.7669,-6.7669,-6.7669,-6.7669,-6.7669,-6.7669,-6.7669,-6.7669,-6.7669,-6.7669,-6.7669,-6.7669,-6.7669,-6.7669,-6.7669,-6.7669,-6.7669,-6.7669,-6.7669,-6.7669,-6.7669,-6.7669,-6.7669,-6.7669,-6.7669,-6.7669,-6.7669,-6.7669,-6.7669,-6.7669,-6.7669,-6.7669,-6.7669,-6.7669,-6.7669,-6.7669,-6.7669,-6.7669,-6.7669,-6.7669,-6.7669,-6.7669,-6.7669,-6.7669,-6.7669,-6.7669,-6.7669,-6.7669,-6.7669,-6.7669,-6.7669,-6.7669,-6.7669,-6.7669,-6.7669,-6.7669,-6.7669,-6.7669,-6.7669,-6.7669,-6.7669,-6.7669,-6.7669,-6.7669,-6.7669,-6.7669,-6.7669,-6.7669,-6.7669,-6.7669,-6.7669,-6.7669,-6.7669,-6.7669,-6.7669,-6.7669,-6.7669,-6.7669,-6.7669,-6.7669,-6.7669,-6.7669,-6.7669,-6.7669,-6.7669,-6.7669,-6.7669,-6.7669,-6.7669,-6.7669,-6.7669,-6.7669,-6.7669,-6.7669,-6.7669,-6.7669,-6.7669,-6.7669,-6.7669,-6.7669,-6.7669,-6.7669,-6.7669,-6.7669,-6.7669,-6.7669,-6.7669,-6.7669,-6.7669,-6.7669,-6.7669,-6.7669,-6.7669,-6.7669,-6.7669,-6.7669,-6.7669,-6.7669,-6.7669,-6.7669,-6.7669,-6.7669,-6.7669,-6.7669,-6.7669,-6.7669,-6.7669,-6.7669,-6.7669,-6.7669,-6.7669,-6.7669,-6.7669,-6.7669,-6.7669,-6.7669,-6.7669,-6.7669,-6.7669,-6.7669,-6.7669,-6.7669,-6.7669,-6.7669,-6.7669,-6.7669,-6.7669,-6.7669,-6.7669,-6.7669,-6.7669,-6.7669,-6.7669,-6.7669,-6.7669,-6.7669,-6.7669,-6.7669,-6.7669,-6.7669,-6.7669,-6.7669,-6.7669,-6.7669,-6.7669,-6.7669,-6.7669,-6.7669,-6.7669,-6.7669,-6.7669,-6.7669,-6.7669,-6.7669,-6.7669,-6.7669,-6.7669,-6.7669,-6.7669,-6.7669,-6.7669,-6.7669,-6.7669,-6.7669,-6.7669,-6.7669,-6.7669,-6.7669,-6.7669,-6.7669,-6.7669,-6.7669,-6.7669,-6.7669,-6.7669,-6.7669,-6.7669,-6.7669,-6.7669,-6.7669,-6.7669,-6.7669,-6.7669,-6.7669,-6.7669,-6.7669,-6.7669,-6.7669,-6.7669,-6.7669,-6.7669,-6.7669,-6.7669,-6.7669,-6.7669,-6.7669,-6.7669,-6.7669,-6.7669,-6.7669,-6.7669,-6.7669,-6.7669,-6.7669,-6.7669,-6.7669,-6.7669,-6.7669,-6.7669,-6.7669,-6.7669,-6.7669,-6.7669,-6.7669,-6.7669,-6.7669,-6.7669,-6.7669,-6.7669,-6.7669,-6.7669,-6.7669,-6.7669,-6.7669,-6.7669,-6.7669,-6.7669,-6.7669,-6.7669,-6.7669,-6.7669,-6.7669,-6.7669,-6.7669,-6.7669,-6.7669,-6.7669,-6.7669,-6.7669,-6.7669,-6.7669,-6.7669,-6.7669,-6.7669,-6.7669,-6.7669,-6.7669,-6.7669,-6.7669,-6.7669,-6.7669,-6.7669,-6.7669,-6.7669,-6.7669,-6.7669,-6.7669,-6.7669,-6.7669,-6.7669,-6.7669,-6.7669,-6.7669,-6.7669,-6.7669,-6.7669,-6.7669,-6.7669,-6.7669,-6.7669,-6.7669,-6.7669,-6.7669,-6.7669,-6.7669,-6.7669,-6.7669,-6.7669,-6.7669,-6.7669,-6.7669,-6.7669,-6.7669,-6.7669,-6.7669,-6.7669,-6.7669,-6.7669,-6.7669,-6.7669,-6.7669,-6.7669,-6.7669,-6.7669,-6.7669,-6.7669,-6.7669,-6.7669,-6.7669,-6.7669,-6.7669,-6.7669,-6.7669,-6.7669,-6.7669,-6.7669,-6.7669,-6.7669,-6.7669,-6.7669,-6.7669,-6.7669,-6.7669,-6.7669,-6.7669,-6.7669,-6.7669,-6.7669,-6.7669,-6.7669,-6.7669,-6.7669,-6.7669,-6.7669,-6.7669,-6.7669,-6.7669,-6.7669,-6.7669,-6.7669,-6.7669,-6.7669,-6.7669,-6.7669,-6.7669,-6.7669,-6.7669,-6.7669,-6.7669,-6.7669,-6.7669,-6.7669,-6.7669,-6.7669,-6.7669,-6.7669,-6.7669,-6.7669,-6.7669,-6.7669,-6.7669,-6.7669,-6.7669,-6.7669,-6.7669,-6.7669,-6.7669,-6.7669,-6.7669,-6.7669,-6.7669,-6.7669,-6.7669,-6.7669,-6.7669,-6.7669,-6.7669,-6.7669,-6.7669,-6.7669,-6.7669,-6.7669,-6.7669,-6.7669,-6.7669,-6.7669,-6.7669,-6.7669,-6.7669,-6.7669,-6.7669,-6.7669,-6.7669,-6.7669,-6.7669,-6.7669,-6.7669,-6.7669,-6.7669,-6.7669,-6.7669,-6.7669,-6.7669,-6.7669,-6.7669,-6.7669,-6.7669,-6.7669,-6.7669,-6.7669,-6.7669,-6.7669,-6.7669,-6.7669,-6.7669,-6.7669,-6.7669,-6.7669,-6.7669,-6.7669,-6.7669,-6.7669,-6.7669,-6.7669,-6.7669,-6.7669,-6.7669,-6.7669,-6.7669,-6.7669,-6.7669,-6.7669,-6.7669,-6.7669,-6.7669,-6.7669,-6.7669,-6.7669,-6.7669,-6.7669,-6.7669,-6.7669,-6.7669,-6.7669,-6.7669,-6.7669,-6.7669,-6.7836,-6.8014,-6.7784,-6.7669,-6.7669,-6.7669,-6.7669,-6.7669,-6.7669,-6.7669,-6.7669,-6.7669,-6.7669,-6.7669,-6.7669,-6.7669,-6.7669,-6.7669,-6.7669,-6.7669,-6.7669,-6.7669,-6.7669,-6.7669,-6.7669,-6.7669,-6.7669,-6.7669,-6.7669,-6.7669,-6.7669,-6.7669,-6.7669,-6.7669,-6.7669,-6.7669,-6.7669,-6.7669,-6.7669,-6.7669,-6.7669,-6.7669,-6.7669,-6.7669,-6.7669,-6.7669,-6.7669,-6.7669,-6.7669,-6.7669,-6.7669,-6.7669,-6.7669,-6.7669,-6.7669,-6.7669,-6.7669,-6.7669,-6.7669,-6.7669,-6.7669,-6.7669,-6.7669,-6.7669,-6.7669,-6.7669,-6.7669,-6.7669,-6.7669,-6.7669,-6.7669,-6.7669,-6.7669,-6.7669,-6.7669,-6.7669,-6.7669,-6.7669,-6.7669,-6.7669,-6.7669,-6.7669,-6.7669,-6.7669,-6.7669,-6.7669,-6.7669,-6.7669,-6.7669,-6.7669,-6.7669,-6.7669,-6.7669,-6.7669,-6.7669,-6.7669,-6.7669,-6.7669,-6.7669,-6.7669,-6.7669,-6.7669,-6.7669,-6.7669,-6.7669,-6.7669,-6.7669,-6.7669,-6.7669,-6.7669,-6.7669,-6.7669,-6.7669,-6.7669,-6.7669,-6.8065,-6.8445,-6.7989,-6.7767,-6.7696,-6.7669,-6.7669,-6.7669,-6.7669,-6.7669,-6.7669,-6.7669,-6.7669,-6.7669,-6.7669,-6.7669,-6.7669,-6.7669,-6.7669,-6.7669,-6.7669,-6.7669,-6.7669,-6.7669,-6.7669,-6.7669,-6.7669,-6.7669,-6.7669,-6.7669,-6.7669,-6.7669,-6.7669,-6.7669,-6.7669,-6.7669,-6.7669,-6.7669,-6.7669,-6.7669,-6.7669,-6.7669,-6.7669,-6.7669,-6.7669,-6.7669,-6.7669,-6.7669,-6.7669,-6.7669,-6.7669,-6.7669,-6.7669,-6.7669,-6.7669,-6.7669,-6.7669,-6.7669,-6.7669,-6.7669,-6.7669,-6.7669,-6.7669,-6.7669,-6.7669,-6.7669,-6.7669,-6.7669,-6.7669,-6.7669,-6.7669,-6.7669,-6.7669,-6.7669,-6.7669,-6.7669,-6.7669,-6.7669,-6.7669,-6.7669,-6.7669,-6.7669,-6.7669,-6.7669,-6.7669,-6.7669,-6.7669,-6.7669,-6.7669,-6.7669,-6.7669,-6.7669,-6.7669,-6.7669,-6.7669,-6.7669,-6.7669,-6.7669,-6.7669,-6.7669,-6.7669,-6.7669,-6.7669,-6.7669,-6.7669,-6.7669,-6.7669,-6.7669,-6.7669,-6.7669,-6.7669,-6.7669,-6.7669,-6.7669,-6.7669,-6.8392,-6.8469,-6.8387,-6.8072,-6.7722,-6.7669,-6.7669,-6.7669,-6.7696,-6.7722,-6.7714,-6.7714,-6.7722,-6.7696,-6.7741,-6.7669,-6.7696,-6.7669,-6.7669,-6.7669,-6.7669,-6.7669,-6.7669,-6.7669,-6.7669,-6.7669,-6.7669,-6.7669,-6.7669,-6.7669,-6.7669,-6.7669,-6.7669,-6.7669,-6.7669,-6.7669,-6.7669,-6.7669,-6.7669,-6.7669,-6.7669,-6.7669,-6.7669,-6.7669,-6.7669,-6.7669,-6.7669,-6.7669,-6.7669,-6.7669,-6.7669,-6.7669,-6.7669,-6.7669,-6.7669,-6.7669,-6.7669,-6.7669,-6.7669,-6.7669,-6.7669,-6.7669,-6.7669,-6.7669,-6.7669,-6.7669,-6.7669,-6.7669,-6.7669,-6.7669,-6.7669,-6.7669,-6.7669,-6.7669,-6.7669,-6.7669,-6.7669,-6.7669,-6.7669,-6.7669,-6.7669,-6.7669,-6.7669,-6.7669,-6.7669,-6.7669,-6.7669,-6.7669,-6.7669,-6.7669,-6.7669,-6.7669,-6.7669,-6.7669,-6.7669,-6.7669,-6.7669,-6.7669,-6.7669,-6.7669,-6.7669,-6.7669,-6.7669,-6.7669,-6.7669,-6.7669,-6.7669,-6.7669,-6.7669,-6.7669,-6.7669,-6.7669,-6.7669,-6.7669,-6.7669,-6.9021,-6.9191,-6.8709,-6.8338,-6.8065,-6.7828,-6.7669,-6.7749,-6.7963,-6.7948,-6.7844,-6.8179,-6.8179,-6.7749,-6.7948,-6.7982,-6.7722,-6.7669,-6.7669,-6.7669,-6.7669,-6.7669,-6.7669,-6.7669,-6.7669,-6.7669,-6.7669,-6.7669,-6.7669,-6.7669,-6.7669,-6.7669,-6.7669,-6.7669,-6.7669,-6.7669,-6.7669,-6.7669,-6.7669,-6.7669,-6.7669,-6.7669,-6.7669,-6.7669,-6.7669,-6.7669,-6.7669,-6.7669,-6.7669,-6.7669,-6.7669,-6.7669,-6.7669,-6.7669,-6.7669,-6.7669,-6.7669,-6.7669,-6.7669,-6.7669,-6.7669,-6.7669,-6.7669,-6.7669,-6.7669,-6.7669,-6.7669,-6.7669,-6.7669,-6.7669,-6.7669,-6.7669,-6.7669,-6.7669,-6.7669,-6.7669,-6.7669,-6.7669,-6.7669,-6.7669,-6.7669,-6.7669,-6.7669,-6.7669,-6.7669,-6.7669,-6.7669,-6.7669,-6.7669,-6.7669,-6.7669,-6.7669,-6.7669,-6.7669,-6.7669,-6.7669,-6.7669,-6.7669,-6.7669,-6.7669,-6.7669,-6.7669,-6.7669,-6.7669,-6.7669,-6.7669,-6.7669,-6.7669,-6.7669,-6.7669,-6.7669,-6.7669,-6.7669,-6.7669,-6.7669,-6.9664,-7.0025,-6.9127,-6.8705,-6.8539,-6.8072,-6.7904,-6.8047,-6.8314,-6.8308,-6.8173,-6.8935,-6.8728,-6.8229,-6.8308,-6.8179,-6.781,-6.7669,-6.7669,-6.7669,-6.7669,-6.7669,-6.7669,-6.7669,-6.7669,-6.7669,-6.7669,-6.7669,-6.7669,-6.7669,-6.7669,-6.7669,-6.7669,-6.7669,-6.7669,-6.7669,-6.7669,-6.7669,-6.7669,-6.7669,-6.7669,-6.7669,-6.7669,-6.7669,-6.7669,-6.7669,-6.7669,-6.7669,-6.7669,-6.7669,-6.7669,-6.7669,-6.7669,-6.7669,-6.7669,-6.7669,-6.7669,-6.7669,-6.7669,-6.7669,-6.7669,-6.7669,-6.7669,-6.7669,-6.7669,-6.7669,-6.7669,-6.7669,-6.7669,-6.7669,-6.7669,-6.7669,-6.7669,-6.7669,-6.7669,-6.7669,-6.7669,-6.7669,-6.7669,-6.7669,-6.7669,-6.7669,-6.7669,-6.7669,-6.7669,-6.7669,-6.7669,-6.7669,-6.7669,-6.7669,-6.7669,-6.7669,-6.7669,-6.7669,-6.7669,-6.7669,-6.7669,-6.7669,-6.7669,-6.7669,-6.7669,-6.7669,-6.7669,-6.7669,-6.7669,-6.7669,-6.7669,-6.7669,-6.7669,-6.7669,-6.7669,-6.7669,-6.7669,-6.7669,-6.7669,-7.0007,-7.0095,-6.9901,-6.9588,-6.9127,-6.8609,-6.859,-6.8913,-6.866,-6.8728,-6.9021,-6.9231,-6.9292,-6.8953,-6.8586,-6.8229,-6.7878,-6.7722,-6.7669,-6.7669,-6.7669,-6.7669,-6.7669,-6.7669,-6.7669,-6.7669,-6.7669,-6.7669,-6.7669,-6.7669,-6.7669,-6.7669,-6.7669,-6.7669,-6.7669,-6.7669,-6.7669,-6.7669,-6.7669,-6.7669,-6.7669,-6.7669,-6.7669,-6.7669,-6.7669,-6.7669,-6.7669,-6.7669,-6.7669,-6.7669,-6.7669,-6.7669,-6.7669,-6.7669,-6.7669,-6.7669,-6.7669,-6.7669,-6.7669,-6.7669,-6.7669,-6.7669,-6.7669,-6.7669,-6.7669,-6.7669,-6.7669,-6.7669,-6.7669,-6.7669,-6.7669,-6.7669,-6.7669,-6.7669,-6.7669,-6.7669,-6.7669,-6.7669,-6.7669,-6.7669,-6.7669,-6.7669,-6.7669,-6.7669,-6.7669,-6.7669,-6.7669,-6.7669,-6.7669,-6.7669,-6.7669,-6.7669,-6.7669,-6.7669,-6.7669,-6.7669,-6.7669,-6.7669,-6.7669,-6.7669,-6.7669,-6.7669,-6.7669,-6.7669,-6.7669,-6.7669,-6.7669,-6.7669,-6.7669,-6.7669,-6.7669,-6.7669,-6.7669,-6.7669,-6.7669,-7.0509,-7.0494,-7.0214,-6.9955,-6.9645,-6.9129,-6.9042,-6.9273,-6.9314,-6.9294,-6.9472,-6.9811,-6.9794,-6.9452,-6.9394,-6.8891,-6.821,-6.7784,-6.7696,-6.7669,-6.7669,-6.7669,-6.7669,-6.7669,-6.7669,-6.7669,-6.7669,-6.7669,-6.7669,-6.7669,-6.7669,-6.7669,-6.7669,-6.7669,-6.7669,-6.7669,-6.7669,-6.7669,-6.7669,-6.7669,-6.7669,-6.7669,-6.7669,-6.7669,-6.7669,-6.7669,-6.7669,-6.7669,-6.7669,-6.7669,-6.7669,-6.7669,-6.7669,-6.7669,-6.7669,-6.7669,-6.7669,-6.7669,-6.7669,-6.7669,-6.7669,-6.7669,-6.7669,-6.7669,-6.7669,-6.7669,-6.7669,-6.7669,-6.7669,-6.7669,-6.7669,-6.7669,-6.7669,-6.7669,-6.7669,-6.7669,-6.7669,-6.7669,-6.7669,-6.7669,-6.7669,-6.7669,-6.7669,-6.7669,-6.7669,-6.7669,-6.7669,-6.7669,-6.7669,-6.7669,-6.7669,-6.7669,-6.7669,-6.7669,-6.7669,-6.7669,-6.7669,-6.7669,-6.7669,-6.7669,-6.7669,-6.7669,-6.7669,-6.7669,-6.7669,-6.7669,-6.7669,-6.7669,-6.7669,-6.7669,-6.7669,-6.7669,-6.7669,-6.7669,-6.7669,-7.0898,-7.0852,-7.0428,-7.0247,-7.0181,-6.9701,-6.9531,-6.9683,-6.9938,-6.992,-6.9775,-7.0432,-7.0381,-6.9884,-6.9775,-6.9492,-6.8516,-6.804,-6.7844,-6.7669,-6.7669,-6.7669,-6.7669,-6.7669,-6.7669,-6.7669,-6.7669,-6.7669,-6.7669,-6.7669,-6.7669,-6.7669,-6.7669,-6.7669,-6.7669,-6.7669,-6.7669,-6.7669,-6.7669,-6.7669,-6.7669,-6.7669,-6.7669,-6.7669,-6.7669,-6.7669,-6.7669,-6.7669,-6.7669,-6.7669,-6.7669,-6.7669,-6.7669,-6.7669,-6.7669,-6.7669,-6.7669,-6.7669,-6.7669,-6.7669,-6.7669,-6.7669,-6.7669,-6.7669,-6.7669,-6.7669,-6.7669,-6.7669,-6.7669,-6.7669,-6.7669,-6.7669,-6.7669,-6.7669,-6.7669,-6.7669,-6.7669,-6.7669,-6.7669,-6.7669,-6.7669,-6.7669,-6.7669,-6.7669,-6.7669,-6.7669,-6.7669,-6.7669,-6.7669,-6.7669,-6.7669,-6.7669,-6.7669,-6.7669,-6.7669,-6.7669,-6.7669,-6.7669,-6.7669,-6.7669,-6.7669,-6.7669,-6.7669,-6.7669,-6.7669,-6.7669,-6.7669,-6.7669,-6.7669,-6.7669,-6.7669,-6.7669,-6.7669,-6.7669,-6.7669,-7.0898,-7.0898,-7.0819,-7.081,-7.0715,-7.0214,-7.0282,-7.0608,-7.0263,-7.0381,-7.0573,-7.081,-7.0791,-7.0573,-7.0198,-6.9492,-6.8799,-6.8368,-6.8123,-6.7844,-6.7722,-6.7669,-6.7669,-6.7669,-6.7669,-6.7669,-6.7669,-6.7669,-6.7669,-6.7669,-6.7669,-6.7669,-6.7669,-6.7669,-6.7669,-6.7669,-6.7669,-6.7669,-6.7669,-6.7669,-6.7669,-6.7669,-6.7669,-6.7669,-6.7669,-6.7669,-6.7669,-6.7669,-6.7669,-6.7669,-6.7669,-6.7669,-6.7669,-6.7669,-6.7669,-6.7669,-6.7669,-6.7669,-6.7669,-6.7669,-6.7669,-6.7669,-6.7669,-6.7669,-6.7669,-6.7669,-6.7669,-6.7669,-6.7669,-6.7669,-6.7669,-6.7669,-6.7669,-6.7669,-6.7669,-6.7669,-6.7669,-6.7669,-6.7669,-6.7669,-6.7669,-6.7669,-6.7669,-6.7669,-6.7669,-6.7669,-6.7669,-6.7669,-6.7669,-6.7669,-6.7844,-6.7878,-6.7757,-6.7749,-6.7836,-6.781,-6.7696,-6.7696,-6.7669,-6.7669,-6.7669,-6.7669,-6.7669,-6.7669,-6.7669,-6.7669,-6.7669,-6.7669,-6.7669,-6.7669,-6.7669,-6.7669,-6.7669,-6.7669,-6.7669,-7.0898,-7.0898,-7.0898,-7.0898,-7.0871,-7.0637,-7.0686,-7.0824,-7.0671,-7.0686,-7.0852,-7.0898,-7.0898,-7.0777,-7.035,-6.9884,-6.9334,-6.8821,-6.8392,-6.8079,-6.787,-6.7696,-6.7669,-6.7669,-6.7669,-6.7669,-6.7669,-6.7669,-6.7669,-6.7669,-6.7669,-6.7669,-6.7669,-6.7669,-6.7669,-6.7669,-6.7669,-6.7669,-6.7669,-6.7669,-6.7669,-6.7669,-6.7669,-6.7669,-6.7669,-6.7669,-6.7669,-6.7669,-6.7669,-6.7669,-6.7669,-6.7669,-6.7669,-6.7669,-6.7669,-6.7669,-6.7669,-6.7669,-6.7669,-6.7669,-6.7669,-6.7669,-6.7669,-6.7669,-6.7669,-6.7669,-6.7669,-6.7669,-6.7669,-6.7669,-6.7669,-6.7669,-6.7669,-6.7669,-6.7669,-6.7669,-6.7669,-6.7669,-6.7669,-6.7669,-6.7669,-6.7669,-6.7669,-6.7669,-6.7669,-6.7669,-6.7669,-6.7669,-6.7669,-6.7669,-6.793,-6.8185,-6.8014,-6.781,-6.7948,-6.7982,-6.7749,-6.7696,-6.7669,-6.7669,-6.7669,-6.7669,-6.7669,-6.7669,-6.7669,-6.7669,-6.7669,-6.7669,-6.7669,-6.7669,-6.7669,-6.7669,-6.7669,-6.7669,-6.7669,-7.0898,-7.0898,-7.0898,-7.0898,-7.0898,-7.0898,-7.0898,-7.0898,-7.0885,-7.0885,-7.0898,-7.0898,-7.0898,-7.0838,-7.0528,-7.0231,-7.0007,-6.9253,-6.8773,-6.844,-6.8104,-6.7844,-6.7749,-6.7669,-6.7669,-6.7669,-6.7669,-6.7669,-6.7669,-6.7669,-6.7669,-6.7669,-6.7669,-6.7669,-6.7669,-6.7669,-6.7669,-6.7669,-6.7669,-6.7669,-6.7669,-6.7669,-6.7669,-6.7669,-6.7669,-6.7669,-6.7669,-6.7669,-6.7669,-6.7669,-6.7669,-6.7669,-6.7669,-6.7669,-6.7669,-6.7669,-6.7669,-6.7669,-6.7669,-6.7669,-6.7669,-6.7669,-6.7669,-6.7669,-6.7669,-6.7669,-6.7669,-6.7669,-6.7669,-6.7669,-6.7669,-6.7669,-6.7669,-6.7669,-6.7669,-6.7669,-6.7669,-6.7669,-6.7669,-6.7669,-6.7669,-6.7669,-6.7669,-6.7669,-6.7669,-6.7669,-6.7669,-6.7696,-6.7722,-6.7749,-6.7904,-6.821,-6.8265,-6.8014,-6.7948,-6.7982,-6.7784,-6.7696,-6.7696,-6.7669,-6.7669,-6.7669,-6.7669,-6.7669,-6.7669,-6.7669,-6.7669,-6.7669,-6.7669,-6.7669,-6.7669,-6.7669,-6.7669,-6.765,-6.7467,-7.0898,-7.0898,-7.0898,-7.0898,-7.0898,-7.0898,-7.0898,-7.0898,-7.0898,-7.0898,-7.0898,-7.0898,-7.0898,-7.0852,-7.0791,-7.0524,-7.0129,-7.0025,-6.9414,-6.8821,-6.8435,-6.8129,-6.7904,-6.7776,-6.7669,-6.7669,-6.7669,-6.7669,-6.7669,-6.7669,-6.7669,-6.7669,-6.7669,-6.7669,-6.7669,-6.7669,-6.7669,-6.7669,-6.7669,-6.7669,-6.7669,-6.7669,-6.7669,-6.7669,-6.7669,-6.7669,-6.7669,-6.7669,-6.7669,-6.7669,-6.7669,-6.7669,-6.7669,-6.7669,-6.7669,-6.7669,-6.7669,-6.7669,-6.7669,-6.7669,-6.7669,-6.7669,-6.7669,-6.7669,-6.7669,-6.7669,-6.7669,-6.7669,-6.7669,-6.7669,-6.7669,-6.7669,-6.7669,-6.7669,-6.7669,-6.7669,-6.7669,-6.7669,-6.7669,-6.7669,-6.7669,-6.7669,-6.7669,-6.7669,-6.7669,-6.7669,-6.7878,-6.793,-6.7844,-6.787,-6.7904,-6.8123,-6.8392,-6.8284,-6.793,-6.7923,-6.8014,-6.7844,-6.7696,-6.7669,-6.7669,-6.7669,-6.7669,-6.7669,-6.7669,-6.7669,-6.7669,-6.7669,-6.7669,-6.7669,-6.7669,-6.7595,-6.7467,-6.7357,-6.7026,-7.0898,-7.0898,-7.0898,-7.0898,-7.0898,-7.0898,-7.0898,-7.0898,-7.0898,-7.0898,-7.0898,-7.0898,-7.0898,-7.0898,-7.0898,-7.0791,-7.0539,-7.0214,-6.9811,-6.9354,-6.891,-6.844,-6.8148,-6.787,-6.7669,-6.7669,-6.7669,-6.7669,-6.7669,-6.7669,-6.7669,-6.7669,-6.7669,-6.7669,-6.7669,-6.7669,-6.7669,-6.7669,-6.7669,-6.7669,-6.7669,-6.7669,-6.7669,-6.7669,-6.7669,-6.7669,-6.7669,-6.7669,-6.7669,-6.7669,-6.7669,-6.7669,-6.7669,-6.7669,-6.7669,-6.7669,-6.7669,-6.7669,-6.7669,-6.7669,-6.7669,-6.7669,-6.7669,-6.7669,-6.7669,-6.7669,-6.7669,-6.7669,-6.7669,-6.7669,-6.7669,-6.7669,-6.7669,-6.7669,-6.7669,-6.7669,-6.7669,-6.7669,-6.7669,-6.7669,-6.7669,-6.7669,-6.7669,-6.7669,-6.7669,-6.7696,-6.7937,-6.8104,-6.8047,-6.8204,-6.8314,-6.8487,-6.8777,-6.8866,-6.8563,-6.844,-6.832,-6.8021,-6.7749,-6.7669,-6.7669,-6.7669,-6.7669,-6.7669,-6.7669,-6.7669,-6.7669,-6.7669,-6.7669,-6.7669,-6.7577,-6.7448,-6.7302,-6.7063,-6.6494,-7.0898,-7.0898,-7.0898,-7.0898,-7.0898,-7.0898,-7.0898,-7.0898,-7.0898,-7.0898,-7.0898,-7.0898,-7.0898,-7.0898,-7.0898,-7.0898,-7.0777,-7.0543,-7.0282,-6.9865,-6.9374,-6.8844,-6.8469,-6.8179,-6.7923,-6.7776,-6.7669,-6.7669,-6.7669,-6.7669,-6.7669,-6.7669,-6.7669,-6.7669,-6.7669,-6.7669,-6.7669,-6.7669,-6.7669,-6.7669,-6.7669,-6.7669,-6.7669,-6.7669,-6.7669,-6.7669,-6.7669,-6.7669,-6.7669,-6.7669,-6.7669,-6.7669,-6.7669,-6.7669,-6.7669,-6.7669,-6.7669,-6.7669,-6.7669,-6.7669,-6.7669,-6.7669,-6.7669,-6.7669,-6.7669,-6.7669,-6.7669,-6.7669,-6.7669,-6.7669,-6.7669,-6.7669,-6.7669,-6.7669,-6.7669,-6.7669,-6.7669,-6.7669,-6.7669,-6.7669,-6.7696,-6.7757,-6.8154,-6.8161,-6.804,-6.8129,-6.8416,-6.8469,-6.829,-6.8539,-6.8997,-6.9148,-6.9334,-6.9334,-6.9273,-6.8999,-6.8682,-6.821,-6.7937,-6.7722,-6.7669,-6.7669,-6.7669,-6.7669,-6.7669,-6.7669,-6.7669,-6.7669,-6.7669,-6.7669,-6.743,-6.71,-6.6806,-6.6476,-6.5778,-7.0898,-7.0898,-7.0898,-7.0898,-7.0898,-7.0898,-7.0898,-7.0898,-7.0898,-7.0898,-7.0898,-7.0898,-7.0898,-7.0898,-7.0898,-7.0898,-7.0898,-7.0824,-7.0622,-7.0198,-6.9901,-6.9374,-6.8847,-6.8469,-6.8173,-6.7828,-6.7714,-6.7669,-6.7669,-6.7669,-6.7669,-6.7669,-6.7669,-6.7669,-6.7669,-6.7669,-6.7669,-6.7669,-6.7669,-6.7669,-6.7669,-6.7669,-6.7669,-6.7714,-6.781,-6.7844,-6.787,-6.7844,-6.787,-6.787,-6.7722,-6.7714,-6.7669,-6.7669,-6.7669,-6.7669,-6.7669,-6.7669,-6.7669,-6.7669,-6.7669,-6.7669,-6.7669,-6.7669,-6.7669,-6.7669,-6.7669,-6.7669,-6.7669,-6.7669,-6.7669,-6.7669,-6.7669,-6.7669,-6.7669,-6.7669,-6.7669,-6.7714,-6.7714,-6.7878,-6.787,-6.7904,-6.8445,-6.8732,-6.8535,-6.8586,-6.8891,-6.8869,-6.866,-6.9064,-6.9626,-6.9664,-6.9793,-6.9757,-6.9664,-6.9393,-6.9042,-6.8539,-6.8104,-6.7818,-6.7669,-6.7669,-6.7669,-6.7669,-6.7669,-6.7669,-6.7669,-6.765,-6.7485,-6.7247,-6.6916,-6.6586,-6.6292,-6.5815,-6.5063,-7.0898,-7.0898,-7.0898,-7.0898,-7.0898,-7.0898,-7.0898,-7.0898,-7.0898,-7.0898,-7.0898,-7.0898,-7.0898,-7.0898,-7.0898,-7.0898,-7.0898,-7.0898,-7.07,-7.0622,-7.0298,-6.9973,-6.9453,-6.8844,-6.8435,-6.8198,-6.7956,-6.7722,-6.7669,-6.7669,-6.7669,-6.7669,-6.7669,-6.7669,-6.7669,-6.7669,-6.7669,-6.7669,-6.7669,-6.7669,-6.7696,-6.7722,-6.7749,-6.7802,-6.8072,-6.821,-6.8235,-6.8235,-6.8235,-6.8161,-6.804,-6.781,-6.7776,-6.7749,-6.7722,-6.7696,-6.7669,-6.7669,-6.7669,-6.7669,-6.7669,-6.7669,-6.7669,-6.7669,-6.7669,-6.7669,-6.7669,-6.7669,-6.7669,-6.7669,-6.7669,-6.7669,-6.7669,-6.7669,-6.7669,-6.7669,-6.7714,-6.7714,-6.7776,-6.8129,-6.8259,-6.8516,-6.8956,-6.9414,-6.9314,-6.9251,-6.9511,-6.9374,-6.915,-6.9811,-7.0397,-7.0214,-7.0198,-7.0164,-7.0009,-6.9645,-6.9125,-6.8544,-6.8104,-6.7757,-6.7669,-6.7669,-6.7669,-6.7669,-6.7669,-6.7669,-6.7595,-6.7467,-6.7045,-6.6733,-6.6329,-6.576,-6.5228,-6.4769,-6.4218,-7.0898,-7.0898,-7.0898,-7.0898,-7.0898,-7.0898,-7.0898,-7.0898,-7.0898,-7.0898,-7.0898,-7.0898,-7.0898,-7.0898,-7.0898,-7.0898,-7.0898,-7.0898,-7.0898,-7.0824,-7.0366,-7.0095,-6.9757,-6.9212,-6.875,-6.8487,-6.8204,-6.7912,-6.7696,-6.7669,-6.7669,-6.7669,-6.7669,-6.7669,-6.7669,-6.7669,-6.7669,-6.7749,-6.7844,-6.8021,-6.8079,-6.8161,-6.8314,-6.8392,-6.8586,-6.8777,-6.8795,-6.8777,-6.8777,-6.866,-6.8464,-6.8129,-6.8047,-6.7982,-6.7897,-6.7784,-6.7669,-6.7669,-6.7669,-6.7669,-6.7669,-6.7669,-6.7669,-6.7669,-6.7669,-6.7669,-6.7669,-6.7669,-6.7669,-6.7669,-6.7669,-6.7696,-6.7757,-6.7757,-6.7784,-6.781,-6.8185,-6.8235,-6.8229,-6.8563,-6.8866,-6.9169,-6.9511,-6.992,-7.0181,-7.0164,-7.0145,-6.9902,-6.9701,-7.0279,-7.0805,-7.0637,-7.0463,-7.0381,-7.0135,-6.9778,-6.9221,-6.8586,-6.8154,-6.7722,-6.7669,-6.7669,-6.7669,-6.7669,-6.7669,-6.7632,-6.7485,-6.7247,-6.6659,-6.6109,-6.5613,-6.4971,-6.42,-6.3796,-6.3484,-7.0898,-7.0898,-7.0898,-7.0898,-7.0898,-7.0898,-7.0898,-7.0898,-7.0898,-7.0898,-7.0898,-7.0898,-7.0898,-7.0898,-7.0898,-7.0898,-7.0898,-7.0898,-7.0898,-7.0748,-7.035,-7.0198,-6.9902,-6.9414,-6.8866,-6.8586,-6.8314,-6.7956,-6.7722,-6.7669,-6.7669,-6.7669,-6.7669,-6.7757,-6.781,-6.7844,-6.7844,-6.7982,-6.829,-6.8469,-6.8586,-6.8869,-6.8956,-6.9064,-6.921,-6.9294,-6.9314,-6.9314,-6.9314,-6.9273,-6.9231,-6.8913,-6.8705,-6.8558,-6.8204,-6.7904,-6.7784,-6.7784,-6.7696,-6.7696,-6.7722,-6.7722,-6.7669,-6.7669,-6.7669,-6.7669,-6.7669,-6.7669,-6.7669,-6.7669,-6.7696,-6.781,-6.7904,-6.793,-6.7982,-6.8314,-6.8869,-6.8999,-6.8932,-6.9106,-6.9393,-6.9683,-7.0061,-7.0444,-7.0622,-7.0622,-7.0509,-7.0413,-7.0298,-7.0448,-7.0838,-7.0852,-7.07,-7.0539,-7.0238,-6.9721,-6.9221,-6.8549,-6.8054,-6.7669,-6.7669,-6.7669,-6.7669,-6.7669,-6.7669,-6.7559,-6.7228,-6.6714,-6.6109,-6.554,-6.4842,-6.4328,-6.3613,-6.3319,-6.3025,-7.0898,-7.0898,-7.0898,-7.0898,-7.0898,-7.0898,-7.0898,-7.0898,-7.0898,-7.0898,-7.0898,-7.0898,-7.0898,-7.0898,-7.0898,-7.0898,-7.0898,-7.0898,-7.0898,-7.07,-7.0366,-7.0181,-6.9793,-6.9273,-6.8754,-6.844,-6.8179,-6.7956,-6.7749,-6.7714,-6.7722,-6.7669,-6.7818,-6.7963,-6.8129,-6.8265,-6.8314,-6.844,-6.8844,-6.8999,-6.9085,-6.9314,-6.9433,-6.9473,-6.9738,-6.9829,-6.9865,-6.9865,-6.9865,-6.9847,-6.9511,-6.919,-6.9127,-6.9042,-6.8844,-6.8363,-6.8235,-6.8154,-6.7863,-6.8065,-6.8154,-6.7852,-6.7784,-6.7696,-6.7669,-6.7749,-6.7749,-6.7669,-6.7784,-6.7818,-6.7878,-6.7989,-6.8216,-6.8445,-6.8492,-6.8732,-6.9233,-6.9394,-6.9393,-6.9757,-7.0009,-7.0198,-7.0573,-7.0652,-7.0777,-7.0852,-7.0852,-7.0762,-7.0715,-7.0824,-7.0871,-7.0898,-7.0796,-7.0628,-6.9999,-6.9456,-6.901,-6.853,-6.8054,-6.7696,-6.7669,-6.7669,-6.7669,-6.7669,-6.7669,-6.7302,-6.6824,-6.6256,-6.565,-6.4659,-6.3925,-6.3503,-6.3117,-6.2934,-6.2823,-7.0898,-7.0898,-7.0898,-7.0898,-7.0898,-7.0898,-7.0898,-7.0898,-7.0898,-7.0898,-7.0898,-7.0898,-7.0898,-7.0898,-7.0898,-7.0898,-7.0898,-7.0898,-7.0898,-7.0777,-7.0346,-7.0162,-6.9757,-6.9253,-6.8799,-6.8445,-6.8204,-6.8007,-6.781,-6.7923,-6.8007,-6.7749,-6.7989,-6.8314,-6.8586,-6.8869,-6.9171,-6.9273,-6.9433,-6.9569,-6.9645,-6.9775,-6.9902,-6.9938,-7.0282,-7.0346,-7.0397,-7.0397,-7.0397,-7.0413,-7.0026,-6.983,-6.9645,-6.9414,-6.9251,-6.8777,-6.8558,-6.8535,-6.844,-6.8411,-6.8392,-6.8344,-6.8241,-6.8368,-6.8154,-6.8091,-6.787,-6.7696,-6.7897,-6.8065,-6.8104,-6.8241,-6.8664,-6.9087,-6.9129,-6.9171,-6.9433,-6.9683,-6.9973,-7.0366,-7.0573,-7.0748,-7.0885,-7.0898,-7.0898,-7.0898,-7.0898,-7.0852,-7.0824,-7.0852,-7.0885,-7.0898,-7.0795,-7.0636,-6.9903,-6.9089,-6.8574,-6.8208,-6.797,-6.7714,-6.7714,-6.7669,-6.7669,-6.7669,-6.7669,-6.7192,-6.6641,-6.5888,-6.5173,-6.42,-6.3429,-6.3154,-6.297,-6.2897,-6.2823,-7.0898,-7.0898,-7.0898,-7.0898,-7.0898,-7.0898,-7.0898,-7.0898,-7.0898,-7.0898,-7.0898,-7.0898,-7.0898,-7.0898,-7.0898,-7.0898,-7.0898,-7.0898,-7.0898,-7.0871,-7.0366,-7.0112,-6.9955,-6.9531,-6.8935,-6.8655,-6.8387,-6.8148,-6.7956,-6.8065,-6.8154,-6.7863,-6.8682,-6.9042,-6.8999,-6.9511,-6.9847,-7.0025,-7.0095,-7.0162,-7.0263,-7.0558,-7.0898,-7.0824,-7.0838,-7.0838,-7.0852,-7.0885,-7.0898,-7.0885,-7.081,-7.0524,-7.0181,-6.9701,-6.9472,-6.9294,-6.9042,-6.8844,-6.8821,-6.8732,-6.8709,-6.8847,-6.9171,-6.8935,-6.8563,-6.844,-6.8259,-6.8235,-6.844,-6.8539,-6.8614,-6.8754,-6.9108,-6.9433,-6.9569,-6.9811,-7.0164,-7.0282,-7.0366,-7.0652,-7.0748,-7.0898,-7.0898,-7.0898,-7.0898,-7.0898,-7.0898,-7.0898,-7.0715,-7.0715,-7.07,-7.0719,-7.0781,-7.0442,-6.9374,-6.8622,-6.8076,-6.7749,-6.7702,-6.7714,-6.7714,-6.7669,-6.7669,-6.7669,-6.765,-6.7063,-6.6457,-6.5723,-6.4897,-6.3925,-6.3282,-6.2952,-6.2823,-6.2823,-6.2823,-7.0898,-7.0898,-7.0898,-7.0898,-7.0898,-7.0898,-7.0898,-7.0898,-7.0898,-7.0898,-7.0898,-7.0898,-7.0898,-7.0898,-7.0898,-7.0898,-7.0898,-7.0898,-7.0898,-7.0743,-7.0381,-7.0164,-7.0007,-6.9607,-6.9064,-6.8678,-6.8435,-6.8314,-6.8014,-6.821,-6.8469,-6.8344,-6.9064,-6.9353,-6.9511,-7.0044,-7.0298,-7.0573,-7.0603,-7.0622,-7.0666,-7.0729,-7.0898,-7.0898,-7.0898,-7.0898,-7.0898,-7.0898,-7.0898,-7.0898,-7.0898,-7.081,-7.07,-7.0198,-6.9955,-6.9865,-6.9701,-6.9394,-6.9129,-6.9064,-6.8999,-6.8609,-6.8609,-6.866,-6.8705,-6.8821,-6.891,-6.8913,-6.8978,-6.9064,-6.915,-6.9334,-6.9531,-6.9793,-7.0025,-7.0463,-7.0871,-7.081,-7.0762,-7.0791,-7.0885,-7.0885,-7.0885,-7.0852,-7.0898,-7.0898,-7.0898,-7.0791,-7.0397,-7.0231,-7.0145,-7.0241,-7.0689,-7.0267,-6.9122,-6.833,-6.7864,-6.7675,-6.7686,-6.7714,-6.7669,-6.7669,-6.7669,-6.7669,-6.754,-6.688,-6.6219,-6.5595,-6.4732,-6.3686,-6.3191,-6.2879,-6.2823,-6.2823,-6.2823,-7.0898,-7.0898,-7.0898,-7.0898,-7.0898,-7.0898,-7.0898,-7.0898,-7.0898,-7.0898,-7.0898,-7.0898,-7.0898,-7.0898,-7.0898,-7.0898,-7.0898,-7.0898,-7.0898,-7.0762,-7.0588,-7.035,-7.0061,-6.9793,-6.9374,-6.8978,-6.8866,-6.866,-6.821,-6.8492,-6.8799,-6.8516,-6.9021,-6.972,-6.9938,-7.0129,-7.0573,-7.0871,-7.0898,-7.0898,-7.0898,-7.0898,-7.0898,-7.0898,-7.0898,-7.0898,-7.0898,-7.0898,-7.0898,-7.0898,-7.0898,-7.0898,-7.0824,-7.0608,-7.0459,-7.0362,-7.0198,-6.9955,-6.9645,-6.9453,-6.9414,-6.9106,-6.9251,-6.9776,-6.9452,-6.953,-6.9314,-6.9354,-6.9569,-6.9645,-6.9775,-6.9938,-7.0181,-7.0428,-7.0494,-7.0715,-7.0871,-7.0852,-7.0838,-7.0852,-7.0838,-7.0715,-7.0637,-7.0428,-7.0397,-7.0044,-7.0164,-7.0214,-6.9902,-6.972,-6.9626,-6.9568,-6.9909,-6.9829,-6.8874,-6.8203,-6.7771,-6.7692,-6.7696,-6.7669,-6.7669,-6.7669,-6.7669,-6.765,-6.7302,-6.6531,-6.5888,-6.5264,-6.4365,-6.3282,-6.2989,-6.2823,-6.2823,-6.2823,-6.2823,-7.0898,-7.0898,-7.0898,-7.0898,-7.0898,-7.0898,-7.0898,-7.0898,-7.0898,-7.0898,-7.0898,-7.0898,-7.0898,-7.0898,-7.0898,-7.0898,-7.0898,-7.0898,-7.0898,-7.0898,-7.0852,-7.0622,-7.0413,-7.0181,-6.9829,-6.9492,-6.9273,-6.8997,-6.8655,-6.9042,-6.9087,-6.8474,-6.9045,-7.0009,-6.992,-7.0266,-7.0898,-7.0898,-7.0898,-7.0898,-7.0898,-7.0898,-7.0898,-7.0898,-7.0898,-7.0898,-7.0898,-7.0898,-7.0898,-7.0898,-7.0898,-7.0898,-7.0898,-7.0824,-7.0838,-7.0715,-7.0494,-7.0413,-7.0362,-7.0095,-7.0214,-7.0366,-7.0734,-7.0608,-7.0164,-7.0007,-6.9811,-6.9811,-7.0026,-7.0061,-7.0181,-7.0346,-7.0588,-7.0686,-7.07,-7.0671,-7.0686,-7.0715,-7.0762,-7.0762,-7.0637,-7.0494,-7.0282,-7.0061,-6.9793,-6.9413,-6.9272,-6.9231,-6.921,-6.9108,-6.9023,-6.884,-6.8828,-6.8599,-6.8333,-6.8117,-6.77,-6.7702,-6.7669,-6.7669,-6.7669,-6.7669,-6.765,-6.7585,-6.71,-6.6329,-6.554,-6.4861,-6.3888,-6.2945,-6.2879,-6.2823,-6.2823,-6.2823,-6.2823,-7.0898,-7.0898,-7.0898,-7.0898,-7.0898,-7.0898,-7.0898,-7.0898,-7.0898,-7.0898,-7.0898,-7.0898,-7.0898,-7.0898,-7.0898,-7.0898,-7.0898,-7.0898,-7.0898,-7.0898,-7.0898,-7.0824,-7.0734,-7.0573,-7.0362,-7.0025,-6.9645,-6.9292,-6.919,-6.9607,-6.9847,-6.9531,-7.0078,-7.0622,-7.0637,-7.0885,-7.0898,-7.0898,-7.0898,-7.0898,-7.0898,-7.0898,-7.0898,-7.0898,-7.0898,-7.0898,-7.0898,-7.0898,-7.0898,-7.0898,-7.0898,-7.0898,-7.0898,-7.0898,-7.0898,-7.0885,-7.0666,-7.0573,-7.0494,-7.0346,-7.0397,-7.0078,-7.0266,-7.0397,-7.0231,-7.0413,-7.0247,-7.0145,-7.0198,-6.9957,-7.0026,-7.0214,-7.0413,-7.025,-7.0164,-7.0026,-6.9938,-7.0112,-7.0247,-7.0231,-7.0181,-6.9938,-6.9664,-6.9511,-6.9394,-6.9127,-6.9064,-6.8999,-6.8682,-6.8563,-6.8469,-6.8253,-6.8018,-6.7881,-6.7844,-6.793,-6.7686,-6.7696,-6.7669,-6.7669,-6.7669,-6.7669,-6.7632,-6.7604,-6.699,-6.62,-6.5393,-6.4549,-6.3778,-6.3025,-6.2897,-6.2823,-6.2823,-6.2823,-6.2823]},{"header":{"parameterUnit":"m.s-1","parameterCategory":1,"la1":31.0,"la2":29.5877,"lo1":-88.7671,"lo2":-86.6584,"dy":0.0162,"dx":0.0185,"nx":115,"ny":88,"refTime":"2023-04-26T06:00:00:Z","depth":0,"parameterNumber":3,"parameterNumberName":"V-component_of_WINDS"},"data":[0.0,0.0,0.0,0.0,0.0,0.0,0.0,0.0,0.0,0.0,0.0,0.0,0.0,0.0,0.0,0.0,0.0,0.0,0.0,0.0,0.0,0.0,0.0,0.0,0.0,0.0,0.0,0.0,0.0,0.0,0.0,0.0,0.0,0.0,0.0,0.0,0.0,0.0,0.0,0.0,0.0,0.0,0.0,0.0,0.0,0.0,0.0,0.0,0.0,0.0,0.0,0.0,0.0,0.0,0.0,0.0,0.0,0.0,0.0,0.0,0.0,0.0,0.0,0.0,0.0,0.0,0.0,0.0,0.0,0.0,0.0,0.0,0.0,0.0,0.0,0.0,0.0,0.0,0.0,0.0,0.0,0.0,0.0,0.0,0.0,0.0,0.0,0.0,0.0,0.0,0.0,0.0,0.0,0.0,0.0,0.0,0.0,0.0,0.0,0.0,0.0,0.0,0.0,0.0,0.0,0.0,0.0,0.0,0.0,0.0,0.0,0.0,0.0,0.0,0.0,0.0,0.0,0.0,0.0,0.0,0.0,0.0,0.0,0.0,0.0,0.0,0.0,0.0,0.0,0.0,0.0,0.0,0.0,0.0,0.0,0.0,0.0,0.0,0.0,0.0,0.0,0.0,0.0,0.0,0.0,0.0,0.0,0.0,0.0,0.0,0.0,0.0,0.0,0.0,0.0,0.0,0.0,0.0,0.0,0.0,0.0,0.0,0.0,0.0,0.0,0.0,0.0,0.0,0.0,0.0,0.0,0.0,0.0,0.0,0.0,0.0,0.0,0.0,0.0,0.0,0.0,0.0,0.0,0.0,0.0,0.0,0.0,0.0,0.0,0.0,0.0,0.0,0.0,0.0,0.0,0.0,0.0,0.0,0.0,0.0,0.0,0.0,0.0,0.0,0.0,0.0,0.0,0.0,0.0,0.0,0.0,0.0,0.0,0.0,0.0,0.0,0.0,0.0,0.0,0.0,0.0,0.0,0.0,0.0,0.0,0.0,0.0,0.0,0.0,0.0,0.0,0.0,0.0,0.0,0.0,0.0,0.0,0.0,0.0,0.0,0.0,0.0,0.0,0.0,0.0,0.0,0.0,0.0,0.0,0.0,0.0,0.0,0.0,0.0,0.0,0.0,0.0,0.0,0.0,0.0,0.0,0.0,0.0,0.0,0.0,0.0,0.0,0.0,0.0,0.0,0.0,0.0,0.0,0.0,0.0,0.0,0.0,0.0,0.0,0.0,0.0,0.0,0.0,0.0,0.0,0.0,0.0,0.0,0.0,0.0,0.0,0.0,0.0,0.0,0.0,0.0,0.0,0.0,0.0,0.0,0.0,0.0,0.0,0.0,0.0,0.0,0.0,0.0,0.0,0.0,0.0,0.0,0.0,0.0,0.0,0.0,0.0,0.0,0.0,0.0,0.0,0.0,0.0,0.0,0.0,0.0,0.0,0.0,0.0,0.0,0.0,0.0,0.0,0.0,0.0,0.0,0.0,0.0,0.0,0.0,0.0,0.0,0.0,0.0,0.0,0.0,0.0,0.0,0.0,0.0,0.0,0.0,0.0,0.0,0.0,0.0,0.0,0.0,0.0,0.0,0.0,0.0,0.0,0.0,0.0,0.0,0.0,0.0,0.0,0.0,0.0,0.0,0.0,0.0,0.0,0.0,0.0,0.0,0.0,0.0,0.0,0.0,0.0,0.0,0.0,0.0,0.0,0.0,0.0,0.0,0.0,0.0,0.0,0.0,0.0,0.0,0.0,0.0,0.0,0.0,0.0,0.0,0.0,0.0,0.0,0.0,0.0,0.0,0.0,0.0,0.0,0.0,0.0,0.0,0.0,0.0,0.0,0.0,0.0,0.0,0.0,0.0,0.0,0.0,0.0,0.0,0.0,0.0,0.0,0.0,0.0,0.0,0.0,0.0,0.0,0.0,0.0,0.0,0.0,0.0,0.0,0.0,0.0,0.0,0.0,0.0,0.0,0.0,0.0,0.0,0.0,0.0,0.0,0.0,0.0,0.0,0.0,0.0,0.0,0.0,0.0,0.0,0.0,0.0,0.0,0.0,0.0,0.0,0.0,0.0,0.0,0.0,0.0,0.0,0.0,0.0,0.0,0.0,0.0,0.0,0.0,0.0,0.0,0.0,0.0,0.0,0.0,0.0,0.0,0.0,0.0,0.0,0.0,0.0,0.0,0.0,0.0,0.0,0.0,0.0,0.0,0.0,0.0,0.0,0.0,0.0,0.0,0.0,0.0,0.0,0.0,0.0,0.0,0.0,0.0,0.0,0.0,0.0,0.0,0.0,0.0,0.0,0.0,0.0,0.0,0.0,0.0,0.0,0.0,0.0,0.0,0.0,0.0,0.0,0.0,0.0,0.0,0.0,0.0,0.0,0.0,0.0,0.0,0.0,0.0,0.0,0.0,0.0,0.0,0.0,0.0,0.0,0.0,0.0,0.0,0.0,0.0,0.0,0.0,0.0,0.0,0.0,0.0,0.0,0.0,0.0,0.0,0.0,0.0,0.0,0.0,0.0,0.0,0.0,0.0,0.0,0.0,0.0,0.0,0.0,0.0,0.0,0.0,0.0,0.0,0.0,0.0,0.0,0.0,0.0,0.0,0.0,0.0,0.0,0.0,0.0,0.0,0.0,0.0,0.0,0.0,0.0,0.0,0.0,0.0,0.0,0.0,0.0,0.0,0.0,0.0,0.0,0.0,0.0,0.0,0.0,0.0,0.0,0.0,0.0,0.0,0.0,0.0,0.0,0.0,0.0,0.0,0.0,0.0,0.0,0.0,0.0,0.0,0.0,0.0,0.0,0.0,0.0,0.0,0.0,0.0,0.0,0.0,0.0,0.0,0.0,0.0,0.0,0.0,0.0,0.0,0.0,0.0,0.0,0.0,0.0,0.0,0.0,0.0,0.0,0.0,0.0,0.0,0.0,0.0,0.0,0.0,0.0,0.0,0.0,0.0,0.0,0.0,0.0,0.0,0.0,0.0,0.0,0.0,0.0,0.0,0.0,0.0,0.0,0.0,0.0,0.0,0.0,0.0,0.0,0.0,0.0,0.0,0.0,0.0,0.0,0.0,0.0,0.0,0.0,0.0,0.0,0.0,0.0,0.0,0.0,0.0,0.0,0.0,0.0,0.0,0.0,0.0,0.0,0.0,0.0,0.0,0.0,0.0,0.0,0.0,0.0,0.0,0.0,0.0,0.0,0.0,0.0,0.0,0.0,0.0,0.0,0.0,0.0,0.0,0.0,0.0,0.0,0.0,0.0,0.0,0.0,0.0,0.0,0.0,0.0,0.0,0.0,0.0,0.0,0.0,0.0,0.0,0.0,0.0,0.0,0.0,0.0,0.0,0.0,0.0,0.0,0.0,0.0,0.0,0.0,0.0,0.0,0.0,0.0,0.0,0.0,0.0,0.0,0.0,0.0,0.0,0.0,0.0,0.0,0.0,0.0,0.0,0.0,0.0,0.0,0.0,0.0,0.0,0.0,0.0,0.0,0.0,0.0,0.0,0.0,0.0,0.0,0.0,0.0,0.0,0.0,0.0,0.0,0.0,0.0,0.0,0.0,0.0,0.0,0.0,0.0,0.0,0.0,0.0,0.0,0.0,0.0,0.0,0.0,0.0,0.0,0.0,0.0,0.0,0.0,0.0,0.0,0.0,0.0,0.0,0.0,0.0,0.0,0.0,0.0,0.0,0.0,0.0,0.0,0.0,0.0,0.0,0.0,0.0,0.0,0.0,0.0,0.0,0.0,0.0,0.0,0.0,0.0,0.0,0.0,0.0,0.0,0.0,0.0,0.0,0.0,0.0,0.0,0.0,0.0,0.0,0.0,0.0,0.0,0.0,0.0,0.0,0.0,0.0,0.0,0.0,0.0,0.0,0.0,0.0,0.0,0.0,0.0,0.0,0.0,0.0,0.0,0.0,0.0,0.0,0.0,0.0,0.0,0.0,0.0,0.0,0.0,0.0,0.0,0.0,0.0,0.0,0.0,0.0,0.0,0.0,0.0,0.0,0.0,0.0,0.0,0.0,0.0,0.0,0.0,0.0,0.0,0.0,0.0,0.0,0.0,0.0,0.0,0.0,0.0,0.0,0.0,0.0,0.0,0.0,0.0,0.0,0.0,0.0,0.0,0.0,0.0,0.0,0.0,0.0,0.0,0.0,0.0,0.0,0.0,0.0,0.0,0.0,0.0,0.0,0.0,0.0,0.0,0.0,0.0,0.0,0.0,0.0,0.0,0.0,0.0,0.0,0.0,0.0,0.0,-2.0824,0.0,0.0,0.0,0.0,0.0,0.0,0.0,0.0,0.0,0.0,0.0,0.0,0.0,0.0,0.0,0.0,0.0,0.0,0.0,0.0,0.0,0.0,0.0,0.0,0.0,0.0,0.0,0.0,0.0,0.0,0.0,0.0,0.0,0.0,0.0,0.0,0.0,0.0,0.0,0.0,0.0,0.0,0.0,0.0,0.0,0.0,0.0,0.0,0.0,0.0,0.0,0.0,0.0,0.0,0.0,0.0,0.0,0.0,0.0,0.0,0.0,0.0,0.0,0.0,0.0,0.0,0.0,0.0,0.0,0.0,0.0,0.0,0.0,0.0,0.0,0.0,0.0,0.0,0.0,0.0,0.0,0.0,0.0,0.0,0.0,0.0,0.0,0.0,0.0,0.0,0.0,0.0,0.0,0.0,0.0,0.0,0.0,0.0,0.0,0.0,0.0,0.0,0.0,0.0,0.0,0.0,0.0,0.0,0.0,0.0,-2.2347,-2.2244,-2.2592,-2.2539,-2.1959,0.0,0.0,0.0,0.0,0.0,0.0,0.0,0.0,0.0,0.0,0.0,0.0,0.0,0.0,0.0,0.0,0.0,0.0,0.0,0.0,0.0,0.0,0.0,0.0,0.0,0.0,0.0,0.0,0.0,0.0,0.0,0.0,0.0,0.0,0.0,0.0,0.0,0.0,0.0,0.0,0.0,0.0,0.0,0.0,0.0,0.0,0.0,0.0,0.0,0.0,0.0,0.0,0.0,0.0,0.0,0.0,0.0,0.0,0.0,0.0,0.0,0.0,0.0,0.0,0.0,0.0,0.0,0.0,0.0,0.0,0.0,0.0,0.0,0.0,0.0,0.0,0.0,0.0,0.0,0.0,0.0,0.0,0.0,0.0,0.0,0.0,0.0,0.0,0.0,0.0,0.0,0.0,0.0,0.0,0.0,0.0,0.0,0.0,0.0,0.0,0.0,0.0,0.0,0.0,0.0,0.0,0.0,0.0,0.0,0.0,0.0,0.0,-2.296,-2.2872,-2.2872,0.0,0.0,0.0,0.0,0.0,0.0,0.0,0.0,0.0,0.0,0.0,0.0,0.0,0.0,0.0,0.0,0.0,0.0,0.0,0.0,0.0,0.0,0.0,0.0,0.0,0.0,0.0,0.0,0.0,0.0,0.0,0.0,0.0,0.0,0.0,0.0,0.0,0.0,0.0,0.0,0.0,0.0,0.0,0.0,0.0,0.0,0.0,0.0,0.0,0.0,0.0,0.0,0.0,0.0,0.0,0.0,0.0,0.0,0.0,0.0,0.0,0.0,0.0,0.0,0.0,0.0,0.0,0.0,0.0,0.0,0.0,0.0,0.0,0.0,0.0,0.0,0.0,0.0,0.0,0.0,0.0,0.0,0.0,0.0,0.0,0.0,0.0,0.0,0.0,0.0,0.0,0.0,0.0,0.0,0.0,0.0,0.0,0.0,0.0,0.0,0.0,0.0,0.0,0.0,0.0,0.0,0.0,0.0,0.0,0.0,-2.3178,-2.342,-2.2624,0.0,-2.2236,0.0,0.0,0.0,0.0,0.0,0.0,0.0,0.0,0.0,0.0,0.0,0.0,0.0,0.0,0.0,0.0,0.0,0.0,0.0,0.0,0.0,0.0,0.0,0.0,0.0,0.0,0.0,0.0,0.0,0.0,0.0,0.0,0.0,0.0,0.0,0.0,0.0,0.0,0.0,0.0,0.0,0.0,0.0,0.0,0.0,0.0,0.0,0.0,0.0,0.0,0.0,0.0,0.0,0.0,0.0,0.0,0.0,0.0,0.0,0.0,0.0,0.0,0.0,0.0,0.0,0.0,0.0,0.0,0.0,0.0,0.0,0.0,0.0,0.0,0.0,0.0,0.0,0.0,0.0,0.0,0.0,0.0,0.0,0.0,0.0,0.0,0.0,0.0,0.0,0.0,0.0,0.0,0.0,0.0,0.0,0.0,0.0,0.0,0.0,0.0,0.0,0.0,0.0,0.0,0.0,0.0,0.0,0.0,0.0,0.0,-2.2413,-2.2888,-2.2126,-2.1686,0.0,0.0,0.0,0.0,0.0,0.0,0.0,0.0,0.0,0.0,0.0,0.0,0.0,0.0,0.0,0.0,0.0,0.0,0.0,0.0,0.0,0.0,0.0,0.0,0.0,0.0,0.0,0.0,0.0,0.0,0.0,0.0,0.0,0.0,0.0,0.0,0.0,0.0,0.0,0.0,0.0,0.0,0.0,0.0,0.0,0.0,0.0,0.0,0.0,0.0,0.0,0.0,0.0,0.0,0.0,0.0,0.0,0.0,0.0,0.0,0.0,0.0,0.0,0.0,0.0,0.0,0.0,0.0,0.0,0.0,0.0,0.0,0.0,0.0,0.0,0.0,0.0,0.0,0.0,0.0,0.0,0.0,0.0,0.0,0.0,0.0,0.0,0.0,0.0,0.0,0.0,0.0,0.0,0.0,0.0,0.0,0.0,0.0,0.0,0.0,0.0,0.0,0.0,0.0,0.0,0.0,0.0,0.0,0.0,0.0,-2.2288,-2.1906,-2.2164,-2.1878,-2.1613,-2.1425,0.0,0.0,0.0,0.0,0.0,0.0,0.0,0.0,0.0,0.0,0.0,0.0,0.0,0.0,0.0,0.0,0.0,0.0,0.0,0.0,0.0,0.0,0.0,0.0,0.0,0.0,0.0,0.0,0.0,0.0,0.0,0.0,0.0,0.0,0.0,0.0,0.0,0.0,0.0,0.0,0.0,0.0,0.0,0.0,0.0,0.0,0.0,0.0,0.0,0.0,0.0,0.0,0.0,0.0,0.0,0.0,0.0,0.0,0.0,0.0,0.0,0.0,0.0,0.0,0.0,0.0,0.0,0.0,0.0,0.0,0.0,0.0,0.0,0.0,0.0,0.0,0.0,0.0,0.0,0.0,0.0,0.0,0.0,0.0,0.0,0.0,0.0,0.0,0.0,0.0,0.0,0.0,0.0,0.0,0.0,0.0,0.0,0.0,0.0,0.0,0.0,0.0,0.0,0.0,0.0,0.0,0.0,0.0,-2.3408,-2.2795,-2.2103,-2.1457,-2.2073,-2.2124,0.0,0.0,0.0,0.0,0.0,0.0,0.0,0.0,0.0,0.0,0.0,0.0,0.0,0.0,0.0,0.0,0.0,0.0,0.0,0.0,0.0,0.0,0.0,0.0,0.0,0.0,0.0,0.0,0.0,0.0,0.0,0.0,0.0,0.0,0.0,0.0,0.0,0.0,0.0,0.0,0.0,0.0,0.0,0.0,0.0,0.0,0.0,0.0,0.0,0.0,0.0,0.0,0.0,0.0,0.0,0.0,0.0,0.0,0.0,0.0,0.0,0.0,0.0,0.0,0.0,0.0,0.0,0.0,0.0,0.0,0.0,0.0,0.0,0.0,0.0,0.0,0.0,0.0,0.0,0.0,0.0,0.0,0.0,0.0,0.0,0.0,0.0,0.0,0.0,0.0,0.0,0.0,0.0,0.0,0.0,0.0,0.0,0.0,0.0,0.0,0.0,0.0,0.0,0.0,0.0,0.0,0.0,0.0,0.0,-2.2736,-2.2177,-2.1451,-2.0668,-2.0735,-2.0709,0.0,0.0,0.0,0.0,0.0,0.0,0.0,0.0,0.0,0.0,0.0,0.0,0.0,0.0,0.0,0.0,0.0,0.0,0.0,0.0,0.0,0.0,0.0,0.0,0.0,0.0,0.0,0.0,0.0,0.0,0.0,0.0,0.0,0.0,0.0,0.0,0.0,0.0,0.0,0.0,0.0,0.0,0.0,0.0,0.0,0.0,0.0,0.0,0.0,0.0,0.0,0.0,0.0,0.0,0.0,0.0,0.0,0.0,0.0,0.0,0.0,0.0,0.0,0.0,0.0,0.0,0.0,0.0,0.0,0.0,0.0,0.0,0.0,0.0,0.0,0.0,0.0,0.0,0.0,0.0,0.0,0.0,0.0,0.0,0.0,0.0,0.0,0.0,0.0,0.0,0.0,0.0,0.0,0.0,0.0,0.0,0.0,0.0,0.0,0.0,0.0,0.0,0.0,0.0,0.0,0.0,0.0,0.0,0.0,-2.2215,0.0,-2.149,-2.0828,-2.0261,-2.0175,0.0,0.0,0.0,0.0,0.0,0.0,0.0,0.0,0.0,0.0,0.0,0.0,0.0,0.0,0.0,0.0,0.0,0.0,0.0,0.0,0.0,0.0,0.0,0.0,0.0,0.0,0.0,0.0,0.0,0.0,0.0,0.0,0.0,0.0,0.0,0.0,0.0,0.0,0.0,0.0,0.0,0.0,0.0,0.0,0.0,0.0,0.0,0.0,0.0,0.0,0.0,0.0,0.0,0.0,0.0,0.0,0.0,0.0,0.0,0.0,0.0,0.0,0.0,0.0,0.0,0.0,0.0,0.0,0.0,0.0,0.0,0.0,0.0,0.0,0.0,0.0,0.0,0.0,0.0,0.0,0.0,0.0,0.0,0.0,0.0,0.0,0.0,0.0,0.0,0.0,0.0,0.0,0.0,0.0,0.0,0.0,0.0,0.0,0.0,0.0,0.0,0.0,0.0,0.0,0.0,0.0,0.0,0.0,-2.143,-2.18,-2.2261,-2.2319,-2.2073,-2.0907,-2.0643,0.0,0.0,0.0,0.0,0.0,0.0,0.0,0.0,0.0,0.0,0.0,0.0,0.0,0.0,0.0,0.0,0.0,0.0,0.0,0.0,0.0,0.0,0.0,0.0,0.0,0.0,0.0,0.0,0.0,0.0,0.0,0.0,0.0,0.0,0.0,0.0,0.0,0.0,0.0,0.0,0.0,0.0,0.0,0.0,0.0,0.0,0.0,0.0,0.0,0.0,0.0,0.0,0.0,0.0,0.0,0.0,0.0,0.0,0.0,0.0,0.0,0.0,0.0,0.0,0.0,0.0,0.0,0.0,0.0,0.0,0.0,0.0,0.0,0.0,0.0,0.0,0.0,0.0,0.0,0.0,0.0,0.0,0.0,0.0,0.0,0.0,0.0,0.0,0.0,0.0,0.0,0.0,0.0,0.0,0.0,0.0,0.0,0.0,0.0,0.0,0.0,0.0,0.0,0.0,0.0,0.0,0.0,0.0,0.0,-2.1262,-2.2185,-2.2544,-2.2081,-2.1282,-2.0782,0.0,0.0,0.0,0.0,0.0,0.0,0.0,0.0,0.0,0.0,0.0,0.0,0.0,0.0,0.0,0.0,0.0,0.0,0.0,0.0,0.0,0.0,0.0,0.0,0.0,0.0,0.0,0.0,0.0,0.0,0.0,0.0,0.0,0.0,0.0,0.0,0.0,0.0,0.0,0.0,0.0,0.0,0.0,0.0,0.0,0.0,0.0,0.0,0.0,0.0,0.0,0.0,0.0,0.0,0.0,0.0,0.0,0.0,0.0,0.0,0.0,0.0,0.0,0.0,0.0,0.0,0.0,0.0,0.0,0.0,0.0,0.0,0.0,0.0,0.0,0.0,0.0,0.0,0.0,0.0,0.0,0.0,0.0,0.0,0.0,0.0,0.0,0.0,0.0,0.0,0.0,0.0,0.0,0.0,0.0,0.0,0.0,0.0,0.0,0.0,0.0,0.0,0.0,0.0,0.0,0.0,0.0,0.0,0.0,-2.058,-2.1397,-2.1646,-2.13,-2.0165,-1.9878,-2.0602,0.0,0.0,0.0,0.0,0.0,0.0,0.0,0.0,0.0,0.0,0.0,0.0,0.0,0.0,0.0,0.0,0.0,0.0,0.0,0.0,0.0,0.0,0.0,0.0,0.0,0.0,0.0,0.0,0.0,0.0,0.0,0.0,0.0,0.0,0.0,0.0,0.0,0.0,0.0,0.0,0.0,0.0,0.0,0.0,0.0,0.0,0.0,0.0,0.0,0.0,0.0,0.0,0.0,0.0,0.0,0.0,0.0,0.0,0.0,0.0,0.0,0.0,0.0,0.0,0.0,0.0,0.0,0.0,0.0,0.0,0.0,0.0,0.0,0.0,0.0,0.0,0.0,0.0,0.0,0.0,0.0,0.0,0.0,0.0,0.0,0.0,0.0,0.0,0.0,0.0,0.0,0.0,0.0,0.0,0.0,0.0,0.0,0.0,0.0,0.0,0.0,0.0,0.0,0.0,0.0,0.0,0.0,0.0,-1.9662,-1.9742,-1.9765,-1.9638,-1.7946,-1.8232,0.0,0.0,0.0,0.0,0.0,0.0,0.0,0.0,0.0,0.0,0.0,0.0,0.0,0.0,0.0,0.0,0.0,0.0,0.0,0.0,0.0,0.0,0.0,0.0,0.0,0.0,0.0,0.0,0.0,0.0,0.0,0.0,0.0,0.0,0.0,0.0,0.0,0.0,0.0,0.0,0.0,0.0,0.0,0.0,0.0,0.0,0.0,0.0,0.0,0.0,0.0,0.0,0.0,0.0,0.0,0.0,0.0,0.0,0.0,0.0,0.0,0.0,0.0,0.0,0.0,0.0,0.0,0.0,0.0,0.0,0.0,0.0,0.0,0.0,0.0,0.0,0.0,0.0,0.0,0.0,0.0,0.0,0.0,0.0,0.0,0.0,0.0,0.0,0.0,0.0,0.0,0.0,0.0,0.0,0.0,0.0,0.0,0.0,0.0,0.0,0.0,0.0,0.0,0.0,0.0,0.0,0.0,0.0,0.0,-1.8935,-1.6588,-1.5824,-1.6921,-1.7598,-1.7901,0.0,0.0,0.0,0.0,0.0,0.0,0.0,0.0,0.0,0.0,0.0,0.0,0.0,0.0,0.0,0.0,0.0,0.0,0.0,0.0,0.0,0.0,0.0,0.0,0.0,0.0,0.0,0.0,0.0,0.0,0.0,0.0,0.0,0.0,0.0,0.0,0.0,0.0,0.0,0.0,0.0,0.0,0.0,0.0,0.0,0.0,0.0,0.0,0.0,0.0,0.0,0.0,0.0,0.0,0.0,0.0,0.0,0.0,0.0,0.0,0.0,0.0,0.0,0.0,0.0,0.0,0.0,0.0,0.0,0.0,0.0,0.0,0.0,0.0,0.0,0.0,0.0,0.0,0.0,0.0,0.0,0.0,0.0,0.0,0.0,0.0,0.0,0.0,0.0,0.0,0.0,0.0,0.0,0.0,0.0,0.0,0.0,0.0,0.0,0.0,0.0,0.0,0.0,0.0,0.0,0.0,0.0,0.0,-1.9685,-1.9118,-1.5099,-1.3041,-1.3317,-1.5706,-1.7196,0.0,0.0,0.0,0.0,0.0,0.0,0.0,0.0,0.0,0.0,0.0,0.0,0.0,0.0,0.0,0.0,0.0,0.0,0.0,0.0,0.0,0.0,0.0,0.0,0.0,0.0,0.0,0.0,0.0,0.0,0.0,0.0,0.0,0.0,0.0,0.0,0.0,0.0,0.0,0.0,0.0,0.0,0.0,0.0,0.0,0.0,0.0,0.0,0.0,0.0,0.0,0.0,0.0,0.0,0.0,0.0,0.0,0.0,0.0,0.0,0.0,0.0,0.0,0.0,0.0,0.0,0.0,0.0,0.0,0.0,0.0,0.0,0.0,0.0,0.0,0.0,0.0,0.0,0.0,0.0,0.0,0.0,0.0,0.0,0.0,0.0,0.0,0.0,0.0,0.0,0.0,0.0,0.0,0.0,0.0,0.0,0.0,0.0,0.0,0.0,0.0,0.0,0.0,0.0,0.0,0.0,0.0,0.0,-1.9433,-1.9747,-1.474,-1.1474,-1.024,-1.3457,-1.6291,0.0,0.0,0.0,0.0,0.0,0.0,0.0,0.0,0.0,0.0,0.0,0.0,0.0,0.0,0.0,0.0,0.0,0.0,0.0,0.0,0.0,0.0,0.0,0.0,0.0,0.0,0.0,0.0,0.0,0.0,0.0,0.0,0.0,0.0,0.0,0.0,0.0,0.0,0.0,0.0,0.0,0.0,0.0,0.0,0.0,0.0,0.0,0.0,0.0,0.0,0.0,0.0,0.0,0.0,0.0,0.0,0.0,0.0,0.0,0.0,0.0,0.0,0.0,0.0,0.0,0.0,0.0,0.0,0.0,0.0,0.0,0.0,0.0,0.0,0.0,0.0,0.0,0.0,0.0,0.0,0.0,0.0,0.0,0.0,0.0,0.0,0.0,0.0,0.0,0.0,0.0,0.0,0.0,0.0,0.0,0.0,0.0,0.0,0.0,0.0,0.0,0.0,0.0,0.0,0.0,0.0,0.0,0.0,-2.0278,-1.9671,-1.5124,-1.2457,-1.2004,-1.4655,-1.5984,0.0,0.0,0.0,0.0,0.0,0.0,0.0,0.0,0.0,0.0,0.0,0.0,0.0,0.0,0.0,0.0,0.0,0.0,0.0,0.0,0.0,0.0,0.0,0.0,0.0,0.0,0.0,0.0,0.0,0.0,0.0,0.0,0.0,0.0,0.0,0.0,0.0,0.0,0.0,0.0,0.0,0.0,0.0,0.0,0.0,0.0,0.0,0.0,-1.8197,0.0,0.0,0.0,0.0,0.0,0.0,0.0,0.0,0.0,0.0,0.0,0.0,0.0,0.0,0.0,0.0,0.0,0.0,0.0,0.0,0.0,0.0,0.0,0.0,0.0,0.0,0.0,0.0,0.0,0.0,0.0,0.0,0.0,0.0,0.0,0.0,0.0,0.0,0.0,0.0,0.0,0.0,0.0,0.0,0.0,0.0,0.0,0.0,0.0,0.0,0.0,0.0,0.0,0.0,0.0,0.0,0.0,0.0,0.0,-2.0956,-1.9983,-1.621,-1.3789,-1.2979,-1.5162,-1.6203,0.0,0.0,0.0,0.0,0.0,0.0,0.0,0.0,0.0,0.0,0.0,0.0,0.0,0.0,0.0,0.0,0.0,0.0,0.0,0.0,0.0,0.0,0.0,0.0,0.0,0.0,0.0,0.0,0.0,0.0,0.0,0.0,0.0,0.0,0.0,0.0,0.0,0.0,0.0,0.0,0.0,0.0,0.0,0.0,0.0,0.0,0.0,0.0,0.0,0.0,0.0,0.0,0.0,0.0,0.0,0.0,0.0,0.0,0.0,0.0,0.0,0.0,0.0,0.0,0.0,0.0,0.0,0.0,0.0,0.0,0.0,0.0,0.0,0.0,0.0,0.0,0.0,0.0,0.0,0.0,0.0,0.0,0.0,0.0,0.0,0.0,0.0,0.0,0.0,0.0,0.0,0.0,0.0,0.0,0.0,0.0,0.0,0.0,0.0,0.0,0.0,0.0,0.0,0.0,0.0,0.0,0.0,-2.2705,-2.1627,-2.033,-1.759,-1.5419,-1.3984,-1.5652,-1.6627,-1.6604,0.0,0.0,0.0,0.0,0.0,0.0,0.0,0.0,0.0,0.0,0.0,0.0,0.0,0.0,0.0,0.0,0.0,0.0,0.0,0.0,0.0,0.0,0.0,0.0,0.0,0.0,0.0,0.0,0.0,0.0,0.0,0.0,0.0,0.0,0.0,0.0,0.0,0.0,-2.2724,-2.3776,0.0,0.0,0.0,0.0,0.0,0.0,0.0,0.0,-1.9388,0.0,0.0,0.0,0.0,0.0,0.0,0.0,0.0,0.0,0.0,0.0,0.0,0.0,0.0,0.0,0.0,0.0,0.0,0.0,0.0,0.0,0.0,0.0,0.0,0.0,0.0,0.0,0.0,0.0,0.0,0.0,0.0,0.0,0.0,0.0,0.0,0.0,0.0,0.0,0.0,0.0,0.0,0.0,0.0,0.0,0.0,0.0,0.0,0.0,0.0,0.0,0.0,0.0,0.0,0.0,0.0,-2.1639,-2.3271,-2.2887,-2.0281,-1.8805,-1.7822,-1.7468,-1.6866,-1.6702,-1.695,0.0,0.0,0.0,0.0,0.0,0.0,0.0,0.0,0.0,0.0,0.0,0.0,0.0,0.0,0.0,0.0,0.0,0.0,0.0,0.0,0.0,0.0,0.0,0.0,0.0,0.0,0.0,0.0,0.0,0.0,0.0,0.0,0.0,0.0,0.0,0.0,0.0,0.0,0.0,-2.3479,-2.4386,0.0,0.0,0.0,0.0,0.0,0.0,0.0,0.0,-1.9011,0.0,0.0,0.0,0.0,0.0,0.0,0.0,0.0,0.0,0.0,0.0,0.0,0.0,0.0,0.0,0.0,0.0,0.0,0.0,0.0,0.0,0.0,0.0,0.0,0.0,0.0,0.0,0.0,0.0,0.0,0.0,0.0,0.0,0.0,0.0,0.0,0.0,0.0,0.0,0.0,0.0,0.0,0.0,0.0,0.0,0.0,0.0,0.0,0.0,0.0,0.0,0.0,0.0,0.0,0.0,-2.1936,-2.3228,-2.289,-2.0723,-2.0329,-1.9557,-1.8433,-1.848,-1.7998,0.0,0.0,0.0,0.0,0.0,0.0,0.0,0.0,0.0,0.0,0.0,0.0,0.0,0.0,0.0,0.0,0.0,0.0,0.0,0.0,0.0,0.0,0.0,0.0,0.0,0.0,0.0,0.0,0.0,0.0,0.0,0.0,0.0,0.0,0.0,0.0,0.0,0.0,0.0,0.0,-2.3577,-2.3886,-2.062,0.0,0.0,0.0,0.0,0.0,0.0,-1.9282,-1.9348,0.0,0.0,0.0,0.0,0.0,0.0,0.0,0.0,0.0,0.0,0.0,0.0,0.0,0.0,0.0,0.0,0.0,0.0,0.0,0.0,0.0,0.0,0.0,0.0,0.0,0.0,0.0,0.0,0.0,0.0,0.0,0.0,0.0,0.0,0.0,0.0,0.0,0.0,0.0,0.0,0.0,0.0,0.0,0.0,0.0,0.0,0.0,0.0,0.0,0.0,0.0,0.0,0.0,0.0,0.0,-2.2443,-2.3013,-2.2645,-2.1296,-2.1494,-2.0747,-1.9145,-2.0385,-1.9953,0.0,0.0,0.0,0.0,0.0,0.0,0.0,0.0,0.0,0.0,0.0,0.0,0.0,0.0,0.0,0.0,0.0,0.0,0.0,0.0,0.0,0.0,0.0,0.0,0.0,0.0,0.0,0.0,0.0,0.0,0.0,0.0,0.0,0.0,0.0,0.0,0.0,0.0,0.0,0.0,0.0,-2.2924,-2.0069,-2.2304,0.0,0.0,0.0,0.0,-2.0438,-1.972,0.0,0.0,0.0,0.0,0.0,0.0,0.0,0.0,0.0,0.0,0.0,0.0,0.0,0.0,0.0,0.0,0.0,0.0,0.0,0.0,0.0,0.0,0.0,0.0,0.0,0.0,0.0,0.0,0.0,0.0,0.0,0.0,0.0,0.0,0.0,0.0,0.0,0.0,0.0,0.0,0.0,0.0,0.0,0.0,0.0,0.0,0.0,0.0,0.0,0.0,0.0,0.0,0.0,0.0,0.0,0.0,-2.2356,-2.2764,-2.2588,-2.1578,-2.1601,-2.1339,-2.0843,-2.289,-2.2274,0.0,0.0,0.0,0.0,0.0,0.0,0.0,0.0,0.0,0.0,0.0,0.0,0.0,0.0,0.0,0.0,0.0,0.0,0.0,0.0,0.0,0.0,0.0,0.0,0.0,0.0,0.0,0.0,0.0,0.0,0.0,0.0,0.0,0.0,0.0,0.0,0.0,0.0,0.0,0.0,0.0,-2.1577,-1.9904,-2.1857,-2.2958,0.0,0.0,-1.8426,-1.776,-1.7141,0.0,0.0,0.0,0.0,0.0,0.0,0.0,0.0,0.0,0.0,0.0,0.0,0.0,0.0,0.0,0.0,0.0,0.0,0.0,0.0,0.0,0.0,0.0,0.0,0.0,0.0,0.0,0.0,0.0,0.0,0.0,0.0,0.0,0.0,0.0,0.0,0.0,0.0,0.0,0.0,0.0,0.0,0.0,0.0,0.0,0.0,0.0,0.0,0.0,0.0,0.0,0.0,0.0,0.0,0.0,-2.2207,-2.2584,-2.2127,-2.186,-2.1836,-2.1964,-2.1824,-2.137,-2.3981,-2.3586,0.0,0.0,0.0,0.0,0.0,0.0,0.0,0.0,0.0,0.0,0.0,0.0,0.0,0.0,0.0,0.0,0.0,0.0,0.0,0.0,0.0,0.0,0.0,0.0,0.0,0.0,0.0,0.0,0.0,0.0,0.0,0.0,0.0,0.0,0.0,0.0,0.0,0.0,0.0,0.0,0.0,0.0,-2.0405,-2.2299,0.0,0.0,0.0,-2.088,-2.202,0.0,0.0,0.0,0.0,0.0,0.0,0.0,0.0,0.0,0.0,0.0,0.0,0.0,0.0,0.0,0.0,0.0,0.0,0.0,0.0,0.0,0.0,0.0,0.0,0.0,0.0,0.0,0.0,0.0,0.0,0.0,0.0,0.0,0.0,0.0,0.0,0.0,0.0,0.0,0.0,0.0,0.0,0.0,0.0,0.0,0.0,0.0,0.0,0.0,0.0,0.0,0.0,0.0,0.0,0.0,0.0,0.0,-2.2884,-2.1704,-2.1396,-2.1971,-2.2271,-2.2138,-2.1686,-2.4115,0.0,0.0,0.0,0.0,0.0,0.0,0.0,0.0,0.0,0.0,0.0,0.0,0.0,0.0,0.0,0.0,0.0,0.0,0.0,0.0,0.0,0.0,0.0,0.0,0.0,0.0,0.0,-1.9805,0.0,0.0,0.0,0.0,0.0,0.0,0.0,0.0,0.0,0.0,0.0,0.0,0.0,0.0,-2.1309,-2.0952,-2.2587,-2.307,0.0,0.0,-2.2543,-2.3328,-2.0154,-1.8957,0.0,0.0,0.0,0.0,0.0,0.0,0.0,0.0,0.0,0.0,0.0,0.0,0.0,0.0,0.0,0.0,0.0,0.0,0.0,0.0,0.0,0.0,0.0,0.0,0.0,0.0,0.0,0.0,0.0,0.0,0.0,0.0,0.0,0.0,0.0,0.0,0.0,0.0,0.0,0.0,0.0,0.0,0.0,0.0,0.0,0.0,0.0,0.0,0.0,0.0,0.0,0.0,0.0,0.0,-2.1994,-2.3279,-2.1872,-2.1396,-2.1964,-2.2265,-2.2144,-2.1621,-2.2899,-2.2944,0.0,0.0,0.0,0.0,0.0,0.0,0.0,0.0,0.0,0.0,0.0,0.0,0.0,0.0,0.0,0.0,0.0,0.0,0.0,0.0,0.0,0.0,0.0,0.0,0.0,0.0,0.0,0.0,0.0,0.0,0.0,0.0,0.0,0.0,0.0,0.0,0.0,0.0,0.0,0.0,0.0,-2.0127,-2.1387,-2.2116,-2.1027,0.0,-1.9719,-2.1015,-1.7153,-1.6607,-1.7932,-2.1905,0.0,0.0,0.0,0.0,0.0,0.0,0.0,0.0,0.0,0.0,0.0,0.0,0.0,0.0,0.0,0.0,0.0,0.0,0.0,0.0,0.0,0.0,0.0,0.0,0.0,0.0,0.0,0.0,0.0,0.0,0.0,0.0,0.0,0.0,0.0,0.0,0.0,0.0,0.0,0.0,0.0,0.0,0.0,0.0,0.0,0.0,0.0,0.0,0.0,0.0,0.0,0.0,0.0,-2.2063,-2.3642,-2.1979,-2.1483,-2.2225,-2.2545,-2.2498,-2.2098,-2.3267,-2.3712,0.0,0.0,0.0,0.0,0.0,0.0,0.0,0.0,0.0,0.0,0.0,0.0,0.0,0.0,0.0,0.0,0.0,0.0,0.0,0.0,0.0,0.0,0.0,0.0,0.0,0.0,0.0,0.0,-2.0472,-2.0889,-2.1988,0.0,0.0,0.0,0.0,0.0,0.0,0.0,0.0,0.0,0.0,-2.1668,-2.1218,-2.1866,0.0,0.0,-2.1292,-2.2362,-2.2064,-2.1068,-2.168,-2.5452,-2.5923,0.0,0.0,0.0,0.0,0.0,0.0,0.0,0.0,0.0,0.0,0.0,0.0,0.0,0.0,0.0,0.0,0.0,0.0,0.0,0.0,0.0,0.0,0.0,0.0,0.0,0.0,0.0,0.0,0.0,0.0,0.0,0.0,0.0,0.0,0.0,0.0,0.0,0.0,0.0,0.0,0.0,0.0,0.0,0.0,0.0,0.0,0.0,0.0,0.0,0.0,0.0,0.0,-2.2233,-2.3852,-2.2136,-2.1623,-2.2405,-2.2706,-2.2719,-2.2479,-2.3121,-2.3543,0.0,0.0,0.0,0.0,0.0,0.0,0.0,0.0,0.0,0.0,0.0,0.0,0.0,0.0,0.0,0.0,0.0,0.0,0.0,0.0,0.0,0.0,0.0,0.0,0.0,0.0,0.0,0.0,-2.1039,-2.1254,-2.1661,0.0,0.0,0.0,0.0,0.0,0.0,0.0,0.0,0.0,0.0,-2.2519,-2.2308,-2.2879,-2.3182,-2.2703,-2.3612,-2.4509,-2.4891,-2.4231,-2.4456,-2.6838,0.0,0.0,0.0,0.0,0.0,0.0,0.0,0.0,0.0,0.0,0.0,0.0,0.0,0.0,0.0,0.0,0.0,0.0,0.0,0.0,0.0,0.0,0.0,0.0,0.0,0.0,0.0,0.0,0.0,0.0,-2.2155,0.0,0.0,0.0,0.0,0.0,0.0,0.0,0.0,0.0,0.0,0.0,0.0,0.0,0.0,0.0,0.0,0.0,0.0,0.0,0.0,0.0,0.0,-2.2422,-2.3852,-2.235,-2.183,-2.2412,-2.2706,-2.2719,-2.2425,-2.1916,-2.2005,-2.2693,0.0,0.0,0.0,0.0,0.0,0.0,0.0,0.0,0.0,0.0,0.0,0.0,0.0,0.0,0.0,0.0,0.0,0.0,0.0,0.0,0.0,0.0,0.0,0.0,0.0,0.0,-2.3942,-2.3408,-2.2221,0.0,0.0,0.0,0.0,0.0,0.0,0.0,0.0,0.0,0.0,-2.2978,-2.2048,-2.4913,-2.542,-2.4766,-2.3274,-2.6254,-2.7431,-2.3535,-2.4403,-2.5405,0.0,0.0,0.0,0.0,0.0,0.0,0.0,0.0,0.0,0.0,0.0,0.0,0.0,0.0,0.0,0.0,0.0,0.0,0.0,0.0,0.0,0.0,0.0,0.0,0.0,0.0,0.0,-2.2958,-2.2673,0.0,0.0,0.0,0.0,0.0,0.0,0.0,0.0,0.0,0.0,0.0,-2.3199,-2.334,0.0,0.0,0.0,0.0,0.0,0.0,0.0,0.0,0.0,0.0,0.0,0.0,-2.3017,-2.4691,-2.2745,-2.1996,-2.2686,-2.2812,-2.2819,-2.2719,-2.2331,-2.2305,-2.2691,0.0,0.0,0.0,0.0,0.0,0.0,0.0,0.0,0.0,0.0,0.0,0.0,0.0,0.0,0.0,0.0,0.0,0.0,0.0,0.0,0.0,0.0,0.0,0.0,0.0,-2.2657,0.0,0.0,0.0,0.0,0.0,0.0,0.0,0.0,0.0,0.0,0.0,-2.5233,-2.4622,-2.5145,-2.5458,-2.5094,-2.5147,-2.4442,0.0,0.0,0.0,0.0,0.0,0.0,0.0,0.0,0.0,0.0,0.0,0.0,0.0,0.0,-2.5307,-2.5381,-2.4033,-2.292,-2.3089,0.0,0.0,0.0,0.0,0.0,0.0,0.0,0.0,0.0,0.0,0.0,0.0,0.0,0.0,-2.3151,0.0,-2.2052,0.0,0.0,0.0,0.0,0.0,0.0,0.0,0.0,-2.3739,-2.3582,-2.3231,-2.3365,-2.3311,0.0,-2.328,-2.4149,0.0,0.0,0.0,0.0,0.0,0.0,0.0,0.0,-2.3768,-2.55,-2.3073,-2.215,-2.2819,-2.2866,-2.2866,-2.2859,-2.2572,-2.2345,-2.2297,-2.3091,-2.3488,0.0,0.0,0.0,0.0,0.0,0.0,0.0,0.0,0.0,0.0,0.0,0.0,0.0,0.0,0.0,0.0,0.0,0.0,0.0,0.0,0.0,0.0,0.0,-2.319,0.0,0.0,0.0,0.0,0.0,0.0,0.0,0.0,0.0,-2.437,-2.4926,-2.4995,-2.4137,-2.495,-2.5573,-2.5617,0.0,0.0,0.0,0.0,0.0,0.0,0.0,-2.9183,-2.9689,-2.965,-2.8918,-2.7015,-2.6067,-2.5579,-2.5709,0.0,0.0,-2.5128,-2.3866,-2.283,-2.3088,-2.3153,-2.3131,-2.3102,-2.3424,-2.3675,0.0,0.0,0.0,0.0,0.0,0.0,0.0,0.0,-2.2408,-2.3768,0.0,-2.2912,0.0,0.0,0.0,0.0,0.0,-2.3219,0.0,0.0,-2.1518,-2.1421,-2.3291,-2.409,-2.4246,-2.3875,-2.5923,-2.6362,-2.5155,-2.258,0.0,0.0,0.0,0.0,0.0,0.0,-2.4634,-2.594,-2.341,-2.2285,-2.2839,-2.2866,-2.2866,-2.2859,-2.2585,-2.2171,-2.1661,-2.2304,-2.2284,-2.151,-2.2258,0.0,0.0,0.0,0.0,0.0,0.0,0.0,0.0,0.0,0.0,0.0,0.0,0.0,0.0,0.0,0.0,0.0,0.0,0.0,0.0,-2.3573,0.0,0.0,0.0,0.0,0.0,0.0,0.0,0.0,0.0,0.0,-2.496,-2.4155,-2.3676,-2.4193,0.0,0.0,0.0,0.0,-2.6888,-3.0353,-3.1938,-3.229,-3.1705,-3.0112,-2.8269,-2.6387,0.0,0.0,-2.3704,-2.5355,-2.6592,-2.7022,-2.5371,-2.4364,-2.5106,-2.4676,-2.4441,-2.4737,-2.4367,-2.4327,-2.4675,-2.4416,-2.4663,-2.3887,0.0,0.0,0.0,0.0,-2.4035,-2.3264,-2.1772,-2.2226,-2.2803,-2.3303,-2.1864,0.0,0.0,0.0,0.0,0.0,0.0,-2.3706,-2.3059,-2.3042,-2.2745,-2.2146,-2.2538,-2.2678,-2.2516,-2.3039,-2.3024,-2.2642,-2.1644,-2.2681,-2.5715,0.0,0.0,0.0,0.0,-2.5434,-2.4696,-2.3153,-2.2478,-2.2859,-2.2866,-2.2866,-2.2866,-2.2779,-2.2559,-2.2184,-2.2189,-2.2237,-2.2299,-2.2004,0.0,0.0,0.0,0.0,0.0,0.0,0.0,0.0,0.0,0.0,0.0,0.0,0.0,0.0,0.0,0.0,0.0,0.0,0.0,-2.4499,-2.3317,-2.3224,0.0,0.0,0.0,0.0,0.0,0.0,0.0,0.0,0.0,-2.4342,-2.5927,-2.7122,0.0,0.0,-2.8911,-2.9719,-2.8451,-2.7263,-2.6731,-2.7075,0.0,-2.5496,-2.6299,-2.7066,-2.6724,-2.5302,-2.4477,-2.5055,-2.4194,-2.337,-2.3528,-2.3042,-2.2756,-2.3093,-2.2848,-2.2627,-2.2821,-2.2723,-2.2688,-2.2772,-2.2865,-2.2879,-2.2689,-2.323,-2.3653,-2.3615,-2.3257,-2.3628,-2.2862,-2.1321,-2.173,-2.2487,-2.3325,-2.1788,-2.2644,-2.5202,-2.4339,0.0,0.0,0.0,-2.3715,-2.2467,-2.3278,-2.322,-2.2338,-2.2552,-2.2692,-2.2686,-2.2586,-2.2439,-2.2251,-2.3009,-2.4259,-2.6116,0.0,0.0,-2.6895,-2.6025,-2.5304,-2.4703,-2.3322,-2.2739,-2.304,-2.316,-2.322,-2.3296,-2.3113,-2.2959,-2.2779,-2.2385,-2.2243,-2.2398,-2.2083,-2.2236,0.0,0.0,0.0,0.0,0.0,0.0,0.0,0.0,0.0,0.0,0.0,-2.0155,-2.1471,0.0,0.0,0.0,-2.2671,-2.3852,-2.5205,-2.4425,0.0,0.0,0.0,0.0,0.0,0.0,0.0,-2.5872,-2.5246,-2.4648,-2.4712,-2.6536,-2.7426,-2.6182,-2.7081,-2.8018,-2.8453,0.0,-2.6063,-2.5526,-2.5861,-2.5798,-2.4899,-2.5266,-2.5486,-2.487,-2.4301,-2.3971,-2.4288,-2.3168,-2.2264,-2.2298,-2.2331,-2.2385,-2.2559,-2.2305,-2.2184,-2.2291,-2.2338,-2.2331,-2.2331,-2.2331,-2.2331,-2.1655,-2.1835,-2.4325,-2.4561,-2.3248,-2.3271,-2.2474,-2.1169,-2.1176,-2.2661,-2.4915,-2.2369,-2.3293,-2.6818,-2.5888,0.0,-2.3152,-2.3832,-2.34,-2.2111,-2.2672,-2.3086,-2.3374,-2.3641,-2.3774,-2.3768,-2.3774,-2.3634,-2.341,-2.5418,-2.6136,-2.5404,-2.453,-2.4809,-2.6194,-2.5248,-2.4972,-2.5529,-2.4056,-2.3282,-2.332,-2.3621,-2.3761,-2.3728,-2.3467,-2.3313,-2.3273,-2.2752,-2.2318,-2.2077,-2.244,-2.2268,-2.1671,0.0,0.0,0.0,0.0,0.0,0.0,0.0,0.0,0.0,0.0,0.0,0.0,0.0,0.0,-2.1849,-2.3133,0.0,-2.4989,-2.6046,0.0,0.0,0.0,-2.4791,-2.3736,-2.3513,-2.3681,-2.4337,0.0,0.0,-2.5609,-2.6183,-2.5503,-2.2437,-2.2356,-2.3159,-2.4842,-2.4258,-2.4113,-2.597,-2.6696,-2.7155,-2.6705,-2.555,-2.3903,-2.2353,-2.1864,-2.2284,-2.2526,-2.2519,-2.2572,-2.2841,-2.2859,-2.2853,-2.2859,-2.2887,-2.2859,-2.2826,-2.2839,-2.2846,-2.2819,-2.2812,-2.2806,-2.1884,-2.1981,-2.2603,-2.2518,-2.2026,-2.2026,-2.1936,-2.177,-2.1784,-2.2213,-2.2762,-2.2083,-2.2418,-2.3551,-2.3319,-2.3081,-2.3006,-2.3317,-2.3338,-2.3026,-2.3387,-2.3594,-2.3667,-2.3741,-2.3774,-2.3774,-2.3774,-2.3734,-2.3732,-2.4195,-2.5204,-2.6542,-2.6592,-2.7132,-2.8289,-2.8703,-2.8018,-2.631,-2.6094,-2.511,-2.3383,-2.3614,-2.3667,-2.344,-2.3367,-2.3213,-2.2986,-2.2839,-2.2619,-2.2318,-2.2008,-2.2173,-2.2962,-2.3448,0.0,0.0,0.0,0.0,0.0,0.0,0.0,0.0,0.0,-2.3399,-2.493,0.0,-2.5189,0.0,-2.4726,-2.3526,-2.3196,-2.3106,0.0,0.0,-2.4843,-2.4984,-2.5642,-2.4325,-2.4139,-2.6295,-2.5421,-2.4579,-2.4579,-2.4899,-2.4301,-2.2076,-2.4227,-2.6227,-2.6639,-2.5158,-2.4229,-2.4786,-2.4013,-2.3153,-2.3513,-2.3219,-2.2811,-2.2258,-2.2458,-2.2679,-2.2746,-2.2759,-2.2847,-2.2921,-2.2866,-2.2866,-2.2866,-2.2866,-2.2866,-2.2866,-2.2866,-2.2866,-2.2866,-2.2866,-2.2866,-2.2372,-2.2378,-2.2372,-2.2365,-2.2325,-2.2058,-2.2104,-2.2378,-2.2519,-2.2585,-2.2592,-2.2719,-2.2873,-2.302,-2.3026,-2.3106,-2.335,-2.3447,-2.3594,-2.3721,-2.3888,-2.4035,-2.4155,-2.4155,-2.4162,-2.4155,-2.4155,-2.4155,-2.4148,-2.4028,-2.4544,-2.5525,-2.5555,-2.6391,-2.8128,-2.9778,-2.994,-2.8566,-2.7645,-2.5982,-2.3655,-2.3681,-2.4234,-2.5063,-2.4989,-2.5359,-2.6304,-2.6203,-2.5909,-2.541,-2.4993,-2.491,-2.525,-2.5885,-2.6143,0.0,0.0,0.0,0.0,0.0,0.0,0.0,0.0,0.0,0.0,0.0,-2.5689,-2.6796,-2.5042,-2.404,-2.453,-2.4384,-2.4487,-2.5113,-2.4942,-2.4826,-2.4913,-2.385,-2.3724,-2.5149,-2.4324,-2.3637,-2.3645,-2.3862,-2.3622,-2.2539,-2.4291,-2.5566,-2.4991,-2.3884,-2.3333,-2.3515,-2.2697,-2.2038,-2.2331,-2.2505,-2.2612,-2.2625,-2.2752,-2.2866,-2.2866,-2.2866,-2.2866,-2.2866,-2.2866,-2.2866,-2.2866,-2.2866,-2.2866,-2.2879,-2.2973,-2.3006,-2.2893,-2.2866,-2.2866,-2.2886,-2.2988,-2.2919,-2.31,-2.334,-2.2812,-2.2739,-2.2999,-2.3267,-2.3387,-2.34,-2.3654,-2.3794,-2.3821,-2.3828,-2.3848,-2.3881,-2.3881,-2.4022,-2.4255,-2.4255,-2.4389,-2.4629,-2.4629,-2.4629,-2.4629,-2.4629,-2.4629,-2.4623,-2.4382,-2.4318,-2.4364,-2.4104,-2.5204,-2.761,-3.0042,-3.1203,-3.1039,-2.8652,-2.6299,-2.4248,-2.4565,-2.5712,-2.7667,-2.7505,-2.8392,-3.039,-3.0242,-2.9872,-2.9258,-2.8987,-2.8352,-2.739,-2.8505,-2.8577,0.0,-2.7806,0.0,0.0,0.0,0.0,0.0,0.0,0.0,0.0,-2.4526,-2.5332,-2.5656,-2.4905,-2.5046,-2.6411,-2.6635,-2.6232,-2.5009,-2.489,-2.4371,-2.3167,-2.2979,-2.3048,-2.3042,-2.3048,-2.3048,-2.3097,-2.3227,-2.3374,-2.334,-2.3691,-2.3671,-2.2593,-2.2445,-2.2546,-2.2565,-2.2592,-2.2719,-2.2919,-2.2986,-2.2999,-2.3055,-2.302,-2.3048,-2.3013,-2.3006,-2.2999,-2.3068,-2.302,-2.3075,-2.2979,-2.2993,-2.2993,-2.3095,-2.322,-2.328,-2.3033,-2.3006,-2.3048,-2.3006,-2.3233,-2.324,-2.3414,-2.3674,-2.3561,-2.3547,-2.3601,-2.3661,-2.3688,-2.3694,-2.3748,-2.3901,-2.4115,-2.4122,-2.4242,-2.4469,-2.4476,-2.4502,-2.4549,-2.4549,-2.4576,-2.4629,-2.4629,-2.4629,-2.4629,-2.4629,-2.4629,-2.4629,-2.4576,-2.5513,-2.7389,-2.7391,-2.8599,-3.0977,0.0,0.0,0.0,-2.8395,-2.6784,-2.6398,-2.847,-2.9758,-3.0004,-2.9918,0.0,-3.0181,-3.0148,-3.0048,-2.9919,-2.963,0.0,0.0,0.0,0.0,0.0,0.0,0.0,0.0,0.0,0.0,0.0,-2.5694,-2.6016,-2.5067,-2.6636,-2.6948,-2.5271,-2.5532,-2.5253,-2.3838,-2.3736,-2.3721,-2.3687,-2.3674,-2.3617,-2.3618,-2.3601,-2.3601,-2.3601,-2.3601,-2.3594,-2.3607,-2.3654,-2.3688,-2.3708,-2.3741,-2.3681,-2.3474,-2.338,-2.3434,-2.3507,-2.3447,-2.3507,-2.3587,-2.3645,-2.3611,-2.3601,-2.3601,-2.3581,-2.3567,-2.3645,-2.3587,-2.3574,-2.3601,-2.3581,-2.3581,-2.3601,-2.3631,-2.3594,-2.3641,-2.3594,-2.3313,-2.3427,-2.3601,-2.34,0.0,-2.3547,-2.3714,0.0,-2.3988,-2.4068,-2.4182,-2.4048,-2.4068,-2.4195,-2.4202,-2.4282,-2.4416,-2.4416,-2.4502,-2.4629,-2.4629,-2.4629,-2.4629,-2.4629,-2.4629,-2.4629,-2.4629,-2.4629,-2.4629,-2.4629,-2.4629,-2.4629,-2.4629,-2.518,-2.6255,-2.6255,-2.6843,-2.7937,-2.7921,-2.8473,-2.9483,-2.7989,-2.6489,-2.5241,-2.6375,-2.7486,-2.8494,-2.8552,0.0,0.0,0.0,0.0,0.0,0.0,0.0,0.0,0.0,0.0,-2.5548,-2.6045,-2.5786,-2.4291,-2.4546,-2.4525,-2.4006,-2.4717,-2.5218,-2.5348,-2.5677,-2.5375,-2.4256,-2.4663,-2.4572,-2.3509,-2.3307,-2.3434,-2.3714,-2.3761,-2.3875,-2.4135,-2.4195,-2.4195,-2.4202,-2.4202,-2.4195,-2.4195,-2.4202,-2.4195,-2.4202,-2.4195,-2.4189,-2.4168,-2.3948,-2.3774,-2.3774,-2.3774,-2.3774,-2.3774,-2.3774,-2.3781,-2.3774,-2.3774,-2.3774,-2.3774,-2.3774,-2.3774,-2.3774,-2.3774,-2.3774,-2.3774,-2.3774,-2.3774,-2.3788,-2.3888,-2.3935,-2.3781,-2.3768,-2.3774,-2.3801,-2.3848,-2.3855,-2.4015,-2.4275,-2.4275,-2.4416,-2.4623,0.0,0.0,0.0,-2.4629,-2.4629,-2.4629,-2.4629,-2.4629,-2.4629,-2.4629,-2.4629,-2.4629,-2.4629,-2.4629,-2.4629,-2.4629,-2.4629,-2.4629,-2.4629,-2.4629,-2.4629,-2.4629,-2.4516,-2.4302,-2.4282,-2.4162,-2.3941,-2.3921,-2.508,-2.7215,-2.7373,-2.6314,-2.4129,-2.4218,-2.5253,-2.7224,-2.7283,-2.8254,-3.0195,-3.026,-3.0009,-2.9473,-2.9407,-2.9074,-2.8257,-2.8459,-2.8285,-2.7646,-2.7862,-2.7197,-2.5322,-2.5196,-2.4622,-2.3218,-2.3333,-2.3914,-2.5115,-2.4094,-2.348,-2.348,-2.3748,-2.3921,-2.3928,-2.3921,-2.4015,-2.4255,-2.4282,-2.4376,-2.4516,-2.4629,-2.4603,-2.4629,-2.4536,-2.4629,-2.4609,-2.4603,-2.4629,-2.4629,-2.4583,-2.4629,-2.4576,-2.4242,-2.3975,-2.3981,-2.4008,-2.3955,-2.3935,-2.3961,-2.3921,-2.3975,-2.3955,-2.3921,-2.3928,-2.3921,-2.3921,-2.3975,-2.3928,-2.3948,-2.3935,-2.3968,-2.3921,-2.3921,-2.4115,-2.4282,-2.4262,-2.4095,-2.3961,-2.3915,-2.4142,-2.4148,-2.4309,-2.4576,-2.4502,-2.4603,-2.4629,-2.4516,-2.4603,-2.4629,-2.4629,-2.4629,-2.4629,-2.4629,-2.4629,-2.4629,-2.4629,-2.4629,-2.4629,-2.4629,-2.4629,-2.4629,-2.4629,-2.4629,-2.4629,-2.4629,-2.4629,-2.4629,-2.4629,-2.4609,-2.4576,-2.4576,-2.4549,-2.4516,-2.4516,-2.4649,-2.5128,-2.6635,-2.7193,-2.6862,-2.8826,-3.0011,-3.0347,-3.0262,-3.0472,-3.0874,-3.0798,-3.0807,-3.0749,-3.0749,-2.9783,-2.7731,-2.7557,-2.6694,-2.468,-2.4505,-2.4329,-2.4047,-2.4061,-2.4049,-2.4053,-2.4062,-2.4071,-2.4038,-2.4096,-2.4075,-2.4088,-2.4322,-2.4516,-2.4516,-2.4489,-2.4496,-2.4556,-2.4569,-2.4596,-2.4629,-2.4629,-2.4629,-2.4629,-2.4629,-2.4629,-2.4629,-2.4629,-2.4629,-2.4629,-2.4629,-2.4629,-2.4623,-2.4576,-2.4516,-2.4516,-2.4516,-2.4516,-2.4456,-2.4502,-2.4462,-2.4442,-2.4476,-2.4442,-2.4442,-2.4442,-2.4442,-2.4489,-2.4456,-2.4462,-2.4469,-2.4509,-2.4462,-2.4449,-2.4502,-2.4543,-2.4543,-2.4489,-2.4469,-2.4315,-2.4429,-2.4436,-2.4516,-2.4629,-2.4629,-2.4629,-2.4629,-2.4629,-2.4629,-2.4629,-2.4629,-2.4629,-2.4629,-2.4629,-2.4629,-2.4629,-2.4629,-2.4629,-2.4629,-2.4629,-2.4629,-2.4629,-2.4629,-2.4629,-2.4629,-2.4629,-2.4629,-2.4629,-2.4629,-2.4629,-2.4629,-2.4629,-2.4629,-2.4629,-2.4629,-2.4629,-2.4629,-2.5324,-2.5648,-2.5712,-2.6564,-2.7085,-2.7077,-2.7085,-2.7077,-2.7077,-2.7077,-2.7085,-2.7085,-2.7085,-2.6613,-2.5531,-2.5618,-2.5164,-2.408,-2.4155,-2.4242,-2.4242,-2.4242,-2.4295,-2.4429,-2.4436,-2.4382,-2.4255,-2.4356,-2.4436,-2.4442,-2.4563,-2.4629,-2.4629,-2.4629,-2.4629,-2.4629,-2.4629,-2.4629,-2.4629,-2.4629,-2.4629,-2.4629,-2.4629,-2.4629,-2.4629,-2.4629,-2.4629,-2.4629,-2.4629,-2.4629,-2.4629,-2.4629,-2.4629,-2.4629,-2.4629,-2.4629,-2.4629,-2.4629,-2.4629,-2.4629,-2.4629,-2.4629,-2.4629,-2.4629,-2.4629,-2.4629,-2.4629,-2.4629,-2.4629,-2.4629,-2.4629,-2.4629,-2.4629,-2.4629,-2.4629,-2.4629,-2.4629,-2.4629,-2.4629,-2.4629,-2.4629,-2.4629,-2.4629,-2.4629,-2.4629,-2.4629,-2.4629,-2.4629,-2.4629,-2.4629,-2.4629,-2.4629,-2.4629,-2.4629,-2.4629,-2.4629,-2.4629,-2.4629,-2.4629,-2.4629,-2.4629,-2.4629,-2.4629,-2.4629,-2.4629,-2.4629,-2.4629,-2.4629,-2.4629,-2.4629,-2.4629,-2.4629,-2.4629,-2.4629,-2.4623,-2.4416,-2.4295,-2.4295,-2.4075,-2.3961,-2.3968,-2.404,-2.3968,-2.3968,-2.3968,-2.3968,-2.3961,-2.3961,-2.3961,-2.3981,-2.4175,-2.4302,-2.4322,-2.4442,-2.4629,-2.4629,-2.4629,-2.4629,-2.4629,-2.4629,-2.4629,-2.4629,-2.4629,-2.4629,-2.4629,-2.4629,-2.4629,-2.4629,-2.4629,-2.4629,-2.4629,-2.4629,-2.4629,-2.4629,-2.4629,-2.4629,-2.4629,-2.4629,-2.4629,-2.4629,-2.4629,-2.4629,-2.4629,-2.4629,-2.4629,-2.4629,-2.4629,-2.4629,-2.4629,-2.4629,-2.4629,-2.4629,-2.4629,-2.4629,-2.4629,-2.4629,-2.4629,-2.4629,-2.4629,-2.4629,-2.4629,-2.4629,-2.4629,-2.4629,-2.4629,-2.4629,-2.4629,-2.4629,-2.4629,-2.4629,-2.4629,-2.4629,-2.4629,-2.4629,-2.4629,-2.4629,-2.4629,-2.4629,-2.4629,-2.4629,-2.4629,-2.4629,-2.4629,-2.4629,-2.4629,-2.4629,-2.4629,-2.4629,-2.4629,-2.4629,-2.4629,-2.4629,-2.4629,-2.4629,-2.4629,-2.4629,-2.4629,-2.4629,-2.4629,-2.4629,-2.4629,-2.4629,-2.4629,-2.4629,-2.4629,-2.4629,-2.4629,-2.4629,-2.4629,-2.4629,-2.4536,-2.4596,-2.4596,-2.4569,-2.4563,-2.4556,-2.4549,-2.4556,-2.4516,-2.4556,-2.4549,-2.4556,-2.4536,-2.4543,-2.4549,-2.4583,-2.4589,-2.4509,-2.4623,-2.4629,-2.4629,-2.4629,-2.4629,-2.4629,-2.4629,-2.4629,-2.4629,-2.4629,-2.4629,-2.4629,-2.4629,-2.4629,-2.4629,-2.4629,-2.4629,-2.4629,-2.4629,-2.4629,-2.4629,-2.4629,-2.4629,-2.4629,-2.4629,-2.4629,-2.4629,-2.4629,-2.4629,-2.4629,-2.4629,-2.4629,-2.4629,-2.4629,-2.4629,-2.4629,-2.4629,-2.4629,-2.4629,-2.4629,-2.4629,-2.4629,-2.4629,-2.4629,-2.4629,-2.4629,-2.4629,-2.4629,-2.4629,-2.4629,-2.4629,-2.4629,-2.4629,-2.4629,-2.4629,-2.4629,-2.4629,-2.4629,-2.4629,-2.4629,-2.4629,-2.4629,-2.4629,-2.4629,-2.4629,-2.4629,-2.4629,-2.4629,-2.4629,-2.4629,-2.4629,-2.4629,-2.4629,-2.4629,-2.4629,-2.4629,-2.4629,-2.4629,-2.4629,-2.4629,-2.4629,-2.4629,-2.4629,-2.4629,-2.4629,-2.4629,-2.4629,-2.4629,-2.4629,-2.4629,-2.4629,-2.4629,-2.4629,-2.4629,-2.4629,-2.4629,-2.4629,-2.4629,-2.4629,-2.4629,-2.4629,-2.4629,-2.4629,-2.4629,-2.4629,-2.4629,-2.4629,-2.4629,-2.4629,-2.4629,-2.4629,-2.4629,-2.4629,-2.4629,-2.4629,-2.4629,-2.4629,-2.4629,-2.4629,-2.4629,-2.4629,-2.4629,-2.4629,-2.4629,-2.4629,-2.4629,-2.4629,-2.4629,-2.4629,-2.4629,-2.4629,-2.4629,-2.4629,-2.4629,-2.4629,-2.4629,-2.4629,-2.4629,-2.4629,-2.4629,-2.4629,-2.4629,-2.4629,-2.4629,-2.4629,-2.4629,-2.4629,-2.4629,-2.4629,-2.4629,-2.4629,-2.4629,-2.4629,-2.4629,-2.4629,-2.4629,-2.4629,-2.4629,-2.4629,-2.4629,-2.4629,-2.4629,-2.4629,-2.4629,-2.4629,-2.4629,-2.4629,-2.4629,-2.4629,-2.4629,-2.4629,-2.4629,-2.4629,-2.4629,-2.4629,-2.4629,-2.4629,-2.4629,-2.4629,-2.4629,-2.4629,-2.4629,-2.4629,-2.4629,-2.4629,-2.4629,-2.4629,-2.4629,-2.4629,-2.4629,-2.4629,-2.4629,-2.4629,-2.4629,-2.4629,-2.4629,-2.4629,-2.4629,-2.4629,-2.4629,-2.4629,-2.4629,-2.4629,-2.4629,-2.4629,-2.4629,-2.4629,-2.4629,-2.4629,-2.4629,-2.4629,-2.4629,-2.4629,-2.4629,-2.4629,-2.4629,-2.4629,-2.4629,-2.4629,-2.4629,-2.4629,-2.4629,-2.4629,-2.4629,-2.4629,-2.4629,-2.4629,-2.4629,-2.4629,-2.4629,-2.4629,-2.4629,-2.4629,-2.4629,-2.4629,-2.4629,-2.4629,-2.4629,-2.4629,-2.4629,-2.4629,-2.4629,-2.4629,-2.4629,-2.4629,-2.4629,-2.4629,-2.4629,-2.4629,-2.4629,-2.4629,-2.4629,-2.4629,-2.4629,-2.4629,-2.4629,-2.4629,-2.4629,-2.4629,-2.4629,-2.4629,-2.4629,-2.4629,-2.4629,-2.4629,-2.4629,-2.4629,-2.4629,-2.4629,-2.4629,-2.4629,-2.4629,-2.4629,-2.4629,-2.4629,-2.4629,-2.4629,-2.4629,-2.4629,-2.4629,-2.4629,-2.4629,-2.4629,-2.4629,-2.4629,-2.4629,-2.4629,-2.4629,-2.4629,-2.4629,-2.4629,-2.4629,-2.4629,-2.4629,-2.4629,-2.4629,-2.4629,-2.4629,-2.4629,-2.4629,-2.4629,-2.4629,-2.4629,-2.4629,-2.4629,-2.4629,-2.4629,-2.4629,-2.4629,-2.4629,-2.4629,-2.4629,-2.4629,-2.4629,-2.4629,-2.4629,-2.4629,-2.4629,-2.4629,-2.4629,-2.4629,-2.4629,-2.4629,-2.4629,-2.4629,-2.4629,-2.4629,-2.4629,-2.4629,-2.4629,-2.4629,-2.4629,-2.4629,-2.4629,-2.4629,-2.4629,-2.4629,-2.4629,-2.4629,-2.4629,-2.4629,-2.4629,-2.4629,-2.4629,-2.4629,-2.4629,-2.4629,-2.4629,-2.4629,-2.4629,-2.4629,-2.4629,-2.4629,-2.4629,-2.4629,-2.4629,-2.4629,-2.4629,-2.4629,-2.4629,-2.4629,-2.4629,-2.4629,-2.4629,-2.4629,-2.4629,-2.4629,-2.4629,-2.4629,-2.4629,-2.4629,-2.4629,-2.4629,-2.4629,-2.4629,-2.4629,-2.4629,-2.4629,-2.4629,-2.4629,-2.4629,-2.4629,-2.4629,-2.4629,-2.4629,-2.4629,-2.4629,-2.4629,-2.4629,-2.4629,-2.4629,-2.4629,-2.4629,-2.4629,-2.4629,-2.4629,-2.4629,-2.4629,-2.4629,-2.4629,-2.4629,-2.4629,-2.4629,-2.4629,-2.4629,-2.4629,-2.4629,-2.4629,-2.4629,-2.4629,-2.4629,-2.4629,-2.4629,-2.4629,-2.4629,-2.4629,-2.4629,-2.4629,-2.4629,-2.4629,-2.4629,-2.4629,-2.4629,-2.4629,-2.4629,-2.4629,-2.4629,-2.4629,-2.4629,-2.4629,-2.4629,-2.4629,-2.4629,-2.4629,-2.4629,-2.4629,-2.4629,-2.4629,-2.4629,-2.4629,-2.4629,-2.4629,-2.4629,-2.4629,-2.4629,-2.4629,-2.4629,-2.4629,-2.4629,-2.4629,-2.4629,-2.4629,-2.4629,-2.4629,-2.4629,-2.4629,-2.4629,-2.4629,-2.4629,-2.4629,-2.4629,-2.4629,-2.4629,-2.4629,-2.4629,-2.4629,-2.4629,-2.4629,-2.4629,-2.4629,-2.4629,-2.4629,-2.4629,-2.4629,-2.4629,-2.4629,-2.4629,-2.4629,-2.4629,-2.4629,-2.4629,-2.4629,-2.4629,-2.4629,-2.4629,-2.4629,-2.4629,-2.4629,-2.4629,-2.4629,-2.4629,-2.4629,-2.4629,-2.4629,-2.4629,-2.4629,-2.4629,-2.4629,-2.4629,-2.4629,-2.4629,-2.4629,-2.4629,-2.4629,-2.4629,-2.4629,-2.4629,-2.4629,-2.4629,-2.4629,-2.4629,-2.4629,-2.4629,-2.4629,-2.4629,-2.4629,-2.4629,-2.4629,-2.4629,-2.4629,-2.4629,-2.4629,-2.4629,-2.4629,-2.4629,-2.4629,-2.4629,-2.4629,-2.4629,-2.4629,-2.4629,-2.4629,-2.4629,-2.4629,-2.4629,-2.4629,-2.4629,-2.4629,-2.4629,-2.4629,-2.4629,-2.4629,-2.4629,-2.4629,-2.4629,-2.4629,-2.4629,-2.4629,-2.4629,-2.4629,-2.4629,-2.4629,-2.4629,-2.4629,-2.4629,-2.4629,-2.4629,-2.4629,-2.4629,-2.4629,-2.4629,-2.4629,-2.4629,-2.4629,-2.4629,-2.4629,-2.4629,-2.4629,-2.4629,-2.4629,-2.4629,-2.4629,-2.4629,-2.4629,-2.4629,-2.4629,-2.4629,-2.4629,-2.4629,-2.4629,-2.4629,-2.4629,-2.4629,-2.4629,-2.4629,-2.4629,-2.4629,-2.4629,-2.4629,-2.4629,-2.4629,-2.4629,-2.4629,-2.4629,-2.4629,-2.4629,-2.4629,-2.4629,-2.4629,-2.4629,-2.4629,-2.4629,-2.4629,-2.4629,-2.4629,-2.4629,-2.4629,-2.4629,-2.4629,-2.4629,-2.4629,-2.4629,-2.4629,-2.4629,-2.4629,-2.4629,-2.4629,-2.4629,-2.4629,-2.4629,-2.4629,-2.4629,-2.4629,-2.4629,-2.4629,-2.4629,-2.4629,-2.4629,-2.4629,-2.4629,-2.4629,-2.4629,-2.4629,-2.4629,-2.4629,-2.4629,-2.4629,-2.4629,-2.4629,-2.4629,-2.4629,-2.4629,-2.4629,-2.4629,-2.4629,-2.4629,-2.4629,-2.4629,-2.4629,-2.4629,-2.4629,-2.4629,-2.4629,-2.4629,-2.4629,-2.4629,-2.4629,-2.4629,-2.4629,-2.4629,-2.4629,-2.4629,-2.4629,-2.4629,-2.4629,-2.4629,-2.4629,-2.4629,-2.4629,-2.4629,-2.4629,-2.4629,-2.4629,-2.4629,-2.4629,-2.4629,-2.4629,-2.4629,-2.4629,-2.4629,-2.4629,-2.4629,-2.4629,-2.4629,-2.4629,-2.4629,-2.4629,-2.4629,-2.4629,-2.4629,-2.4629,-2.4629,-2.4629,-2.4629,-2.4629,-2.4629,-2.4629,-2.4629,-2.4629,-2.4629,-2.4629,-2.4629,-2.4629,-2.4629,-2.4629,-2.4629,-2.4629,-2.4629,-2.4629,-2.4629,-2.4629,-2.4629,-2.4629,-2.4629,-2.4629,-2.4629,-2.4629,-2.4629,-2.4629,-2.4629,-2.4629,-2.4629,-2.4629,-2.4629,-2.4629,-2.4629,-2.4629,-2.4629,-2.4629,-2.4629,-2.4629,-2.4629,-2.4629,-2.4629,-2.4629,-2.4629,-2.4629,-2.4629,-2.4629,-2.4629,-2.4629,-2.4629,-2.4629,-2.4629,-2.4629,-2.4629,-2.4629,-2.4629,-2.4629,-2.4629,-2.4629,-2.4629,-2.4629,-2.4629,-2.4629,-2.4629,-2.4629,-2.4629,-2.4629,-2.4629,-2.4629,-2.4629,-2.4629,-2.4629,-2.4629,-2.4629,-2.4629,-2.4629,-2.4629,-2.4629,-2.4629,-2.4629,-2.4629,-2.4629,-2.4629,-2.4629,-2.4629,-2.4629,-2.4629,-2.4629,-2.4629,-2.4629,-2.4629,-2.4629,-2.4629,-2.4629,-2.4629,-2.4629,-2.4629,-2.4629,-2.4629,-2.4629,-2.4629,-2.4629,-2.4629,-2.4629,-2.4629,-2.4629,-2.4629,-2.4629,-2.4629,-2.4629,-2.4629,-2.4629,-2.4629,-2.4629,-2.4629,-2.4629,-2.4629,-2.4629,-2.4629,-2.4629,-2.4629,-2.4629,-2.4629,-2.4629,-2.4629,-2.4629,-2.4629,-2.4629,-2.4629,-2.4629,-2.4629,-2.4629,-2.4629,-2.4629,-2.4629,-2.4629,-2.4629,-2.4629,-2.4629,-2.4629,-2.4629,-2.4629,-2.4629,-2.4629,-2.4629,-2.4629,-2.4629,-2.4629,-2.4629,-2.4629,-2.4629,-2.4629,-2.4629,-2.4629,-2.4629,-2.4629,-2.4629,-2.4629,-2.4629,-2.4629,-2.4629,-2.4629,-2.4629,-2.4629,-2.4629,-2.4629,-2.4629,-2.4629,-2.4629,-2.4629,-2.4629,-2.4629,-2.4629,-2.4629,-2.4629,-2.4629,-2.4629,-2.4629,-2.4629,-2.4629,-2.4629,-2.4629,-2.4629,-2.4629,-2.4629,-2.4629,-2.4629,-2.4629,-2.4629,-2.4629,-2.4629,-2.4629,-2.4629,-2.4629,-2.4629,-2.4629,-2.4629,-2.4629,-2.4629,-2.4629,-2.4629,-2.4629,-2.4629,-2.4629,-2.4629,-2.4629,-2.4629,-2.4629,-2.4629,-2.4629,-2.4629,-2.4629,-2.4629,-2.4629,-2.4629,-2.4629,-2.4629,-2.4629,-2.4629,-2.4629,-2.4629,-2.4629,-2.4629,-2.4629,-2.4629,-2.4629,-2.4629,-2.4629,-2.4629,-2.4629,-2.4629,-2.4629,-2.4629,-2.4629,-2.4629,-2.4629,-2.4629,-2.4629,-2.4629,-2.4629,-2.4629,-2.4629,-2.4629,-2.4629,-2.4629,-2.4629,-2.4629,-2.4629,-2.4629,-2.4629,-2.4629,-2.4629,-2.4629,-2.4629,-2.4629,-2.4629,-2.4629,-2.4629,-2.4629,-2.4629,-2.4629,-2.4629,-2.4629,-2.4629,-2.4629,-2.4629,-2.4629,-2.4629,-2.4629,-2.4629,-2.4629,-2.4629,-2.4629,-2.4629,-2.4629,-2.4629,-2.4629,-2.4629,-2.4629,-2.4629,-2.4629,-2.4629,-2.4629,-2.4629,-2.4629,-2.4629,-2.4629,-2.4629,-2.4629,-2.4629,-2.4629,-2.4629,-2.4629,-2.4629,-2.4629,-2.4629,-2.4629,-2.4629,-2.4629,-2.4629,-2.4629,-2.4629,-2.4629,-2.4629,-2.4629,-2.4629,-2.4629,-2.4629,-2.4629,-2.4629,-2.4629,-2.4629,-2.4629,-2.4629,-2.4629,-2.4629,-2.4629,-2.4629,-2.4629,-2.4629,-2.4629,-2.4629,-2.4629,-2.4629,-2.4629,-2.4629,-2.4629,-2.4629,-2.4629,-2.4629,-2.4629,-2.4629,-2.4629,-2.4629,-2.4629,-2.4629,-2.4629,-2.4629,-2.4629,-2.4629,-2.4629,-2.4629,-2.4629,-2.4629,-2.4629,-2.4629,-2.4629,-2.4629,-2.4629,-2.4629,-2.4629,-2.4629,-2.4629,-2.4629,-2.4629,-2.4629,-2.4629,-2.4629,-2.4629,-2.4629,-2.4629,-2.4629,-2.4629,-2.4629,-2.4629,-2.4629,-2.4629,-2.4629,-2.4629,-2.4629,-2.4629,-2.4629,-2.4629,-2.4629,-2.4629,-2.4629,-2.4629,-2.4629,-2.4629,-2.4629,-2.4629,-2.4629,-2.4629,-2.4629,-2.4629,-2.4629,-2.4629,-2.4629,-2.4629,-2.4629,-2.4629,-2.4629,-2.4629,-2.4629,-2.4629,-2.4629,-2.4629,-2.4629,-2.4629,-2.4629,-2.4629,-2.4629,-2.4629,-2.4629,-2.4629,-2.4629,-2.4629,-2.4629,-2.4629,-2.4629,-2.4629,-2.4629,-2.4629,-2.4629,-2.4629,-2.4629,-2.4629,-2.4629,-2.4629,-2.4629,-2.4629,-2.4629,-2.4629,-2.4629,-2.4629,-2.4629,-2.4629,-2.4629,-2.4629,-2.4629,-2.4629,-2.4629,-2.4629,-2.4629,-2.4629,-2.4629,-2.4629,-2.4629,-2.4629,-2.4629,-2.4629,-2.4629,-2.4629,-2.4629,-2.4629,-2.4629,-2.4629,-2.4629,-2.4629,-2.4629,-2.4629,-2.4629,-2.4629,-2.4629,-2.4629,-2.4629,-2.4629,-2.4629,-2.4629,-2.4629,-2.4629,-2.4629,-2.4629,-2.4629,-2.4629,-2.4629,-2.4629,-2.4629,-2.4629,-2.4629,-2.4629,-2.4629,-2.4629,-2.4629,-2.4629,-2.4629,-2.4629,-2.4629,-2.4629,-2.4629,-2.4629,-2.4629,-2.4629,-2.4629,-2.4629,-2.4629,-2.4629,-2.4629,-2.4629,-2.4629,-2.4629,-2.4629,-2.4629,-2.4629,-2.4629,-2.4629,-2.4629,-2.4629,-2.4629,-2.4629,-2.4629,-2.4629,-2.4629,-2.4629,-2.4629,-2.4629,-2.4629,-2.4629,-2.4629,-2.4629,-2.4629,-2.4629,-2.4629,-2.4629,-2.4629,-2.4629,-2.4629,-2.4105,-2.3419,-2.4253,-2.4629,-2.4629,-2.4629,-2.4629,-2.4629,-2.4629,-2.4629,-2.4629,-2.4629,-2.4629,-2.4629,-2.4629,-2.4629,-2.4629,-2.4629,-2.4629,-2.4629,-2.4629,-2.4629,-2.4629,-2.4629,-2.4629,-2.4629,-2.4629,-2.4629,-2.4629,-2.4629,-2.4629,-2.4629,-2.4629,-2.4629,-2.4629,-2.4629,-2.4629,-2.4629,-2.4629,-2.4629,-2.4629,-2.4629,-2.4629,-2.4629,-2.4629,-2.4629,-2.4629,-2.4629,-2.4629,-2.4629,-2.4629,-2.4629,-2.4629,-2.4629,-2.4629,-2.4629,-2.4629,-2.4629,-2.4629,-2.4629,-2.4629,-2.4629,-2.4629,-2.4629,-2.4629,-2.4629,-2.4629,-2.4629,-2.4629,-2.4629,-2.4629,-2.4629,-2.4629,-2.4629,-2.4629,-2.4629,-2.4629,-2.4629,-2.4629,-2.4629,-2.4629,-2.4629,-2.4629,-2.4629,-2.4629,-2.4629,-2.4629,-2.4629,-2.4629,-2.4629,-2.4629,-2.4629,-2.4629,-2.4629,-2.4629,-2.4629,-2.4629,-2.4629,-2.4629,-2.4629,-2.4629,-2.4629,-2.4629,-2.4629,-2.4629,-2.4629,-2.4629,-2.4629,-2.4629,-2.4629,-2.4629,-2.4629,-2.4629,-2.4629,-2.4629,-2.3271,-2.1745,-2.3493,-2.4414,-2.4556,-2.4629,-2.4629,-2.4629,-2.4629,-2.4629,-2.4629,-2.4629,-2.4629,-2.4629,-2.4629,-2.4629,-2.4629,-2.4629,-2.4629,-2.4629,-2.4629,-2.4629,-2.4629,-2.4629,-2.4629,-2.4629,-2.4629,-2.4629,-2.4629,-2.4629,-2.4629,-2.4629,-2.4629,-2.4629,-2.4629,-2.4629,-2.4629,-2.4629,-2.4629,-2.4629,-2.4629,-2.4629,-2.4629,-2.4629,-2.4629,-2.4629,-2.4629,-2.4629,-2.4629,-2.4629,-2.4629,-2.4629,-2.4629,-2.4629,-2.4629,-2.4629,-2.4629,-2.4629,-2.4629,-2.4629,-2.4629,-2.4629,-2.4629,-2.4629,-2.4629,-2.4629,-2.4629,-2.4629,-2.4629,-2.4629,-2.4629,-2.4629,-2.4629,-2.4629,-2.4629,-2.4629,-2.4629,-2.4629,-2.4629,-2.4629,-2.4629,-2.4629,-2.4629,-2.4629,-2.4629,-2.4629,-2.4629,-2.4629,-2.4629,-2.4629,-2.4629,-2.4629,-2.4629,-2.4629,-2.4629,-2.4629,-2.4629,-2.4629,-2.4629,-2.4629,-2.4629,-2.4629,-2.4629,-2.4629,-2.4629,-2.4629,-2.4629,-2.4629,-2.4629,-2.4629,-2.4629,-2.4629,-2.4629,-2.4629,-2.4629,-2.1975,-2.167,-2.2055,-2.319,-2.4482,-2.4629,-2.4629,-2.4629,-2.4556,-2.4482,-2.4562,-2.4562,-2.4482,-2.4556,-2.4488,-2.4629,-2.4556,-2.4629,-2.4629,-2.4629,-2.4629,-2.4629,-2.4629,-2.4629,-2.4629,-2.4629,-2.4629,-2.4629,-2.4629,-2.4629,-2.4629,-2.4629,-2.4629,-2.4629,-2.4629,-2.4629,-2.4629,-2.4629,-2.4629,-2.4629,-2.4629,-2.4629,-2.4629,-2.4629,-2.4629,-2.4629,-2.4629,-2.4629,-2.4629,-2.4629,-2.4629,-2.4629,-2.4629,-2.4629,-2.4629,-2.4629,-2.4629,-2.4629,-2.4629,-2.4629,-2.4629,-2.4629,-2.4629,-2.4629,-2.4629,-2.4629,-2.4629,-2.4629,-2.4629,-2.4629,-2.4629,-2.4629,-2.4629,-2.4629,-2.4629,-2.4629,-2.4629,-2.4629,-2.4629,-2.4629,-2.4629,-2.4629,-2.4629,-2.4629,-2.4629,-2.4629,-2.4629,-2.4629,-2.4629,-2.4629,-2.4629,-2.4629,-2.4629,-2.4629,-2.4629,-2.4629,-2.4629,-2.4629,-2.4629,-2.4629,-2.4629,-2.4629,-2.4629,-2.4629,-2.4629,-2.4629,-2.4629,-2.4629,-2.4629,-2.4629,-2.4629,-2.4629,-2.4629,-2.4629,-2.4629,-1.9629,-1.8945,-2.0761,-2.2205,-2.3271,-2.4186,-2.4629,-2.4408,-2.3568,-2.3729,-2.4025,-2.2812,-2.2812,-2.4408,-2.3729,-2.3574,-2.4482,-2.4629,-2.4629,-2.4629,-2.4629,-2.4629,-2.4629,-2.4629,-2.4629,-2.4629,-2.4629,-2.4629,-2.4629,-2.4629,-2.4629,-2.4629,-2.4629,-2.4629,-2.4629,-2.4629,-2.4629,-2.4629,-2.4629,-2.4629,-2.4629,-2.4629,-2.4629,-2.4629,-2.4629,-2.4629,-2.4629,-2.4629,-2.4629,-2.4629,-2.4629,-2.4629,-2.4629,-2.4629,-2.4629,-2.4629,-2.4629,-2.4629,-2.4629,-2.4629,-2.4629,-2.4629,-2.4629,-2.4629,-2.4629,-2.4629,-2.4629,-2.4629,-2.4629,-2.4629,-2.4629,-2.4629,-2.4629,-2.4629,-2.4629,-2.4629,-2.4629,-2.4629,-2.4629,-2.4629,-2.4629,-2.4629,-2.4629,-2.4629,-2.4629,-2.4629,-2.4629,-2.4629,-2.4629,-2.4629,-2.4629,-2.4629,-2.4629,-2.4629,-2.4629,-2.4629,-2.4629,-2.4629,-2.4629,-2.4629,-2.4629,-2.4629,-2.4629,-2.4629,-2.4629,-2.4629,-2.4629,-2.4629,-2.4629,-2.4629,-2.4629,-2.4629,-2.4629,-2.4629,-2.4629,-1.7127,-1.5765,-1.9252,-2.0841,-2.1446,-2.319,-2.3796,-2.3264,-2.2279,-2.236,-2.2893,-1.993,-2.0767,-2.2664,-2.236,-2.2812,-2.4179,-2.4629,-2.4629,-2.4629,-2.4629,-2.4629,-2.4629,-2.4629,-2.4629,-2.4629,-2.4629,-2.4629,-2.4629,-2.4629,-2.4629,-2.4629,-2.4629,-2.4629,-2.4629,-2.4629,-2.4629,-2.4629,-2.4629,-2.4629,-2.4629,-2.4629,-2.4629,-2.4629,-2.4629,-2.4629,-2.4629,-2.4629,-2.4629,-2.4629,-2.4629,-2.4629,-2.4629,-2.4629,-2.4629,-2.4629,-2.4629,-2.4629,-2.4629,-2.4629,-2.4629,-2.4629,-2.4629,-2.4629,-2.4629,-2.4629,-2.4629,-2.4629,-2.4629,-2.4629,-2.4629,-2.4629,-2.4629,-2.4629,-2.4629,-2.4629,-2.4629,-2.4629,-2.4629,-2.4629,-2.4629,-2.4629,-2.4629,-2.4629,-2.4629,-2.4629,-2.4629,-2.4629,-2.4629,-2.4629,-2.4629,-2.4629,-2.4629,-2.4629,-2.4629,-2.4629,-2.4629,-2.4629,-2.4629,-2.4629,-2.4629,-2.4629,-2.4629,-2.4629,-2.4629,-2.4629,-2.4629,-2.4629,-2.4629,-2.4629,-2.4629,-2.4629,-2.4629,-2.4629,-2.4629,-1.5841,-1.554,-1.6218,-1.7512,-1.9252,-2.1222,-2.1216,-2.0005,-2.0991,-2.0767,-1.9629,-1.8874,-1.8648,-1.9935,-2.1297,-2.2664,-2.387,-2.4482,-2.4629,-2.4629,-2.4629,-2.4629,-2.4629,-2.4629,-2.4629,-2.4629,-2.4629,-2.4629,-2.4629,-2.4629,-2.4629,-2.4629,-2.4629,-2.4629,-2.4629,-2.4629,-2.4629,-2.4629,-2.4629,-2.4629,-2.4629,-2.4629,-2.4629,-2.4629,-2.4629,-2.4629,-2.4629,-2.4629,-2.4629,-2.4629,-2.4629,-2.4629,-2.4629,-2.4629,-2.4629,-2.4629,-2.4629,-2.4629,-2.4629,-2.4629,-2.4629,-2.4629,-2.4629,-2.4629,-2.4629,-2.4629,-2.4629,-2.4629,-2.4629,-2.4629,-2.4629,-2.4629,-2.4629,-2.4629,-2.4629,-2.4629,-2.4629,-2.4629,-2.4629,-2.4629,-2.4629,-2.4629,-2.4629,-2.4629,-2.4629,-2.4629,-2.4629,-2.4629,-2.4629,-2.4629,-2.4629,-2.4629,-2.4629,-2.4629,-2.4629,-2.4629,-2.4629,-2.4629,-2.4629,-2.4629,-2.4629,-2.4629,-2.4629,-2.4629,-2.4629,-2.4629,-2.4629,-2.4629,-2.4629,-2.4629,-2.4629,-2.4629,-2.4629,-2.4629,-2.4629,-1.3945,-1.4022,-1.5085,-1.607,-1.7284,-1.9171,-1.9553,-1.8643,-1.8492,-1.8567,-1.7967,-1.6599,-1.6756,-1.8042,-1.8189,-2.008,-2.2657,-2.4253,-2.4556,-2.4629,-2.4629,-2.4629,-2.4629,-2.4629,-2.4629,-2.4629,-2.4629,-2.4629,-2.4629,-2.4629,-2.4629,-2.4629,-2.4629,-2.4629,-2.4629,-2.4629,-2.4629,-2.4629,-2.4629,-2.4629,-2.4629,-2.4629,-2.4629,-2.4629,-2.4629,-2.4629,-2.4629,-2.4629,-2.4629,-2.4629,-2.4629,-2.4629,-2.4629,-2.4629,-2.4629,-2.4629,-2.4629,-2.4629,-2.4629,-2.4629,-2.4629,-2.4629,-2.4629,-2.4629,-2.4629,-2.4629,-2.4629,-2.4629,-2.4629,-2.4629,-2.4629,-2.4629,-2.4629,-2.4629,-2.4629,-2.4629,-2.4629,-2.4629,-2.4629,-2.4629,-2.4629,-2.4629,-2.4629,-2.4629,-2.4629,-2.4629,-2.4629,-2.4629,-2.4629,-2.4629,-2.4629,-2.4629,-2.4629,-2.4629,-2.4629,-2.4629,-2.4629,-2.4629,-2.4629,-2.4629,-2.4629,-2.4629,-2.4629,-2.4629,-2.4629,-2.4629,-2.4629,-2.4629,-2.4629,-2.4629,-2.4629,-2.4629,-2.4629,-2.4629,-2.4629,-1.2501,-1.2652,-1.4249,-1.4931,-1.5238,-1.7056,-1.7659,-1.7132,-1.6146,-1.6223,-1.6751,-1.433,-1.4479,-1.6375,-1.6751,-1.781,-2.1521,-2.3345,-2.4025,-2.4629,-2.4629,-2.4629,-2.4629,-2.4629,-2.4629,-2.4629,-2.4629,-2.4629,-2.4629,-2.4629,-2.4629,-2.4629,-2.4629,-2.4629,-2.4629,-2.4629,-2.4629,-2.4629,-2.4629,-2.4629,-2.4629,-2.4629,-2.4629,-2.4629,-2.4629,-2.4629,-2.4629,-2.4629,-2.4629,-2.4629,-2.4629,-2.4629,-2.4629,-2.4629,-2.4629,-2.4629,-2.4629,-2.4629,-2.4629,-2.4629,-2.4629,-2.4629,-2.4629,-2.4629,-2.4629,-2.4629,-2.4629,-2.4629,-2.4629,-2.4629,-2.4629,-2.4629,-2.4629,-2.4629,-2.4629,-2.4629,-2.4629,-2.4629,-2.4629,-2.4629,-2.4629,-2.4629,-2.4629,-2.4629,-2.4629,-2.4629,-2.4629,-2.4629,-2.4629,-2.4629,-2.4629,-2.4629,-2.4629,-2.4629,-2.4629,-2.4629,-2.4629,-2.4629,-2.4629,-2.4629,-2.4629,-2.4629,-2.4629,-2.4629,-2.4629,-2.4629,-2.4629,-2.4629,-2.4629,-2.4629,-2.4629,-2.4629,-2.4629,-2.4629,-2.4629,-1.2501,-1.2501,-1.2726,-1.2884,-1.3186,-1.5085,-1.4859,-1.3645,-1.4855,-1.4479,-1.3718,-1.2884,-1.2881,-1.3718,-1.5161,-1.781,-2.0461,-2.2049,-2.3042,-2.4025,-2.4482,-2.4629,-2.4629,-2.4629,-2.4629,-2.4629,-2.4629,-2.4629,-2.4629,-2.4629,-2.4629,-2.4629,-2.4629,-2.4629,-2.4629,-2.4629,-2.4629,-2.4629,-2.4629,-2.4629,-2.4629,-2.4629,-2.4629,-2.4629,-2.4629,-2.4629,-2.4629,-2.4629,-2.4629,-2.4629,-2.4629,-2.4629,-2.4629,-2.4629,-2.4629,-2.4629,-2.4629,-2.4629,-2.4629,-2.4629,-2.4629,-2.4629,-2.4629,-2.4629,-2.4629,-2.4629,-2.4629,-2.4629,-2.4629,-2.4629,-2.4629,-2.4629,-2.4629,-2.4629,-2.4629,-2.4629,-2.4629,-2.4629,-2.4629,-2.4629,-2.4629,-2.4629,-2.4629,-2.4629,-2.4629,-2.4629,-2.4629,-2.4629,-2.4629,-2.4629,-2.4025,-2.387,-2.4327,-2.4408,-2.4105,-2.4179,-2.4556,-2.4556,-2.4629,-2.4629,-2.4629,-2.4629,-2.4629,-2.4629,-2.4629,-2.4629,-2.4629,-2.4629,-2.4629,-2.4629,-2.4629,-2.4629,-2.4629,-2.4629,-2.4629,-1.2501,-1.2501,-1.2501,-1.2501,-1.2656,-1.3491,-1.334,-1.2807,-1.3417,-1.334,-1.2652,-1.2501,-1.2501,-1.2958,-1.4633,-1.6375,-1.8416,-2.0386,-2.1975,-2.311,-2.3951,-2.4556,-2.4629,-2.4629,-2.4629,-2.4629,-2.4629,-2.4629,-2.4629,-2.4629,-2.4629,-2.4629,-2.4629,-2.4629,-2.4629,-2.4629,-2.4629,-2.4629,-2.4629,-2.4629,-2.4629,-2.4629,-2.4629,-2.4629,-2.4629,-2.4629,-2.4629,-2.4629,-2.4629,-2.4629,-2.4629,-2.4629,-2.4629,-2.4629,-2.4629,-2.4629,-2.4629,-2.4629,-2.4629,-2.4629,-2.4629,-2.4629,-2.4629,-2.4629,-2.4629,-2.4629,-2.4629,-2.4629,-2.4629,-2.4629,-2.4629,-2.4629,-2.4629,-2.4629,-2.4629,-2.4629,-2.4629,-2.4629,-2.4629,-2.4629,-2.4629,-2.4629,-2.4629,-2.4629,-2.4629,-2.4629,-2.4629,-2.4629,-2.4629,-2.4629,-2.3722,-2.2732,-2.3419,-2.4179,-2.3729,-2.3574,-2.4408,-2.4556,-2.4629,-2.4629,-2.4629,-2.4629,-2.4629,-2.4629,-2.4629,-2.4629,-2.4629,-2.4629,-2.4629,-2.4629,-2.4629,-2.4629,-2.4629,-2.4629,-2.4629,-1.2501,-1.2501,-1.2501,-1.2501,-1.2501,-1.2501,-1.2501,-1.2501,-1.2579,-1.2579,-1.2501,-1.2501,-1.2501,-1.273,-1.3949,-1.5008,-1.5841,-1.8718,-2.0617,-2.1826,-2.3035,-2.4025,-2.4408,-2.4629,-2.4629,-2.4629,-2.4629,-2.4629,-2.4629,-2.4629,-2.4629,-2.4629,-2.4629,-2.4629,-2.4629,-2.4629,-2.4629,-2.4629,-2.4629,-2.4629,-2.4629,-2.4629,-2.4629,-2.4629,-2.4629,-2.4629,-2.4629,-2.4629,-2.4629,-2.4629,-2.4629,-2.4629,-2.4629,-2.4629,-2.4629,-2.4629,-2.4629,-2.4629,-2.4629,-2.4629,-2.4629,-2.4629,-2.4629,-2.4629,-2.4629,-2.4629,-2.4629,-2.4629,-2.4629,-2.4629,-2.4629,-2.4629,-2.4629,-2.4629,-2.4629,-2.4629,-2.4629,-2.4629,-2.4629,-2.4629,-2.4629,-2.4629,-2.4629,-2.4629,-2.4629,-2.4629,-2.4629,-2.4556,-2.4482,-2.4408,-2.3796,-2.2657,-2.2428,-2.3419,-2.3729,-2.3574,-2.4253,-2.4556,-2.4556,-2.4629,-2.4629,-2.4629,-2.4629,-2.4629,-2.4629,-2.4629,-2.4629,-2.4629,-2.4629,-2.4629,-2.4629,-2.4629,-2.4629,-2.4623,-2.4556,-1.2501,-1.2501,-1.2501,-1.2501,-1.2501,-1.2501,-1.2501,-1.2501,-1.2501,-1.2501,-1.2501,-1.2501,-1.2501,-1.2652,-1.2881,-1.3868,-1.5387,-1.5765,-1.8113,-2.0386,-2.1906,-2.2961,-2.3796,-2.4334,-2.4629,-2.4629,-2.4629,-2.4629,-2.4629,-2.4629,-2.4629,-2.4629,-2.4629,-2.4629,-2.4629,-2.4629,-2.4629,-2.4629,-2.4629,-2.4629,-2.4629,-2.4629,-2.4629,-2.4629,-2.4629,-2.4629,-2.4629,-2.4629,-2.4629,-2.4629,-2.4629,-2.4629,-2.4629,-2.4629,-2.4629,-2.4629,-2.4629,-2.4629,-2.4629,-2.4629,-2.4629,-2.4629,-2.4629,-2.4629,-2.4629,-2.4629,-2.4629,-2.4629,-2.4629,-2.4629,-2.4629,-2.4629,-2.4629,-2.4629,-2.4629,-2.4629,-2.4629,-2.4629,-2.4629,-2.4629,-2.4629,-2.4629,-2.4629,-2.4629,-2.4629,-2.4629,-2.387,-2.3722,-2.4025,-2.3951,-2.3796,-2.3042,-2.1975,-2.2434,-2.3722,-2.3803,-2.3419,-2.4025,-2.4556,-2.4629,-2.4629,-2.4629,-2.4629,-2.4629,-2.4629,-2.4629,-2.4629,-2.4629,-2.4629,-2.4629,-2.4629,-2.4603,-2.4556,-2.4516,-2.4396,-1.2501,-1.2501,-1.2501,-1.2501,-1.2501,-1.2501,-1.2501,-1.2501,-1.2501,-1.2501,-1.2501,-1.2501,-1.2501,-1.2501,-1.2501,-1.2881,-1.3791,-1.5085,-1.6599,-1.834,-2.0085,-2.1826,-2.2967,-2.3951,-2.4629,-2.4629,-2.4629,-2.4629,-2.4629,-2.4629,-2.4629,-2.4629,-2.4629,-2.4629,-2.4629,-2.4629,-2.4629,-2.4629,-2.4629,-2.4629,-2.4629,-2.4629,-2.4629,-2.4629,-2.4629,-2.4629,-2.4629,-2.4629,-2.4629,-2.4629,-2.4629,-2.4629,-2.4629,-2.4629,-2.4629,-2.4629,-2.4629,-2.4629,-2.4629,-2.4629,-2.4629,-2.4629,-2.4629,-2.4629,-2.4629,-2.4629,-2.4629,-2.4629,-2.4629,-2.4629,-2.4629,-2.4629,-2.4629,-2.4629,-2.4629,-2.4629,-2.4629,-2.4629,-2.4629,-2.4629,-2.4629,-2.4629,-2.4629,-2.4629,-2.4629,-2.4556,-2.3642,-2.3035,-2.3264,-2.2738,-2.2279,-2.1676,-2.0536,-2.0236,-2.1371,-2.1826,-2.2198,-2.3339,-2.4408,-2.4629,-2.4629,-2.4629,-2.4629,-2.4629,-2.4629,-2.4629,-2.4629,-2.4629,-2.4629,-2.4629,-2.4596,-2.4549,-2.4496,-2.4409,-2.4202,-1.2501,-1.2501,-1.2501,-1.2501,-1.2501,-1.2501,-1.2501,-1.2501,-1.2501,-1.2501,-1.2501,-1.2501,-1.2501,-1.2501,-1.2501,-1.2501,-1.2958,-1.3872,-1.4859,-1.6371,-1.8265,-2.0311,-2.167,-2.2812,-2.3803,-2.4334,-2.4629,-2.4629,-2.4629,-2.4629,-2.4629,-2.4629,-2.4629,-2.4629,-2.4629,-2.4629,-2.4629,-2.4629,-2.4629,-2.4629,-2.4629,-2.4629,-2.4629,-2.4629,-2.4629,-2.4629,-2.4629,-2.4629,-2.4629,-2.4629,-2.4629,-2.4629,-2.4629,-2.4629,-2.4629,-2.4629,-2.4629,-2.4629,-2.4629,-2.4629,-2.4629,-2.4629,-2.4629,-2.4629,-2.4629,-2.4629,-2.4629,-2.4629,-2.4629,-2.4629,-2.4629,-2.4629,-2.4629,-2.4629,-2.4629,-2.4629,-2.4629,-2.4629,-2.4629,-2.4629,-2.4556,-2.4327,-2.2887,-2.2806,-2.3345,-2.2961,-2.19,-2.167,-2.2354,-2.1446,-1.9784,-1.9176,-1.8416,-1.8416,-1.8643,-1.9704,-2.0916,-2.2657,-2.3642,-2.4482,-2.4629,-2.4629,-2.4629,-2.4629,-2.4629,-2.4629,-2.4629,-2.4629,-2.4629,-2.4629,-2.4543,-2.4422,-2.4315,-2.4195,-2.3941,-1.2501,-1.2501,-1.2501,-1.2501,-1.2501,-1.2501,-1.2501,-1.2501,-1.2501,-1.2501,-1.2501,-1.2501,-1.2501,-1.2501,-1.2501,-1.2501,-1.2501,-1.2807,-1.3568,-1.5161,-1.6218,-1.8265,-2.023,-2.167,-2.2893,-2.4186,-2.4562,-2.4629,-2.4629,-2.4629,-2.4629,-2.4629,-2.4629,-2.4629,-2.4629,-2.4629,-2.4629,-2.4629,-2.4629,-2.4629,-2.4629,-2.4629,-2.4629,-2.4562,-2.4179,-2.4025,-2.3951,-2.4025,-2.3951,-2.3951,-2.4482,-2.4562,-2.4629,-2.4629,-2.4629,-2.4629,-2.4629,-2.4629,-2.4629,-2.4629,-2.4629,-2.4629,-2.4629,-2.4629,-2.4629,-2.4629,-2.4629,-2.4629,-2.4629,-2.4629,-2.4629,-2.4629,-2.4629,-2.4629,-2.4629,-2.4629,-2.4629,-2.4562,-2.4562,-2.387,-2.3951,-2.3796,-2.1745,-2.0686,-2.1527,-2.1297,-2.008,-2.0155,-2.0991,-1.9478,-1.736,-1.7208,-1.6675,-1.6828,-1.7208,-1.827,-1.9553,-2.1446,-2.3035,-2.4099,-2.4629,-2.4629,-2.4629,-2.4629,-2.4629,-2.4629,-2.4629,-2.4623,-2.4563,-2.4476,-2.4356,-2.4235,-2.4128,-2.3955,-2.3681,-1.2501,-1.2501,-1.2501,-1.2501,-1.2501,-1.2501,-1.2501,-1.2501,-1.2501,-1.2501,-1.2501,-1.2501,-1.2501,-1.2501,-1.2501,-1.2501,-1.2501,-1.2501,-1.3263,-1.3568,-1.4782,-1.5994,-1.7962,-2.0311,-2.1906,-2.2819,-2.3648,-2.4482,-2.4629,-2.4629,-2.4629,-2.4629,-2.4629,-2.4629,-2.4629,-2.4629,-2.4629,-2.4629,-2.4629,-2.4629,-2.4556,-2.4482,-2.4408,-2.426,-2.319,-2.2657,-2.2583,-2.2583,-2.2583,-2.2806,-2.3345,-2.4179,-2.4334,-2.4408,-2.4482,-2.4556,-2.4629,-2.4629,-2.4629,-2.4629,-2.4629,-2.4629,-2.4629,-2.4629,-2.4629,-2.4629,-2.4629,-2.4629,-2.4629,-2.4629,-2.4629,-2.4629,-2.4629,-2.4629,-2.4629,-2.4629,-2.4562,-2.4562,-2.4334,-2.2961,-2.2509,-2.1521,-1.9854,-1.8113,-1.8492,-1.8799,-1.7734,-1.8265,-1.9096,-1.6599,-1.4402,-1.5085,-1.5161,-1.5314,-1.5922,-1.7526,-1.9332,-2.1365,-2.3035,-2.4327,-2.4629,-2.4629,-2.4629,-2.4629,-2.4629,-2.4629,-2.4603,-2.4556,-2.4402,-2.4289,-2.4142,-2.3935,-2.3741,-2.3574,-2.3374,-1.2501,-1.2501,-1.2501,-1.2501,-1.2501,-1.2501,-1.2501,-1.2501,-1.2501,-1.2501,-1.2501,-1.2501,-1.2501,-1.2501,-1.2501,-1.2501,-1.2501,-1.2501,-1.2501,-1.2807,-1.4556,-1.554,-1.6828,-1.8869,-2.0692,-2.1676,-2.2738,-2.3716,-2.4556,-2.4629,-2.4629,-2.4629,-2.4629,-2.4629,-2.4629,-2.4629,-2.4629,-2.4408,-2.4025,-2.3339,-2.311,-2.2806,-2.2279,-2.1975,-2.1297,-2.0536,-2.0542,-2.0536,-2.0536,-2.0991,-2.1751,-2.2961,-2.3264,-2.3574,-2.3877,-2.4253,-2.4629,-2.4629,-2.4629,-2.4629,-2.4629,-2.4629,-2.4629,-2.4629,-2.4629,-2.4629,-2.4629,-2.4629,-2.4629,-2.4629,-2.4629,-2.4556,-2.4327,-2.4327,-2.4253,-2.4179,-2.2732,-2.2583,-2.2664,-2.1371,-2.0236,-1.9101,-1.7815,-1.6223,-1.5238,-1.5314,-1.531,-1.6299,-1.7056,-1.4778,-1.2804,-1.3491,-1.4176,-1.4479,-1.5629,-1.7398,-1.9278,-2.1297,-2.2887,-2.4482,-2.4629,-2.4629,-2.4629,-2.4629,-2.4629,-2.4616,-2.4563,-2.4476,-2.4262,-2.4062,-2.3881,-2.3647,-2.3367,-2.322,-2.3106,-1.2501,-1.2501,-1.2501,-1.2501,-1.2501,-1.2501,-1.2501,-1.2501,-1.2501,-1.2501,-1.2501,-1.2501,-1.2501,-1.2501,-1.2501,-1.2501,-1.2501,-1.2501,-1.2501,-1.3112,-1.4633,-1.5161,-1.6299,-1.8113,-2.0236,-2.1297,-2.2279,-2.3648,-2.4482,-2.4629,-2.4629,-2.4629,-2.4629,-2.4327,-2.4179,-2.4025,-2.4025,-2.3574,-2.2354,-2.167,-2.1297,-2.0155,-1.9854,-1.9478,-1.895,-1.8567,-1.8492,-1.8492,-1.8492,-1.8643,-1.8874,-2.0005,-2.0841,-2.1452,-2.2738,-2.3796,-2.4253,-2.4253,-2.4556,-2.4556,-2.4482,-2.4482,-2.4629,-2.4629,-2.4629,-2.4629,-2.4629,-2.4629,-2.4629,-2.4629,-2.4556,-2.4179,-2.3796,-2.3722,-2.3574,-2.2279,-2.0155,-1.9704,-2.001,-1.9327,-1.827,-1.7132,-1.5693,-1.4172,-1.3568,-1.3568,-1.3945,-1.4326,-1.4782,-1.4253,-1.273,-1.2652,-1.3263,-1.3791,-1.525,-1.7303,-1.9278,-2.1285,-2.3184,-2.4629,-2.4629,-2.4629,-2.4629,-2.4629,-2.4629,-2.4589,-2.4469,-2.4282,-2.4062,-2.3855,-2.3601,-2.3414,-2.3153,-2.3046,-2.2939,-1.2501,-1.2501,-1.2501,-1.2501,-1.2501,-1.2501,-1.2501,-1.2501,-1.2501,-1.2501,-1.2501,-1.2501,-1.2501,-1.2501,-1.2501,-1.2501,-1.2501,-1.2501,-1.2501,-1.3263,-1.4556,-1.5238,-1.6675,-1.8643,-2.0611,-2.1826,-2.2812,-2.3648,-2.4408,-2.4562,-2.4482,-2.4629,-2.4099,-2.3568,-2.2961,-2.2428,-2.2279,-2.1826,-2.0311,-1.9704,-1.9403,-1.8492,-1.8118,-1.7886,-1.6904,-1.6523,-1.6371,-1.6371,-1.6371,-1.6447,-1.7815,-1.9025,-1.9252,-1.9553,-2.0311,-2.213,-2.2583,-2.2887,-2.4031,-2.3271,-2.2887,-2.3944,-2.4253,-2.4556,-2.4629,-2.4408,-2.4408,-2.4629,-2.4253,-2.4099,-2.387,-2.3493,-2.2577,-2.1745,-2.1596,-2.0686,-1.8794,-1.8189,-1.827,-1.6908,-1.5922,-1.5161,-1.3718,-1.3414,-1.2958,-1.2652,-1.2652,-1.3035,-1.3186,-1.2807,-1.2656,-1.2501,-1.3281,-1.4049,-1.5519,-1.7478,-1.9381,-2.1279,-2.3184,-2.4556,-2.4629,-2.4629,-2.4629,-2.4629,-2.4629,-2.4496,-2.4322,-2.4115,-2.3895,-2.3534,-2.3267,-2.3113,-2.2973,-2.2906,-2.2866,-1.2501,-1.2501,-1.2501,-1.2501,-1.2501,-1.2501,-1.2501,-1.2501,-1.2501,-1.2501,-1.2501,-1.2501,-1.2501,-1.2501,-1.2501,-1.2501,-1.2501,-1.2501,-1.2501,-1.2958,-1.4552,-1.5234,-1.6828,-1.8718,-2.0461,-2.1745,-2.2738,-2.35,-2.4179,-2.3803,-2.35,-2.4408,-2.3493,-2.2279,-2.1297,-2.0155,-1.902,-1.8643,-1.8038,-1.7507,-1.7203,-1.6751,-1.6299,-1.6146,-1.4859,-1.4552,-1.4402,-1.4402,-1.4402,-1.4326,-1.5845,-1.6604,-1.7284,-1.8113,-1.8799,-2.0536,-2.1452,-2.1527,-2.1826,-2.1981,-2.1975,-2.2124,-2.2502,-2.2049,-2.2887,-2.3197,-2.3951,-2.4556,-2.3877,-2.3271,-2.3035,-2.2502,-2.0911,-1.9322,-1.9171,-1.902,-1.8038,-1.7132,-1.5994,-1.4556,-1.3718,-1.3112,-1.2579,-1.2501,-1.2501,-1.2501,-1.2501,-1.2652,-1.2807,-1.2652,-1.2579,-1.2501,-1.3601,-1.4692,-1.638,-1.8351,-2.0394,-2.2162,-2.3487,-2.4562,-2.4562,-2.4629,-2.4629,-2.4629,-2.4629,-2.4456,-2.4255,-2.3981,-2.3721,-2.3367,-2.3086,-2.2986,-2.2919,-2.2893,-2.2866,-1.2501,-1.2501,-1.2501,-1.2501,-1.2501,-1.2501,-1.2501,-1.2501,-1.2501,-1.2501,-1.2501,-1.2501,-1.2501,-1.2501,-1.2501,-1.2501,-1.2501,-1.2501,-1.2501,-1.2656,-1.4556,-1.5463,-1.607,-1.7659,-1.993,-2.1072,-2.2055,-2.2967,-2.3648,-2.3271,-2.2887,-2.4031,-2.0916,-1.9553,-1.9704,-1.7734,-1.6447,-1.5765,-1.554,-1.5234,-1.4855,-1.3795,-1.2501,-1.2807,-1.273,-1.273,-1.2652,-1.2579,-1.2501,-1.2579,-1.2884,-1.3868,-1.5238,-1.7056,-1.7967,-1.8567,-1.9553,-2.0311,-2.0386,-2.0686,-2.0761,-2.023,-1.902,-1.993,-2.1371,-2.1826,-2.2509,-2.2583,-2.1826,-2.1446,-2.1141,-2.0611,-1.9247,-1.8038,-1.7507,-1.6599,-1.5314,-1.4859,-1.4556,-1.3414,-1.3112,-1.2501,-1.2501,-1.2501,-1.2501,-1.2501,-1.2501,-1.2501,-1.3186,-1.3186,-1.3263,-1.3267,-1.4079,-1.5778,-1.8265,-2.0164,-2.1873,-2.341,-2.4308,-2.4562,-2.4562,-2.4629,-2.4629,-2.4629,-2.4623,-2.4409,-2.4189,-2.3921,-2.3621,-2.3267,-2.3033,-2.2913,-2.2866,-2.2866,-2.2866,-1.2501,-1.2501,-1.2501,-1.2501,-1.2501,-1.2501,-1.2501,-1.2501,-1.2501,-1.2501,-1.2501,-1.2501,-1.2501,-1.2501,-1.2501,-1.2501,-1.2501,-1.2501,-1.2501,-1.3032,-1.4479,-1.5314,-1.5841,-1.7355,-1.9478,-2.0997,-2.1906,-2.2279,-2.3419,-2.2657,-2.167,-2.2124,-1.9478,-1.8421,-1.7815,-1.5769,-1.4782,-1.3718,-1.3564,-1.3568,-1.3337,-1.3109,-1.2501,-1.2501,-1.2501,-1.2501,-1.2501,-1.2501,-1.2501,-1.2501,-1.2501,-1.2884,-1.3263,-1.5161,-1.607,-1.6371,-1.6975,-1.8189,-1.9171,-1.9478,-1.9704,-2.1222,-2.1222,-2.0991,-2.0841,-2.0386,-2.0085,-2.0005,-1.9779,-1.9478,-1.9096,-1.8416,-1.7659,-1.6675,-1.5765,-1.4176,-1.2656,-1.2884,-1.3035,-1.2881,-1.2579,-1.2579,-1.2579,-1.2652,-1.2501,-1.2501,-1.2501,-1.2881,-1.4402,-1.5008,-1.531,-1.5331,-1.5106,-1.6708,-1.9413,-2.1462,-2.2954,-2.3799,-2.4468,-2.4562,-2.4629,-2.4629,-2.4629,-2.4629,-2.4583,-2.4342,-2.4102,-2.3875,-2.3561,-2.318,-2.2999,-2.2886,-2.2866,-2.2866,-2.2866,-1.2501,-1.2501,-1.2501,-1.2501,-1.2501,-1.2501,-1.2501,-1.2501,-1.2501,-1.2501,-1.2501,-1.2501,-1.2501,-1.2501,-1.2501,-1.2501,-1.2501,-1.2501,-1.2501,-1.3035,-1.3641,-1.4633,-1.5693,-1.6675,-1.8265,-1.9779,-2.0236,-2.0991,-2.2657,-2.1596,-2.0461,-2.1521,-1.9629,-1.698,-1.6146,-1.5387,-1.3718,-1.2656,-1.2501,-1.2501,-1.2501,-1.2501,-1.2501,-1.2501,-1.2501,-1.2501,-1.2501,-1.2501,-1.2501,-1.2501,-1.2501,-1.2501,-1.2807,-1.3645,-1.4095,-1.4475,-1.5161,-1.607,-1.7203,-1.7962,-1.8113,-1.9327,-1.8799,-1.6832,-1.8042,-1.7739,-1.8492,-1.834,-1.7588,-1.7284,-1.6751,-1.6146,-1.5238,-1.4249,-1.4022,-1.3186,-1.2656,-1.2652,-1.273,-1.2652,-1.273,-1.3186,-1.3491,-1.4249,-1.4402,-1.5769,-1.5314,-1.5085,-1.6299,-1.698,-1.7279,-1.7749,-1.7755,-1.8222,-2.0483,-2.2243,-2.3584,-2.422,-2.4556,-2.4629,-2.4629,-2.4629,-2.4629,-2.4623,-2.4496,-2.4215,-2.3981,-2.3754,-2.3427,-2.3033,-2.2926,-2.2866,-2.2866,-2.2866,-2.2866,-1.2501,-1.2501,-1.2501,-1.2501,-1.2501,-1.2501,-1.2501,-1.2501,-1.2501,-1.2501,-1.2501,-1.2501,-1.2501,-1.2501,-1.2501,-1.2501,-1.2501,-1.2501,-1.2501,-1.2501,-1.2652,-1.3568,-1.4326,-1.5238,-1.6523,-1.781,-1.8643,-1.9784,-2.1072,-1.9553,-1.9322,-2.159,-1.9473,-1.5922,-1.6223,-1.4935,-1.2501,-1.2501,-1.2501,-1.2501,-1.2501,-1.2501,-1.2501,-1.2501,-1.2501,-1.2501,-1.2501,-1.2501,-1.2501,-1.2501,-1.2501,-1.2501,-1.2501,-1.2807,-1.273,-1.3186,-1.4022,-1.4326,-1.4475,-1.554,-1.5085,-1.4556,-1.319,-1.3645,-1.5314,-1.5841,-1.6599,-1.6599,-1.5845,-1.5693,-1.5238,-1.4552,-1.3641,-1.334,-1.3263,-1.3417,-1.334,-1.3186,-1.3035,-1.3035,-1.3491,-1.4022,-1.4859,-1.5693,-1.6675,-1.8194,-1.8723,-1.8874,-1.895,-1.9247,-1.9548,-2.0391,-2.1043,-2.1712,-2.2285,-2.2874,-2.414,-2.4308,-2.4629,-2.4629,-2.4629,-2.4629,-2.4623,-2.4516,-2.4422,-2.4142,-2.3855,-2.3607,-2.3253,-2.2988,-2.2886,-2.2866,-2.2866,-2.2866,-2.2866,-1.2501,-1.2501,-1.2501,-1.2501,-1.2501,-1.2501,-1.2501,-1.2501,-1.2501,-1.2501,-1.2501,-1.2501,-1.2501,-1.2501,-1.2501,-1.2501,-1.2501,-1.2501,-1.2501,-1.2501,-1.2501,-1.2807,-1.319,-1.3718,-1.4475,-1.5765,-1.7284,-1.8648,-1.9025,-1.7355,-1.6447,-1.7659,-1.5616,-1.3568,-1.3491,-1.2579,-1.2501,-1.2501,-1.2501,-1.2501,-1.2501,-1.2501,-1.2501,-1.2501,-1.2501,-1.2501,-1.2501,-1.2501,-1.2501,-1.2501,-1.2501,-1.2501,-1.2501,-1.2501,-1.2501,-1.2579,-1.3337,-1.3718,-1.4022,-1.4552,-1.4402,-1.5616,-1.4935,-1.4402,-1.5008,-1.4326,-1.4931,-1.531,-1.5161,-1.6151,-1.5845,-1.5085,-1.4326,-1.5012,-1.5314,-1.5845,-1.6146,-1.5463,-1.4931,-1.5008,-1.5238,-1.6146,-1.7208,-1.7815,-1.8189,-1.9252,-1.9478,-1.9704,-2.0916,-2.1371,-2.167,-2.2589,-2.3587,-2.4038,-2.4025,-2.3722,-2.4468,-2.4556,-2.4629,-2.4629,-2.4629,-2.4629,-2.4616,-2.4522,-2.4382,-2.4095,-2.3801,-2.3494,-2.3213,-2.2939,-2.2893,-2.2866,-2.2866,-2.2866,-2.2866]}]]